GFSSGP_850_dewp_000.txt.gz
Dewpoint
-23 -15 -13 -9 -8 -9 -8 -10 -11 -9 -3 9 10 9 10 10 11 12 13 13 11 7 4 3 2 3 3 4 7 8 11 12 12 11 11 12 12 11 11 10 8 10 7 6 4 3 7 8 8
-24 -14 -13 -11 -7 -6 -7 -10 -10 -10 7 7 9 11 12 13 12 12 12 12 11 10 10 4 0 -1 -1 0 4 7 8 10 9 4 4 6 10 11 11 11 11 9 9 7 5 6 7 8 5
-13 -14 -14 -10 -8 -6 -7 -10 -12 -0 5 0 10 11 12 12 13 13 11 11 9 10 9 5 3 2 1 -0 0 1 2 4 5 2 7 7 9 10 9 9 9 8 8 6 6 6 8 7 6
-14 -12 -14 -12 -11 -11 -11 -10 -10 -7 5 8 10 11 12 11 11 11 8 7 9 7 6 4 2 0 -1 1 2 3 2 2 2 2 0 1 4 7 7 7 7 8 10 7 8 8 10 5 7
-14 -14 -12 -12 -13 -12 -14 -11 -1 5 7 7 6 9 12 11 7 6 9 10 9 5 4 3 2 2 1 2 3 3 4 3 3 2 3 4 2 0 -1 -0 2 7 8 10 10 9 10 9 9
-14 -14 -12 -10 -12 -14 -15 -12 -7 0 6 5 6 9 10 12 7 10 12 12 11 6 8 7 7 5 2 2 1 2 2 2 2 2 2 3 4 4 4 4 4 6 8 8 7 4 3 5 9
-13 -13 -12 -13 -13 -14 -15 -14 -12 -12 -12 -0 1 8 12 11 10 11 12 12 10 9 11 10 11 10 9 3 5 2 2 2 2 2 2 2 0 0 -0 0 3 5 4 3 3 2 4 8 8
-15 -15 -14 -14 -14 -15 -17 -14 -12 -12 -13 -1 2 6 6 9 10 11 11 10 10 9 8 8 7 7 7 4 3 6 5 6 4 2 1 2 1 0 -1 -3 -3 -0 5 7 6 6 7 8 10
-16 -12 -11 -10 -12 -13 -15 -12 -13 -12 -11 -7 2 -0 2 7 11 11 11 11 11 10 11 9 6 2 1 5 4 8 7 6 5 4 3 2 2 -2 -3 -4 -4 -1 -1 0 4 6 8 8 10
-13 -12 -10 -11 -13 -13 -12 -11 -13 -14 -7 2 6 2 4 5 10 6 4 10 10 10 8 5 0 -2 2 3 8 8 8 7 8 5 2 0 -3 -2 -3 -6 -6 -4 -4 -9 -6 -2 4 7 7
-11 -8 -9 -9 -11 -10 -8 -9 -10 -11 -9 -6 5 5 5 4 4 1 4 9 9 9 6 3 0 -3 -5 1 7 9 9 8 7 4 2 1 -3 -6 -5 -6 -9 -4 -3 -13 -3 -1 -2 4 6
-8 -8 -8 -8 -9 -9 -8 -8 -8 -9 -10 -7 -3 1 6 6 4 3 6 4 9 5 2 1 -1 -2 -4 1 6 8 9 9 6 6 3 2 -4 -5 -8 -15 -13 -10 -13 -11 -4 -3 -5 -5 -3
-7 -8 -7 -7 -7 -9 -8 -8 -9 -9 -9 -8 -6 2 4 4 2 4 4 2 2 1 0 -1 -2 -2 -4 -3 2 6 8 8 6 4 3 1 -4 -4 -5 -6 -7 -7 -9 -9 -9 -7 -7 -6 -6
-5 -6 -6 -7 -7 -7 -7 -7 -7 -8 -10 -8 -6 -3 -2 -1 -0 1 2 1 -1 -1 -2 -3 -3 -2 -3 -4 -1 4 6 7 7 5 4 -1 -5 -6 -5 -7 -8 -8 -9 -9 -10 -12 -13 -13 -13
-6 -5 -6 -6 -6 -7 -9 -10 -9 -11 -10 -9 -7 -8 -8 -6 -3 -2 -2 -0 -1 -2 -3 -3 -2 -3 -3 -4 -3 -2 -0 2 -0 -3 -6 -6 -6 -8 -6 -7 -8 -8 -8 -8 -10 -10 -11 -11 -12
-4 -5 -3 -6 -6 -9 -11 -8 -11 -9 -10 -9 -7 -7 -7 -6 -6 -4 -3 -3 -3 -4 -4 -3 -3 -3 -3 -4 -5 -4 -3 -1 -1 -2 -3 -5 -5 -5 -7 -8 -4 -3 -5 -7 -9 -8 -7 -6 -7
-5 -4 -5 -5 -8 -9 -10 -8 -8 -7 -8 -8 -7 -7 -7 -6 -6 -5 -4 -3 -4 -4 -3 -3 -3 -3 -4 -4 -4 -5 -4 -2 -2 -3 -4 -5 -5 -4 -6 -8 -5 -3 -4 -5 -5 -4 -5 -7 -8
-3 -4 -6 -4 -6 -4 -5 -4 -5 -7 -8 -8 -8 -8 -8 -6 -5 -6 -5 -4 -4 -3 -3 -4 -4 -5 -5 -5 -5 -5 -5 -5 -4 -3 -4 -6 -3 -2 -4 -6 -6 -3 -3 -4 -4 -4 -6 -7 -8
-5 -4 -2 -3 -4 -2 -2 -2 -4 -6 -7 -6 -7 -6 -5 -4 -4 -5 -5 -4 -4 -4 -4 -4 -6 -5 -4 -5 -5 -5 -5 -5 -5 -5 -5 -3 -2 -4 -4 -4 -5 -3 -3 -3 -3 -3 -6 -6 -5
-4 -2 -1 -2 -3 -1 -1 -1 -6 -8 -7 -7 -6 -5 -5 -5 -5 -4 -4 -4 -4 -4 -4 -5 -4 -3 -3 -4 -3 -4 -4 -4 -4 -5 -6 -5 -4 -4 -3 -4 -4 -4 -4 -4 -4 -4 -5 -4 -6
-4 -1 -1 -0 -1 -1 -1 -1 -6 -7 -5 -5 -5 -5 -6 -6 -5 -5 -5 -5 -4 -4 -4 -3 -3 -3 -2 -2 -3 -3 -3 -3 -4 -4 -5 -5 -5 -4 -4 -4 -4 -4 -4 -4 -4 -4 -4 -5 -6
-2 -4 -1 0 1 2 -1 4 -3 -6 -6 -5 -5 -5 -5 -4 -4 -4 -4 -4 -4 -4 -3 -3 -3 -3 -2 -2 -2 -2 -2 -2 -2 -3 -4 -5 -6 -5 -4 -3 -3 -3 -3 -4 -4 -4 -5 -5 -6
-2 -2 0 1 2 2 1 1 -2 -6 -5 -5 -4 -4 -4 -4 -3 -3 -3 -4 -3 -3 -3 -3 -2 -2 -1 -1 -1 -0 -0 -0 -1 -2 -3 -4 -5 -6 -6 -4 -3 -3 -3 -4 -5 -4 -3 -4 -6
-2 1 2 2 2 4 1 0 -0 -2 -4 -3 -3 -4 -4 -3 -3 -3 -3 -2 -2 -1 -1 -0 0 0 -0 -1 -1 -2 -2 -2 -0 -0 -1 -2 -4 -5 -5 -5 -3 -2 -3 -3 -3 -2 -3 -4 -5
0 3 5 4 5 5 2 2 -1 -3 -4 -4 -4 -4 -4 -3 -3 -3 -2 -1 -1 -1 -1 -0 -0 -0 -0 -1 -1 -2 -3 -3 -2 -2 -3 -1 -3 -3 -2 -3 -2 -4 -5 -4 -4 -4 -3 -4 -4
1 3 5 7 6 5 2 3 0 -4 -4 -5 -5 -3 -2 -1 -1 -1 -0 0 -0 -0 -0 -1 -0 -1 -1 -1 -1 -3 -3 -4 -5 -5 -5 -3 -2 -4 -4 -5 -6 -5 -4 -3 -4 -3 -1 -1 -7
2 4 2 4 2 4 4 3 -2 -3 -1 -2 -2 -1 -1 -1 -0 -0 -0 -1 -1 -1 -1 -0 -0 -1 -2 -2 -2 -3 -4 -3 -5 -5 -4 -2 -3 -5 -6 -6 -3 -1 -1 -1 -2 -3 -5 -8 -9
0 0 4 4 5 8 6 4 3 1 2 0 -0 -1 -1 -1 -1 -1 -1 0 -0 -1 -1 -1 -1 -2 -2 -2 -2 -3 -4 -5 -5 -5 -4 -4 -6 -7 -5 -1 -1 -1 -4 -5 -6 -9 -10 -12 -12
1 4 3 4 5 8 8 7 1 2 1 1 0 -1 -0 -0 -0 -0 -0 0 0 0 -1 -0 -1 -1 -2 -2 -1 -2 -3 -5 -5 -4 -5 -6 -6 -3 -1 -4 -6 -8 -10 -10 -9 -9 -9 -9 -9
1 3 4 4 6 5 5 6 0 0 -0 -1 -0 0 0 0 1 1 1 1 -2 -3 -1 -1 -3 -2 -1 -0 -1 -2 -4 -5 -5 -5 -5 -6 -7 -7 -7 -10 -11 -11 -10 -9 -8 -8 -10 -12 -14

GFSSGP_850_dewp_003.txt.gz
Dewpoint
-20 -20 -13 -9 -9 -9 -8 -10 -11 -10 9 10 8 8 9 11 10 8 13 13 11 5 2 3 4 7 6 8 9 10 9 12 12 12 11 11 10 9 7 6 5 5 7 8 7 6 5 6 5
-20 -16 -13 -10 -8 -7 -8 -10 -5 1 10 10 10 11 12 13 13 13 13 13 12 10 3 0 0 1 4 4 8 9 11 11 9 5 6 8 11 12 11 11 11 11 11 10 8 6 7 7 6
-14 -14 -15 -9 -8 -7 -7 -10 -2 7 8 4 11 12 12 13 13 13 12 12 11 9 5 3 1 -0 -0 1 2 3 5 6 7 4 7 7 9 10 9 9 8 8 8 6 5 6 7 7 6
-14 -14 -15 -11 -10 -11 -10 -6 -9 0 6 9 11 11 12 12 11 11 12 11 6 6 4 3 3 1 -0 -1 -0 -0 -0 1 2 2 0 -1 -1 2 3 3 1 2 6 8 7 7 6 7 7
-14 -15 -13 -12 -12 -12 -11 1 3 5 6 7 7 11 12 12 9 7 9 7 4 3 2 1 -0 -1 -2 -2 -0 -0 1 1 0 -0 -1 1 2 2 0 -1 -3 -5 1 7 8 10 9 8 6
-15 -15 -12 -11 -13 -14 -15 -6 -3 3 4 5 8 10 11 10 8 10 10 7 4 1 1 3 3 2 1 -3 -2 -0 1 1 1 0 0 2 3 2 1 -0 2 4 4 4 6 3 0 -2 3
-14 -14 -12 -13 -14 -14 -16 -13 -12 -13 -6 -0 5 11 11 8 10 10 11 9 7 5 3 2 2 -1 -2 -4 -1 2 1 1 2 1 1 1 1 -0 -1 -1 -0 2 4 4 3 3 2 4 7
-14 -15 -14 -14 -14 -15 -17 -13 -12 -12 -8 2 1 7 12 8 10 11 11 11 10 9 6 4 3 -2 -4 -1 4 6 6 4 3 2 1 0 1 1 -2 -6 -6 -3 1 4 5 6 6 7 8
-16 -12 -9 -11 -13 -13 -13 -12 -11 -11 -5 -6 1 0 3 10 11 11 12 12 11 9 8 8 6 0 -3 -4 3 7 8 6 6 4 3 2 2 -1 -4 -6 -7 -4 -2 -1 1 4 5 6 8
-12 -11 -11 -12 -13 -13 -11 -12 -13 -12 -1 4 2 -0 3 8 11 11 11 11 10 9 8 7 3 -1 -3 -2 1 7 8 7 7 7 3 0 -1 -5 -7 -7 -7 -6 -4 -5 -4 -0 1 5 6
-10 -8 -10 -9 -11 -11 -9 -9 -10 -11 -6 3 1 1 4 9 10 11 10 9 8 9 9 5 2 -0 -2 -2 2 5 6 4 6 4 2 -0 -2 -6 -10 -11 -11 -11 -9 -8 -13 -7 -4 -2 2
-8 -9 -9 -9 -9 -9 -8 -9 -9 -9 -10 -8 -4 -2 2 4 4 1 2 8 9 9 8 2 1 -1 -2 -5 -4 1 3 6 7 4 0 -2 -3 -7 -4 -3 -6 -11 -10 -11 -12 -10 -8 -6 -7
-7 -8 -8 -7 -8 -8 -8 -8 -9 -9 -9 -8 -3 2 2 1 1 3 4 5 4 7 5 1 -2 -3 -3 -3 -5 -1 5 6 7 7 4 2 1 -3 -5 -5 -6 -8 -7 -6 -7 -9 -10 -10 -10
-5 -6 -6 -6 -7 -7 -7 -7 -7 -9 -9 -8 -4 2 1 2 2 3 5 4 3 3 0 -2 -3 -3 -3 -3 -4 -2 3 5 6 7 6 4 2 -5 -7 -7 -6 -6 -5 -5 -5 -7 -11 -12 -13
-6 -5 -5 -6 -6 -6 -7 -10 -9 -10 -10 -9 -6 -1 3 3 3 -0 -1 0 1 -0 -2 -3 -3 -3 -3 -4 -4 -4 -0 2 3 1 -1 -3 -4 -6 -6 -7 -7 -7 -5 -5 -5 -8 -10 -9 -8
-6 -6 -5 -7 -6 -8 -11 -7 -11 -10 -7 -10 -8 -2 -2 -4 -6 -3 -2 -1 -0 -2 -3 -3 -3 -3 -4 -4 -4 -4 -5 -5 -3 -1 -2 -2 -4 -5 -5 -5 -6 -8 -8 -7 -7 -8 -7 -5 -5
-5 -4 -5 -6 -6 -6 -9 -8 -10 -8 -6 -8 -10 -8 -6 -6 -6 -5 -4 -2 -2 -2 -3 -4 -3 -4 -6 -5 -5 -5 -5 -5 -5 -5 -5 -4 -4 -4 -4 -4 -5 -8 -6 -6 -6 -5 -5 -5 -6
-3 -5 -5 -4 -5 -2 -3 -5 -5 -4 -7 -8 -8 -7 -6 -6 -5 -6 -6 -5 -4 -3 -3 -4 -4 -6 -4 -4 -4 -4 -4 -4 -4 -5 -5 -5 -5 -5 -3 -2 -4 -5 -5 -5 -4 -5 -5 -5 -6
-5 -4 -1 -3 -5 -1 -1 -1 -2 -5 -7 -7 -8 -8 -5 -5 -6 -6 -6 -5 -4 -4 -4 -4 -5 -3 -3 -3 -3 -3 -3 -3 -3 -4 -4 -5 -5 -6 -6 -5 -5 -4 -4 -5 -4 -4 -4 -4 -6
-4 -2 -2 -2 -3 -1 -1 -1 -7 -8 -7 -6 -6 -4 -4 -5 -5 -4 -4 -4 -4 -4 -4 -4 -4 -3 -3 -2 -2 -2 -2 -2 -2 -2 -3 -4 -4 -5 -5 -6 -5 -5 -4 -4 -4 -4 -4 -4 -5
-4 -2 -2 -1 -1 -1 -1 -1 -6 -6 -5 -5 -5 -5 -4 -5 -5 -5 -5 -5 -4 -4 -4 -4 -4 -3 -3 -2 -2 -2 -1 -1 -1 -2 -1 -1 -3 -4 -5 -6 -5 -4 -4 -4 -4 -4 -4 -4 -4
-2 -5 -2 -0 1 2 -1 2 -2 -6 -5 -5 -5 -5 -5 -4 -4 -4 -4 -4 -4 -4 -4 -4 -3 -3 -3 -2 -1 -1 -1 -0 -0 -1 -3 -2 -0 -2 -4 -5 -5 -4 -3 -3 -4 -4 -4 -4 -4
-1 -1 -0 1 2 1 1 1 -0 -4 -5 -5 -4 -4 -4 -4 -4 -4 -4 -4 -4 -3 -3 -3 -3 -2 -1 -0 -1 -1 -1 -1 -2 -4 -3 -2 -1 -1 -3 -5 -5 -3 -2 -3 -4 -4 -4 -5 -5
-1 1 1 2 2 4 1 1 -0 -2 -3 -3 -3 -4 -3 -3 -3 -3 -3 -3 -2 -2 -1 -1 -0 -0 -0 -0 -1 -1 -1 -2 -2 -4 -4 -4 -4 -4 -4 -3 -5 -1 -2 -2 -2 -6 -7 -8 -7
1 3 4 3 4 5 2 1 -1 -3 -3 -3 -3 -3 -4 -3 -3 -3 -2 -2 -0 -0 -0 -1 -1 -2 -2 -2 -2 -2 -3 -4 -4 -4 -4 -5 -5 -5 -4 -3 -3 -2 -2 -2 -6 -7 -7 -6 -3
1 3 4 5 5 5 2 3 0 -3 -4 -4 -3 -4 -2 -1 -1 -1 -0 0 -0 -1 -1 -1 -1 -1 -2 -3 -3 -3 -4 -4 -3 -3 -4 -5 -6 -3 -2 -3 -2 -3 -5 -7 -5 -2 -1 -1 -1
2 4 2 4 1 4 4 3 -2 -1 -0 -3 -1 -1 -0 0 0 -1 -1 -1 -0 -1 -1 -1 -1 -2 -3 -4 -4 -4 -4 -6 -4 -2 -5 -6 -6 -4 -3 -4 -5 -5 -4 -1 -1 -0 -1 -2 -4
1 0 4 4 4 7 6 5 3 1 2 0 -0 -1 -1 -1 -1 -1 -1 -0 0 -0 -1 -3 -3 -3 -4 -5 -6 -5 -6 -6 -3 -3 -5 -5 -5 -4 -6 -6 -5 -3 -1 -3 -6 -9 -9 -9 -9
3 4 3 4 4 6 6 6 1 2 0 1 -0 -0 -0 -0 -0 0 1 1 1 -1 -2 -1 -1 -4 -4 -3 -2 -2 -5 -5 -4 -4 -4 -5 -6 -7 -5 -3 -3 -6 -10 -10 -9 -9 -9 -8 -8
2 3 3 5 5 4 3 5 -0 -0 0 0 0 1 1 0 0 0 1 1 -2 -1 -1 -3 -4 -5 -3 -1 0 -2 -5 -5 -4 -5 -6 -7 -7 -3 -5 -8 -11 -13 -12 -12 -11 -10 -12 -14 -13

GFSSGP_850_dewp_006.txt.gz
Dewpoint
-21 -19 -13 -8 -9 -9 -8 -10 -12 -6 9 10 9 8 11 13 10 8 12 12 6 3 4 7 10 11 10 11 12 13 12 12 12 12 11 10 9 8 10 11 9 6 7 7 8 9 8 6 6
-18 -17 -13 -10 -8 -7 -7 -9 5 4 10 10 10 10 12 13 13 12 12 12 11 4 1 3 5 7 5 8 7 8 8 10 9 6 7 10 11 9 8 7 6 6 7 8 10 9 6 7 8
-14 -14 -15 -9 -8 -7 -4 -9 6 9 9 7 11 12 12 13 12 12 12 11 10 5 2 -0 -1 -0 1 0 2 1 3 4 4 1 3 5 7 11 12 11 10 7 7 7 7 6 7 7 6
-14 -14 -14 -10 -9 -10 -7 -6 6 7 8 10 11 11 12 13 11 10 9 8 7 4 2 2 0 -3 -5 -5 -6 -6 -5 -4 -3 -1 0 -0 1 4 3 0 -4 -4 2 7 8 8 7 8 7
-14 -15 -13 -12 -11 -9 -6 -1 1 5 6 7 9 12 12 12 9 10 7 4 2 0 -0 -3 -4 -5 -6 -7 -6 -5 -3 -2 -1 -1 -1 -1 1 3 3 2 2 2 3 3 5 8 9 9 9
-15 -16 -12 -10 -12 -14 -12 -4 1 3 5 8 9 10 11 10 8 9 8 4 3 -1 -2 -2 -0 -2 -3 -2 -1 -0 1 1 1 1 2 3 3 2 -1 -2 -3 -1 0 2 3 3 0 -1 1
-15 -14 -12 -13 -14 -15 -16 -14 -12 -8 -3 3 6 11 11 11 11 10 10 7 6 3 1 2 1 1 1 -0 1 3 4 2 2 2 2 2 1 0 -0 -2 -4 -5 -4 -0 3 4 4 4 5
-16 -15 -14 -14 -14 -15 -16 -13 -12 -11 -5 3 4 10 10 9 11 11 11 9 9 7 7 6 5 0 -3 -3 -2 2 4 5 4 3 2 1 1 1 -1 -5 -10 -10 -7 -5 -3 -0 -0 -0 1
-15 -11 -11 -13 -13 -13 -13 -12 -11 -9 -3 -3 3 1 3 7 10 12 12 10 9 8 7 9 6 0 -3 -4 -5 -0 1 4 5 6 3 1 1 1 -5 -7 -9 -7 -7 -6 -9 -9 -7 -4 -1
-12 -11 -11 -12 -13 -12 -11 -13 -13 -8 -1 2 0 1 4 8 10 11 12 10 8 8 7 8 5 0 -2 -4 -4 -2 -2 -2 1 2 4 2 -0 -2 -5 -7 -8 -8 -7 -7 -6 -10 -8 -6 -4
-9 -9 -10 -10 -11 -12 -9 -9 -11 -8 -4 -1 -4 1 5 9 10 11 10 9 5 7 8 9 5 1 -2 -2 -0 -2 -3 -0 2 4 1 1 -1 -2 -5 -7 -6 -6 -9 -10 -7 -10 -9 -4 -5
-8 -9 -9 -9 -9 -9 -9 -9 -9 -10 -10 -9 -6 -3 1 6 7 10 10 7 7 7 9 9 3 -1 -3 -3 -3 -3 -3 2 5 7 5 3 0 -2 -4 -5 -6 -6 -6 -8 -8 -9 -9 -7 -7
-7 -8 -8 -8 -9 -9 -9 -8 -9 -9 -9 -9 -6 2 2 2 2 5 7 6 8 8 8 8 0 -3 -3 -3 -4 -3 -1 2 4 5 5 5 4 3 2 -4 -7 -6 -6 -7 -5 -5 -6 -8 -10
-6 -6 -6 -6 -7 -7 -7 -7 -8 -9 -9 -9 -7 -1 2 1 -1 2 4 4 6 5 7 4 -1 -3 -3 -3 -4 -3 -2 -1 0 1 3 5 3 -0 -4 -6 -6 -7 -6 -6 -5 -4 -6 -9 -10
-5 -5 -7 -7 -6 -6 -7 -8 -9 -9 -11 -9 -8 -0 1 1 1 1 1 2 2 2 6 1 -2 -2 -3 -4 -5 -5 -5 -5 -4 -2 -1 -1 -1 -2 -4 -5 -6 -6 -7 -6 -4 -5 -6 -8 -9
-6 -6 -5 -7 -6 -8 -10 -6 -9 -11 -7 -6 -9 -4 2 1 3 5 1 -1 -1 2 3 -0 -2 -3 -4 -5 -5 -5 -5 -5 -5 -5 -5 -5 -5 -4 -4 -5 -6 -5 -5 -8 -8 -6 -6 -7 -6
-5 -5 -5 -6 -5 -3 -7 -6 -9 -9 -6 -5 -6 -8 1 4 4 -2 -3 -3 0 2 1 -2 -3 -4 -6 -4 -4 -4 -4 -4 -4 -3 -3 -4 -5 -5 -4 -5 -6 -4 -5 -5 -7 -7 -6 -5 -5
-4 -5 -4 -4 -5 -2 -2 -4 -4 -5 -5 -5 -8 -8 -4 -3 -4 -5 -5 -5 -4 -1 -2 -2 -4 -5 -4 -3 -3 -4 -3 -3 -2 -2 -2 -2 -3 -4 -5 -5 -5 -4 -4 -5 -6 -6 -5 -5 -6
-5 -4 -2 -3 -4 -1 -1 -1 -5 -7 -7 -7 -8 -7 -6 -5 -5 -6 -6 -5 -5 -3 -3 -4 -5 -3 -3 -3 -2 -2 -2 -2 -1 -1 -2 -2 -2 -2 -3 -4 -5 -5 -4 -6 -5 -5 -5 -5 -5
-5 -3 -4 -3 -3 -1 -1 -1 -7 -6 -5 -5 -4 -4 -4 -5 -5 -6 -5 -5 -4 -4 -4 -4 -4 -4 -3 -3 -3 -3 -2 -2 -1 -1 -1 -1 -1 -2 -2 -3 -3 -4 -5 -5 -5 -4 -5 -4 -4
-3 -4 -3 -1 -1 -2 -1 -3 -3 -6 -5 -5 -4 -4 -5 -5 -5 -5 -5 -4 -4 -4 -4 -4 -4 -4 -3 -3 -3 -2 -1 -1 -1 -1 -1 -2 -3 -3 -2 -1 -2 -4 -5 -5 -5 -4 -4 -4 -4
-0 -5 -2 -1 1 2 -2 1 -1 -3 -5 -4 -5 -5 -5 -4 -4 -4 -4 -4 -4 -4 -4 -4 -3 -3 -3 -2 -1 -1 -1 -1 -1 -2 -3 -4 -4 -3 -3 -3 -2 -1 -3 -4 -5 -3 -3 -3 -3
-1 -1 0 0 2 1 1 0 -2 -3 -4 -4 -4 -5 -4 -4 -4 -4 -4 -4 -4 -4 -3 -3 -2 -1 -0 -0 -0 -1 -2 -2 -2 -3 -4 -4 -4 -4 -4 -4 -4 -4 -3 -4 -2 -1 -2 -1 -1
-1 1 -0 1 2 4 2 1 -0 -1 -2 -3 -3 -4 -4 -4 -3 -3 -3 -2 -2 -1 -0 -0 -1 -1 -1 -1 -1 -3 -4 -4 -5 -7 -8 -8 -8 -6 -6 -6 -6 -6 -3 -2 -0 -2 -1 -2 -4
1 1 2 2 3 4 2 2 -1 -2 -3 -3 -3 -4 -3 -3 -3 -2 -2 -1 -0 -0 -1 -1 -1 -1 -2 -3 -4 -5 -6 -7 -8 -10 -11 -10 -6 -5 -6 -6 -6 -3 -2 -1 -1 -2 -4 -5 -5
1 2 3 3 5 5 2 3 1 -3 -3 -3 -3 -2 -1 -0 -0 -0 0 0 -0 -0 -0 -1 -1 -2 -3 -4 -5 -6 -6 -7 -7 -9 -10 -10 -4 -5 -5 -5 -3 -2 -2 -3 -3 -3 -2 -2 -1
2 4 2 4 1 3 4 2 -0 -1 0 -1 -0 -0 -1 -1 -1 -1 -1 -1 -0 -0 -0 -1 -3 -4 -4 -6 -6 -5 -7 -7 -8 -7 -9 -6 -4 -5 -4 -3 -3 -3 -4 -3 -2 -1 -1 -1 -2
1 0 3 4 4 6 5 4 3 2 1 0 -0 -1 -0 -0 -0 0 0 0 1 1 -2 -2 -2 -3 -4 -5 -6 -5 -4 -6 -7 -7 -7 -4 -4 -4 -4 -4 -4 -4 -4 -2 -1 -2 -8 -10 -9
3 3 3 3 4 5 5 5 1 1 0 1 -0 1 1 1 0 0 0 1 1 0 -1 -1 -3 -6 -7 -6 -3 -1 -3 -6 -8 -7 -5 -4 -4 -5 -5 -4 -3 -3 -5 -10 -10 -9 -8 -9 -10
2 2 2 3 3 3 3 4 -1 -0 0 -0 1 2 2 1 0 0 1 2 2 -0 1 0 -3 -3 -2 -1 -1 -3 -5 -7 -4 -5 -5 -5 -6 -6 -6 -4 -4 -8 -9 -11 -13 -12 -11 -11 -12

GFSSGP_850_dewp_009.txt.gz
Dewpoint
-21 -18 -13 -8 -9 -8 -7 -7 -11 4 9 10 9 7 10 12 9 9 12 12 4 3 5 9 10 11 11 12 13 12 10 11 12 11 10 10 9 10 11 12 11 9 7 7 6 8 9 9 7
-19 -16 -12 -11 -7 -5 -1 -5 -3 8 11 10 11 11 12 11 13 11 12 8 4 1 2 2 3 3 4 4 3 7 9 9 8 8 9 10 10 9 9 9 7 7 6 8 9 9 8 6 8
-14 -13 -13 -8 -6 -5 1 -2 9 10 8 9 11 11 12 13 11 11 10 7 3 -0 -1 -1 -1 -1 -4 -6 -2 0 2 5 6 3 5 5 6 9 11 11 11 9 6 5 6 7 6 7 7
-13 -15 -13 -3 -3 -7 -2 2 9 8 8 10 11 11 12 12 10 10 9 7 3 0 -2 -4 -4 -4 -3 -1 -1 -1 0 1 2 4 4 3 5 6 6 3 -0 -3 -2 2 5 8 8 7 8
-15 -15 -7 -3 -2 -3 -3 -0 5 5 7 8 9 11 12 13 9 7 6 3 -0 -1 -4 -4 -3 -4 -4 -4 -3 -2 -2 -0 0 -0 -0 1 2 3 3 2 2 3 4 4 4 5 5 6 6
-15 -14 -6 -3 -5 -12 -6 -3 3 5 7 9 10 10 12 8 8 5 3 2 0 -3 -2 -1 -1 -4 -4 -3 -2 -1 0 1 1 1 0 0 1 2 0 -0 -2 -5 -7 -5 1 3 3 3 4
-13 -11 -11 -12 -12 -13 -13 -14 -7 -2 1 4 6 9 11 8 8 6 3 3 3 3 3 2 0 -2 -2 -1 -1 2 4 3 2 2 1 1 0 0 0 -1 -3 -9 -9 -5 -2 1 3 3 4
-16 -14 -13 -13 -13 -13 -15 -12 -12 -7 -0 5 6 7 11 9 10 10 7 7 7 7 5 5 4 -1 -2 -2 -1 -1 -3 2 3 3 2 1 -0 0 0 -3 -6 -9 -7 -7 -7 -8 -7 -5 -2
-14 -11 -11 -13 -13 -12 -13 -12 -11 -3 -1 -1 1 3 3 8 10 11 10 9 9 8 8 8 5 0 -2 -3 -3 -5 -6 -4 -2 -0 2 1 -0 -1 -1 -6 -8 -9 -8 -7 -7 -7 -10 -8 -6
-12 -10 -10 -13 -13 -11 -11 -12 -12 -7 -1 3 2 1 3 7 10 10 10 8 6 7 6 8 6 1 -2 -3 -4 -6 -6 -4 -1 1 -0 2 2 -0 -1 -4 -7 -7 -6 -7 -9 -7 -7 -10 -6
-9 -8 -10 -10 -12 -11 -9 -9 -11 -6 -4 -4 -4 0 3 7 10 10 9 7 6 8 8 8 8 1 -3 -3 -3 -4 -5 -3 -1 1 2 2 -0 -2 -2 -4 -5 -4 -4 -4 -7 -7 -7 -8 -5
-7 -9 -9 -9 -10 -10 -9 -9 -9 -8 -10 -9 -7 -2 0 7 8 9 10 7 6 7 8 9 8 0 -3 -3 -4 -2 -1 1 2 2 2 3 4 3 2 1 1 -4 -6 -5 -5 -6 -5 -5 -7
-7 -8 -8 -8 -10 -10 -9 -9 -9 -9 -10 -10 -5 -1 1 3 3 6 7 7 7 7 8 9 8 0 -2 -3 -4 -3 -1 -1 -1 -1 0 2 2 2 0 -2 -4 -6 -6 -7 -6 -6 -6 -6 -7
-5 -6 -6 -6 -7 -7 -7 -7 -8 -9 -9 -9 -8 -2 1 1 2 3 7 7 5 6 7 8 7 -1 -3 -4 -5 -4 -4 -4 -5 -5 -4 -3 -2 -2 -2 -3 -4 -5 -7 -7 -6 -6 -5 -6 -7
-6 -6 -7 -6 -6 -7 -8 -7 -8 -9 -9 -10 -8 -3 1 2 3 2 6 5 5 6 7 6 5 -1 -3 -6 -5 -5 -5 -5 -4 -4 -4 -4 -5 -5 -5 -5 -5 -6 -6 -5 -5 -6 -7 -7 -8
-6 -6 -4 -6 -5 -6 -8 -4 -7 -10 -9 -7 -6 -7 2 4 3 2 3 5 3 3 4 7 3 -2 -4 -5 -5 -5 -5 -5 -4 -4 -4 -3 -3 -3 -4 -4 -5 -5 -6 -5 -5 -6 -7 -7 -7
-4 -6 -4 -5 -4 -3 -3 -2 -5 -5 -5 -4 -5 -7 -4 3 4 5 5 2 -2 -0 3 6 1 -3 -6 -4 -4 -4 -4 -3 -2 -2 -2 -2 -2 -2 -3 -3 -3 -4 -5 -5 -4 -5 -6 -6 -7
-3 -5 -4 -3 -4 -2 -1 -2 -3 -6 -6 -5 -7 -8 -7 2 4 3 -4 -5 -5 -0 5 3 -1 -5 -4 -4 -3 -3 -2 -2 -2 -2 -2 -2 -2 -2 -2 -1 -2 -3 -4 -5 -5 -5 -5 -5 -6
-4 -4 -2 -3 -3 -1 -0 -1 -6 -5 -5 -6 -6 -7 -5 -4 -5 -5 -5 -5 -5 -4 -1 -2 -4 -4 -3 -3 -3 -3 -3 -3 -2 -1 -1 -1 -1 -1 -1 -2 -2 -2 -2 -3 -4 -3 -4 -5 -5
-4 -3 -4 -3 -3 -1 -1 -3 -5 -5 -4 -3 -3 -4 -4 -5 -5 -5 -5 -5 -4 -4 -3 -4 -4 -4 -4 -4 -4 -4 -3 -3 -2 -1 -1 -2 -2 -2 -3 -3 -3 -3 -2 -1 -3 -2 -1 -3 -4
-1 -3 -2 -1 -2 -1 -2 -2 -3 -6 -5 -4 -4 -4 -5 -5 -5 -5 -4 -4 -4 -4 -4 -4 -4 -4 -4 -3 -2 -1 -1 -1 -1 -1 -2 -3 -4 -4 -4 -4 -4 -4 -4 -3 -1 -2 -3 -1 -2
0 -3 0 0 1 2 -1 0 -1 -3 -4 -4 -4 -4 -4 -4 -4 -4 -4 -4 -4 -4 -4 -3 -2 -2 -1 -0 -1 -1 -2 -2 -3 -4 -5 -7 -8 -8 -9 -9 -7 -6 -5 -5 -4 -2 -2 -0 0
1 0 1 1 2 2 2 0 -1 -3 -3 -4 -4 -5 -4 -4 -4 -4 -4 -4 -3 -2 -2 -1 -0 -1 -1 -1 -2 -3 -4 -5 -6 -7 -9 -11 -13 -14 -14 -13 -10 -9 -7 -7 -6 -4 -3 -1 1
-0 1 -0 1 2 4 2 1 1 -0 -2 -3 -3 -3 -3 -3 -3 -2 -2 -0 -0 -0 -0 -1 -1 -1 -1 -2 -3 -4 -5 -6 -8 -9 -11 -13 -13 -13 -13 -11 -8 -7 -6 -5 -3 -1 -0 0 0
1 0 3 5 6 5 2 2 0 -1 -3 -3 -2 -2 -2 -1 -1 -2 -1 0 -0 -1 -1 -1 -1 -1 -2 -2 -3 -5 -7 -8 -8 -10 -11 -12 -14 -12 -10 -5 -5 -5 -5 -3 -2 -2 -2 -2 -2
3 2 5 4 6 5 2 3 2 -0 -1 -1 -0 -0 -0 -0 -0 -0 -0 -0 -0 -0 -0 -0 -0 -1 -3 -4 -5 -7 -8 -7 -9 -10 -11 -13 -13 -10 -5 -4 -4 -3 -2 -3 -3 -3 -2 -2 -1
2 5 2 4 2 6 3 2 0 -1 -0 0 -0 -0 -0 -0 -0 0 -0 -0 -0 0 0 1 -0 -2 -5 -8 -9 -7 -4 -3 -6 -10 -11 -11 -9 -4 -3 -3 -3 -3 -3 -2 -2 -1 -1 -2 -3
1 1 4 5 7 6 3 4 1 1 1 0 0 1 1 0 -0 -1 -1 -1 1 1 1 -0 -0 -1 -3 -3 -2 -1 -2 -5 -8 -10 -9 -6 -5 -3 -3 -2 -5 -5 -5 -4 -4 -5 -9 -10 -10
3 3 3 3 5 7 8 4 1 1 1 0 0 1 1 1 -0 -0 -0 -0 1 2 1 -1 0 1 -1 -1 -0 -1 -4 -7 -8 -8 -5 -5 -4 -3 -6 -6 -6 -3 -2 -3 -6 -9 -11 -11 -11
2 2 1 4 3 5 5 4 -1 0 0 0 1 1 2 1 1 1 1 1 2 2 0 -2 0 -1 -1 -0 -2 -4 -5 -6 -6 -5 -6 -4 -5 -8 -6 -5 -4 -3 -4 -5 -8 -8 -9 -10 -11

GFSSGP_850_dewp_012.txt.gz
Dewpoint
-21 -18 -12 -7 -8 -6 -1 -1 1 7 6 8 7 5 7 9 8 9 11 10 8 11 12 10 9 10 10 12 13 12 12 12 12 11 10 10 10 11 12 12 12 11 8 7 7 6 8 8 8
-19 -15 -10 -10 -8 -5 -2 -2 1 5 7 8 8 8 6 7 10 11 10 6 6 5 9 8 7 8 8 10 12 11 11 12 12 11 11 10 10 10 11 11 10 8 7 8 9 8 6 7 6
-17 -13 -11 -10 -8 -3 -1 -0 6 7 7 8 7 9 8 8 9 10 9 3 1 2 5 3 2 1 1 2 3 5 7 7 7 5 7 8 9 10 10 10 11 10 8 5 3 5 7 6 8
-11 -12 -8 -8 -6 -2 -1 2 3 6 8 8 4 5 9 11 11 10 9 2 6 6 3 -2 -3 -4 -4 -3 -3 -2 0 1 2 3 4 4 4 3 4 3 0 -1 -1 0 1 3 7 10 9
-14 -11 -6 -5 -3 -1 1 3 4 3 4 6 6 7 8 12 12 10 10 7 6 5 -2 -5 -5 -4 -4 -4 -3 -2 -0 1 1 1 1 1 2 2 2 2 -0 -2 -2 -1 0 3 4 4 3
-13 -8 -6 -4 -2 -1 -0 1 1 -0 2 5 5 5 8 11 10 10 7 7 6 -0 -4 -3 -3 -3 -3 -3 -2 -0 1 1 1 1 1 0 0 1 1 1 -1 -6 -10 -7 -4 1 4 4 4
-12 -10 -8 -6 -4 -4 -5 -4 -2 -3 -1 0 3 3 9 10 9 9 8 6 -1 3 4 2 -1 -2 -2 -2 -1 1 2 2 2 2 1 1 0 0 1 1 -1 -5 -7 -5 -4 -5 -4 -4 -4
-14 -14 -11 -11 -11 -12 -13 -12 -10 -8 -1 5 4 -0 5 8 10 9 8 8 8 8 8 5 1 -1 -2 -1 -2 -1 -4 0 2 3 3 2 0 0 0 1 -5 -6 -8 -7 -6 -5 -6 -7 -5
-14 -15 -14 -14 -14 -13 -13 -14 -11 -3 -3 -1 1 2 4 9 11 11 10 9 10 9 7 6 7 -0 -2 -3 -2 -5 -6 -3 -2 -2 -1 1 6 1 1 -1 -4 -6 -8 -7 -6 -7 -7 -6 -9
-14 -14 -13 -14 -14 -14 -13 -14 -12 -8 -6 -3 0 5 7 11 11 11 11 9 10 10 9 7 6 1 -3 -3 -2 -2 -3 7 5 5 0 2 -1 -1 -1 -2 -2 -6 -5 -6 -6 -6 -7 -5 3
-12 -12 -12 -13 -12 -14 -14 -13 -12 -13 -10 -9 -9 1 7 10 11 10 9 6 7 8 10 10 8 2 -2 5 6 8 8 7 7 -1 1 4 1 6 6 8 7 6 3 2 2 -3 4 -1 -4
-11 -11 -12 -12 -11 -12 -13 -11 -11 -11 -13 -8 -6 -1 5 8 7 7 7 6 6 7 10 12 10 4 -2 5 7 8 8 8 8 9 -0 5 9 9 7 7 7 6 6 5 5 5 -3 -6 -5
-10 -9 -9 -10 -10 -11 -9 -10 -8 -9 -11 -9 -2 2 3 4 5 6 6 6 7 9 11 12 12 7 -1 -3 2 -1 -2 7 6 8 7 -3 7 8 7 5 4 5 5 5 5 5 5 2 -3
-6 -7 -6 -7 -7 -6 -7 -7 -7 -9 -8 -8 -3 0 2 3 3 4 6 7 8 10 10 12 10 7 -2 -3 -5 -5 -4 2 2 6 5 -4 -3 3 4 5 4 4 4 4 4 4 1 2 -0
-5 -5 -6 -6 -6 -7 -8 -7 -9 -9 -9 -9 -6 -3 1 2 3 3 4 7 8 8 9 11 8 7 -2 -4 -5 -5 -3 -5 1 3 -3 -3 -3 -0 -2 4 4 3 4 2 4 4 2 1 1
-7 -7 -6 -5 -6 -4 -6 -6 -7 -5 -6 -8 -5 -5 0 2 4 6 8 8 6 6 7 10 7 7 -2 -5 -5 -2 1 -4 -3 -2 -2 -2 -2 -2 -2 3 4 3 1 4 4 4 3 3 1
-8 -9 -7 -5 -5 -4 -5 -5 -5 -6 -6 -5 -7 -5 -3 0 5 6 4 4 4 2 1 8 8 4 -2 -5 -2 -4 -4 -2 2 -2 -1 -1 -1 -1 -1 -1 0 1 1 1 3 3 3 3 1
-7 -8 -7 -6 -6 -5 -5 -4 -6 -6 -6 -4 -4 -5 -5 -0 3 3 4 1 -3 -2 3 8 7 3 -3 -5 -4 -3 -3 -2 -2 -2 -2 -1 -1 -1 -1 -1 -1 0 4 4 3 3 3 2 1
-6 -6 -5 -6 -4 -2 -2 -4 -6 -5 -5 -5 -5 -5 -3 -0 -1 -3 -5 -5 -5 -1 6 6 5 -1 -3 -2 -2 -1 -0 -1 0 1 -0 -1 -1 -2 -3 -3 -0 -1 3 3 1 4 4 4 3
-4 -4 -4 -4 -3 -1 -2 -4 -5 -5 -4 -4 -4 -4 -3 -3 -3 -1 -2 -4 -2 -2 -1 -0 -0 -3 -4 -4 -4 -3 -3 0 -1 0 -0 -1 -2 -5 -6 -6 -4 -1 1 2 3 3 4 4 4
-2 -3 -0 -1 -2 -2 -1 -2 -4 -5 -4 -4 -4 -4 -4 -3 -3 -2 -1 -2 -3 -3 -2 -3 -3 -4 -3 -2 0 0 0 -0 -0 -2 -2 -4 -6 -9 -11 -10 -9 -11 -5 -1 0 2 2 2 3
-1 -2 0 -0 -0 -2 -1 -1 -2 -4 -4 -4 -4 -3 -3 -3 -2 -1 -0 -1 -3 -3 -3 -2 -1 -0 -1 -1 -1 -2 -1 -1 -1 -1 -1 -4 -5 -9 -13 -12 -17 -15 -9 -3 -1 -0 2 2 2
1 1 1 1 1 0 0 -1 -0 -3 -3 -4 -4 -3 -2 -1 -0 1 1 1 1 0 -1 -1 1 -0 -1 -1 -2 -1 0 0 -0 -0 -1 -3 -5 -6 -7 -7 -17 -14 -9 -5 -7 -5 0 2 2
-0 1 1 1 2 4 2 1 1 -0 -1 -3 -3 -2 -0 0 -1 1 1 1 2 2 -0 -1 0 1 -0 -1 -2 -3 -3 -0 -0 -2 -3 -4 -5 -5 -5 -5 -12 -8 -4 -2 -1 -0 0 1 1
-0 1 3 6 6 5 1 1 2 -1 -2 -1 -1 0 1 2 1 1 1 1 2 2 1 -0 0 1 1 1 -0 -2 -2 -2 -1 -2 -3 -3 -5 -5 -4 -6 -0 0 -1 -1 -0 -1 -1 -1 -1
2 2 5 5 5 3 1 1 2 -1 -1 -0 -0 0 0 1 1 1 1 1 2 2 2 3 2 1 0 0 -1 -6 -9 -2 -2 -2 -3 -5 -4 -4 -4 -0 0 0 0 0 -0 0 -1 -1 -1
2 4 2 5 5 7 1 1 0 -1 -1 -1 -0 0 1 1 1 1 1 1 2 2 3 3 3 2 2 1 -2 -5 -3 -1 -3 -8 -10 -8 -8 -4 -1 0 0 -1 -1 -1 -2 -2 -2 -3 -4
1 1 3 3 8 2 -3 -2 -2 1 0 -1 -1 -0 0 1 1 1 1 1 1 2 3 3 2 2 2 2 -0 -1 -1 -4 -6 -5 -3 -3 -2 -0 -0 -1 -2 -2 -2 -3 -2 -3 -3 -3 -3
2 3 2 2 4 4 3 -2 0 -0 -0 -1 -0 -0 1 1 1 1 1 1 2 2 2 1 2 2 0 -0 -0 -1 -2 -4 -3 -3 -3 -2 -2 -3 -3 -3 -2 -3 -3 -3 -4 -4 -3 -4 -5
1 2 1 3 2 4 5 1 -2 -1 -1 0 -0 1 1 2 1 1 2 2 2 1 0 -0 0 -1 -1 -1 -1 -2 -2 -3 -3 -2 -2 -2 -2 -2 -2 -3 -3 -4 -3 -4 -4 -4 -5 -6 -7

GFSSGP_850_dewp_015.txt.gz
Dewpoint
-25 -21 -7 -6 -7 -7 -1 0 0 2 3 4 3 3 3 6 8 11 8 7 10 13 13 11 10 10 11 13 13 13 12 12 12 11 11 11 11 10 11 11 11 11 10 8 7 7 7 8 7
-7 -10 -8 -9 -7 -5 -2 -4 0 2 2 1 1 1 1 5 8 9 6 7 10 12 12 11 9 10 11 11 11 10 11 11 11 11 10 10 10 10 10 10 9 9 10 10 8 5 3 4 6
-14 -9 -10 -10 -8 -6 -2 -4 2 2 2 3 2 3 4 5 6 6 6 7 8 10 12 5 2 1 1 3 4 7 8 7 7 6 7 7 7 5 7 8 9 6 2 -1 -1 -0 2 5 7
-10 -12 -10 -8 -4 -4 -3 1 1 1 3 2 -1 3 8 7 7 7 6 5 6 7 5 -4 -4 -3 -3 -2 -1 0 1 2 2 3 2 2 2 2 2 2 2 1 1 1 1 2 3 4 4
-11 -12 -9 -7 -4 -3 -1 -1 -0 1 1 1 -1 -0 7 10 8 7 5 4 4 4 5 -5 -5 -5 -4 -3 -2 -1 -0 1 2 2 2 2 2 2 2 1 -0 -2 -7 -8 -5 -2 2 3 3
-12 -10 -7 -4 -3 -2 -1 -1 -2 -3 -2 -2 -1 2 7 9 7 7 5 3 3 6 6 -5 -4 -4 -4 -3 -2 -0 1 2 2 3 2 2 1 1 1 1 0 -3 -9 -8 -7 -7 -6 -6 -4
-11 -8 -7 -5 -4 -4 -4 -5 -6 -6 -5 -4 -3 1 6 6 7 6 4 3 4 5 7 7 4 -2 -3 -3 -4 -3 -1 0 2 3 2 2 1 0 1 1 -2 -6 -8 -8 -7 -7 -7 -7 -9
-13 -11 -8 -8 -7 -9 -12 -11 -9 -8 -3 -3 -2 -1 5 6 6 5 4 4 5 6 8 8 8 8 9 8 -4 -6 -9 -1 2 2 2 1 2 5 2 2 0 -4 -7 -7 -5 -5 -6 -8 -7
-15 -13 -12 -13 -13 -13 -15 -14 -14 -9 -6 -5 -4 -1 3 7 7 6 5 5 7 7 9 9 8 8 8 7 2 -2 -4 -3 1 3 3 5 9 9 8 7 1 -1 -5 -4 -4 -5 -5 -6 -3
-14 -14 -14 -16 -15 -15 -16 -16 -14 -10 -9 -7 -2 -1 5 7 7 6 5 6 7 8 8 8 10 9 8 6 8 9 8 9 9 10 10 9 10 9 7 8 6 5 5 2 5 3 1 4 4
-15 -13 -14 -16 -16 -17 -17 -17 -15 -14 -10 -8 -6 -3 4 6 6 6 6 5 5 7 7 8 12 10 8 8 6 6 7 8 8 10 10 9 10 9 9 8 8 8 7 7 7 6 6 6 6
-14 -15 -16 -17 -15 -16 -16 -14 -14 -14 -13 -12 -9 -2 3 5 6 6 5 3 4 5 6 8 11 9 -1 6 6 6 7 7 7 9 9 9 8 8 8 7 6 5 5 5 6 6 6 7 6
-14 -14 -16 -15 -14 -14 -13 -12 -10 -13 -13 -10 -6 -1 2 4 4 4 4 4 4 5 6 7 10 13 10 7 7 7 7 8 8 8 8 8 7 7 7 6 5 4 4 4 4 4 5 5 4
-10 -9 -9 -10 -9 -10 -9 -10 -9 -10 -12 -12 -6 -3 -1 1 2 3 4 4 4 5 6 7 9 12 10 6 7 7 8 7 7 6 5 -3 4 7 7 6 5 4 3 3 4 4 5 4 3
-8 -7 -7 -7 -7 -8 -8 -8 -9 -9 -9 -11 -10 -6 -2 -1 -0 1 3 4 4 5 6 8 10 11 10 6 6 5 4 2 4 4 5 4 2 5 5 5 5 5 4 4 4 4 4 4 4
-8 -7 -5 -7 -7 -6 -7 -5 -9 -8 -8 -9 -8 -8 -5 -2 -1 0 2 3 4 4 4 6 10 11 9 5 5 4 4 4 4 4 5 5 6 3 1 5 5 4 5 5 4 4 4 4 3
-8 -6 -7 -5 -7 -6 -7 -6 -7 -6 -7 -7 -8 -7 -7 -4 -1 2 4 4 3 2 3 5 10 10 8 5 4 5 5 4 3 3 2 2 4 3 1 0 3 3 4 4 5 4 3 3 3
-8 -10 -10 -9 -6 -9 -8 -7 -7 -7 -6 -6 -7 -7 -7 -5 -1 3 2 1 0 2 5 6 9 8 7 5 4 2 2 2 2 1 2 3 3 4 3 3 3 3 3 3 3 4 4 4 4
-9 -9 -8 -8 -6 -6 -6 -6 -7 -5 -6 -4 -4 -5 -5 -4 2 1 2 1 3 5 6 7 7 7 3 1 1 0 1 1 1 2 2 3 2 1 1 1 1 1 1 1 1 2 3 3 3
-6 -6 -6 -5 -5 -5 -5 -6 -6 -5 -4 -4 -4 -3 -2 -1 -1 0 2 3 3 3 3 3 2 2 1 0 1 1 1 2 2 2 2 1 1 -0 -1 -1 -0 -1 -1 -3 -4 -2 1 2 2
-4 -4 -1 -2 -4 -5 -4 -4 -5 -5 -5 -4 -4 -4 -3 -3 -2 -1 1 2 3 3 2 2 2 2 1 -2 1 1 1 0 0 0 1 1 1 1 -0 -1 -1 -1 -1 -1 -1 -1 -0 1 1
-2 -2 -1 -2 -2 -2 -4 -1 -3 -4 -4 -4 -3 -3 -3 -3 -2 -0 1 2 4 4 3 2 2 2 2 -1 1 1 2 1 1 1 1 1 -0 -2 -2 -3 -2 -1 0 -0 0 -0 0 1 1
-1 -1 -1 -1 -1 -2 -3 -4 -1 -5 -3 -3 -3 -2 -1 -1 0 1 1 2 3 3 4 3 2 2 3 3 1 2 2 2 2 1 0 -0 -2 -2 -3 -3 -2 -1 -1 1 2 2 2 2 2
-1 0 -0 0 0 2 0 -1 0 -1 -2 -3 -3 -1 -0 -0 0 1 1 1 2 3 4 3 3 2 2 3 3 2 2 1 1 0 -0 -2 -1 -2 -3 -3 -2 -0 1 1 1 1 1 -1 -1
-1 0 4 5 5 5 -0 -2 2 -1 -2 -2 -2 -0 1 1 1 1 1 1 2 3 3 3 2 2 1 1 2 2 1 1 0 -0 -1 -1 -3 -4 -4 -2 -0 0 0 0 0 0 0 -1 -1
0 1 6 5 4 2 -1 -2 1 -1 -1 -1 -1 -0 0 1 1 1 1 2 2 2 2 3 3 2 2 2 2 2 2 1 0 -1 -1 -2 -3 -3 -2 -1 0 -1 -1 0 -0 -0 -1 -1 -2
1 2 0 5 5 6 -2 -1 -0 -1 -1 -1 -1 -1 -0 -0 -0 0 1 1 2 2 2 3 3 2 1 2 2 2 1 0 -0 -2 -2 -3 -2 -2 -1 -1 -1 -0 -1 -2 -2 -2 -3 -3 -3
1 -1 4 2 7 2 -4 -6 -0 1 -0 -1 -2 -1 -1 -0 -0 0 1 1 1 2 2 2 1 1 1 1 0 0 0 -0 -2 -2 -2 -3 -3 -2 -3 -2 -2 -1 -2 -2 -2 -3 -4 -3 -3
1 2 1 -1 2 4 1 -2 -3 -2 -2 -1 -2 -2 -1 -0 1 0 0 1 1 2 1 1 0 0 -0 -1 -1 -1 -2 -2 -3 -3 -3 -3 -2 -3 -2 -2 -2 -2 -3 -3 -4 -3 -3 -3 -3
-0 0 -0 2 1 1 4 2 -3 -3 -3 -3 -2 -2 0 0 0 0 1 2 1 1 1 -0 -1 -2 -2 -2 -3 -4 -4 -3 -3 -2 -3 -2 -3 -2 -2 -3 -4 -3 -4 -4 -4 -4 -4 -4 -4

GFSSGP_850_dewp_018.txt.gz
Dewpoint
-28 -23 -12 -6 -4 -5 -5 -1 1 3 3 1 2 1 4 8 10 11 7 11 13 12 11 11 11 10 12 12 13 12 11 12 12 11 11 11 10 10 10 10 10 10 9 9 9 8 6 1 -2
-22 -8 -9 -7 -4 -3 -2 -1 1 1 0 -2 1 -0 4 7 8 6 8 11 12 14 12 9 9 10 11 10 9 10 10 10 10 9 8 8 8 8 8 8 8 9 7 1 -1 -2 -1 -1 1
-14 -7 -8 -5 -5 -5 -1 -1 2 0 -1 0 1 5 4 5 6 6 8 10 11 12 8 5 2 0 -0 -1 0 3 5 6 5 4 5 3 2 3 2 3 2 1 1 -0 -1 -3 -2 0 1
-10 -10 -11 -7 -5 -4 -4 1 0 -0 1 0 1 5 6 6 6 6 6 8 9 5 -4 -6 -7 -6 -5 -4 -2 -1 0 1 2 1 1 1 2 2 2 2 0 -1 -4 -9 -9 -8 -4 -1 2
-6 -8 -7 -6 -3 -2 -1 -1 -2 -0 0 -1 -1 6 8 7 5 4 4 5 5 -4 -8 -6 -5 -5 -5 -4 -4 -3 -1 0 1 1 1 1 1 1 0 0 0 -2 -8 -10 -9 -8 -9 -10 -9
-9 -11 -6 -5 -2 -1 -1 -2 -2 1 -1 -3 0 5 8 7 5 3 3 3 4 2 -5 -4 -4 -4 -4 -4 -3 -2 -0 0 1 2 2 1 1 -0 -1 -0 -0 -4 -7 -9 -8 -7 -8 -8 -9
-7 -7 -6 -4 -2 -2 -2 -4 -6 -6 -4 -4 -1 5 7 6 6 3 3 3 5 5 0 -2 -2 -1 1 -3 -8 -6 -8 -2 1 2 2 1 1 4 0 -1 0 -4 -6 -7 -6 -6 -6 -7 -8
-10 -10 -8 -6 -5 -4 -9 -7 -8 -7 -3 -4 -2 3 5 6 5 3 3 3 5 6 8 9 8 8 8 8 -3 -10 -9 -5 -3 0 1 8 10 9 9 7 4 -0 -2 -5 -3 -3 -5 -6 -7
-13 -11 -7 -9 -9 -12 -14 -15 -14 -8 -6 -6 -1 1 5 6 5 3 3 5 6 7 8 8 8 8 7 6 6 5 2 9 9 10 7 11 10 9 8 7 8 7 6 4 3 4 3 3 3
-14 -10 -13 -16 -15 -14 -16 -15 -14 -9 -9 -5 -1 5 6 6 5 4 4 5 7 8 8 8 9 7 5 5 7 8 8 9 9 9 9 10 8 9 8 9 8 8 6 6 7 6 6 6 6
-15 -12 -15 -16 -15 -16 -17 -16 -13 -12 -10 -6 -4 4 6 6 5 5 4 5 6 6 7 9 8 8 9 6 6 7 7 8 8 10 10 9 8 9 8 7 7 6 5 5 5 6 6 6 5
-14 -16 -18 -17 -16 -18 -18 -17 -16 -15 -11 -9 -5 -1 5 5 5 5 5 4 5 6 6 9 10 3 -1 7 6 6 7 8 8 8 9 3 6 6 4 6 4 5 4 4 4 4 4 5 5
-15 -17 -17 -17 -16 -14 -14 -13 -12 -14 -12 -11 -5 -1 3 4 5 5 5 3 4 5 6 7 9 7 10 2 6 6 5 8 7 8 7 -3 -2 -0 1 4 5 4 4 3 3 3 4 4 4
-14 -14 -14 -13 -13 -13 -13 -11 -10 -12 -13 -11 -6 -1 1 3 3 3 4 3 4 4 6 7 10 9 8 6 6 5 7 7 6 6 5 -2 -1 -1 -1 -1 -0 2 4 4 3 3 4 4 5
-10 -9 -9 -9 -10 -10 -10 -8 -9 -10 -11 -12 -8 -5 -2 -0 1 2 3 4 3 5 5 7 7 12 10 7 6 5 5 3 4 4 4 4 2 -0 -1 -1 0 2 3 2 1 4 4 4 4
-9 -8 -5 -8 -8 -8 -8 -5 -11 -9 -10 -10 -10 -9 -5 -2 -1 1 3 3 3 4 5 5 9 11 10 6 5 4 4 4 3 4 5 5 4 4 2 1 1 2 2 0 -0 0 3 4 4
-7 -6 -5 -5 -9 -7 -8 -6 -9 -8 -7 -7 -8 -8 -8 -5 -2 -0 2 3 3 3 3 3 8 10 10 7 5 5 4 3 4 4 3 2 3 3 3 1 -0 1 0 -2 -1 2 3 4 4
-5 -9 -11 -9 -7 -10 -9 -8 -7 -7 -7 -7 -8 -8 -7 -7 -3 2 3 2 1 1 2 5 10 10 8 6 5 3 2 2 2 2 2 2 2 3 3 1 -0 1 1 0 1 1 1 0 -1
-10 -10 -10 -7 -6 -7 -9 -8 -8 -7 -6 -6 -6 -6 -6 1 2 2 2 2 2 6 7 8 8 8 5 3 2 1 1 1 1 2 2 2 2 1 1 0 -0 -1 -1 -0 -0 -1 -2 -3 -1
-9 -7 -7 -6 -6 -6 -8 -6 -6 -6 -4 -5 -5 -5 -0 0 1 3 4 3 4 4 4 4 3 2 1 1 1 1 1 1 1 1 2 1 1 1 1 0 -0 -1 -2 -2 -3 -1 1 2 2
-6 -5 -1 -2 -5 -6 -5 -4 -4 -5 -5 -4 -3 -2 -1 -1 -0 1 3 4 4 3 2 3 3 2 1 -1 1 1 0 1 1 1 1 2 2 1 -1 -2 -2 -3 -3 -2 -3 -6 -4 1 2
-3 -2 -1 -3 -2 -2 -5 -2 -3 -4 -4 -4 -3 -2 -2 -2 -1 1 3 4 4 3 3 3 2 2 2 2 1 2 2 2 2 2 1 1 1 -1 -2 -2 -3 -3 -3 -3 -4 2 1 1 1
-1 -2 -2 -2 -1 -2 -4 -1 -1 -4 -2 -2 -2 -1 -1 0 1 1 2 3 4 4 4 4 3 2 3 3 3 3 2 2 2 1 1 0 -1 -1 -2 -4 -4 -4 -4 -1 1 2 2 3 3
-3 -0 -1 -1 0 6 -2 -1 3 -1 -2 -2 -2 -1 -0 -0 1 1 2 2 3 4 4 4 3 2 2 2 2 2 2 2 2 1 0 -0 -1 -4 -5 -4 -4 -2 1 1 0 -0 -1 -1 -1
-1 0 7 10 9 9 1 -3 3 -1 -2 -3 -2 0 1 1 1 1 1 1 2 3 3 3 3 3 2 2 3 3 3 2 1 1 0 -1 -4 -3 -4 -1 0 1 1 -1 -2 -2 -1 -1 -1
-0 0 9 8 9 5 -2 -2 2 -1 -1 -1 -0 0 0 1 1 1 1 1 1 2 2 3 3 3 2 1 2 3 2 1 1 0 -1 -3 -3 -3 -3 -2 -3 -2 -1 -0 -1 -1 -1 -2 -2
1 3 -2 4 6 8 -1 1 0 -1 -1 -1 -1 -1 -0 -0 -0 0 1 1 2 2 2 2 3 2 1 1 0 0 0 -0 -0 -1 -3 -3 -2 -3 -3 -2 -2 -2 -2 -2 -2 -2 -3 -5 -3
-1 -3 4 7 8 4 -2 -3 3 1 0 -1 -2 -2 -1 -1 -0 0 0 1 1 1 2 2 1 0 0 0 -0 -1 -1 -2 -2 -3 -3 -2 -3 -5 -4 -2 -2 -2 -2 -3 -3 -3 -4 -3 -3
0 1 0 -1 3 6 5 -0 -4 -3 -2 -1 -2 -3 -1 -0 0 0 1 1 2 2 1 1 0 -1 -2 -2 -1 -2 -3 -4 -4 -3 -2 -3 -5 -5 -5 -4 -4 -5 -5 -5 -6 -6 -7 -7 -6
-2 -1 -1 8 3 7 6 3 -4 -3 -3 -2 -1 -1 0 0 1 1 2 2 2 1 1 0 -2 -3 -2 -2 -3 -4 -5 -5 -4 -3 -4 -5 -5 -4 -4 -5 -6 -6 -6 -6 -6 -8 -8 -8 -7

GFSSGP_850_dewp_021.txt.gz
Dewpoint
-25 -26 -9 -7 -4 -4 -3 -4 2 3 0 4 6 8 8 8 9 11 13 12 12 11 11 11 11 11 12 12 12 10 10 10 10 10 9 8 7 6 5 5 6 6 6 3 -0 -2 -2 -2 -2
-28 -9 -7 -7 -3 -2 -1 2 2 -1 -0 5 5 6 6 7 9 12 13 13 11 10 10 10 10 11 10 6 5 5 5 6 5 3 2 2 1 0 0 1 1 -0 -1 -2 -4 -7 -9 -6 -4
-23 -7 -8 -5 -4 -3 -0 2 0 -1 1 4 6 6 6 6 7 12 13 13 13 10 8 8 5 0 -1 -2 -2 -1 -0 -0 -0 0 -0 -1 -1 -1 -0 -1 -1 -2 -4 -10 -12 -11 -11 -7 -3
-11 -9 -10 -8 -6 -3 3 1 0 1 2 4 5 7 6 6 9 11 11 11 9 4 -3 -5 -6 -5 -5 -5 -4 -3 -2 -0 -0 -0 -0 -0 -0 -0 -2 -1 -1 -2 -8 -12 -11 -11 -12 -12 -12
-6 -6 -7 -6 -5 1 -1 -0 0 2 2 7 7 7 5 6 7 8 9 8 -5 -7 -7 -6 -5 -5 -5 -5 -5 -4 -3 -1 -1 0 0 -0 -1 -2 -2 -1 -1 -4 -7 -9 -9 -8 -8 -9 -10
-7 -9 -6 -5 -0 -0 -2 -4 2 2 0 7 8 7 4 4 4 5 5 4 -8 -6 -5 -4 -4 -4 -5 -7 -8 -7 -6 -3 -1 0 0 -1 -0 1 2 -1 -1 -4 -5 -7 -7 -7 -7 -8 -8
-6 -6 -5 -7 -3 -1 -4 -6 -5 -1 -3 6 8 7 5 4 3 3 4 3 -4 -3 -2 -1 -2 1 -0 -7 -12 -13 -8 -6 -5 -4 -1 7 8 7 7 4 3 1 0 -1 -3 -2 -1 -3 -6
-8 -8 -8 -8 -2 -5 -7 -11 -4 -5 -5 4 6 7 6 5 3 3 3 4 6 6 7 8 6 7 6 3 -9 -11 -5 0 6 6 9 9 8 7 6 8 7 7 4 5 5 4 3 2 2
-7 -10 -8 -10 -8 -10 -11 -14 -12 -5 -5 1 2 6 6 4 3 3 4 5 7 8 8 8 8 5 7 6 7 5 5 5 6 6 9 9 8 8 8 8 7 7 5 5 5 4 5 5 5
-11 -10 -13 -15 -13 -14 -15 -14 -14 -8 -3 5 6 6 6 4 3 3 5 5 7 8 8 8 7 3 6 6 7 8 8 8 9 8 7 8 9 9 8 8 7 5 5 5 4 3 4 5 5
-14 -12 -16 -15 -15 -16 -16 -14 -12 -9 -7 4 6 6 5 5 4 4 4 6 7 7 8 8 5 7 8 6 7 8 8 7 8 10 9 3 7 8 6 3 2 2 3 3 3 4 3 4 4
-13 -17 -17 -16 -15 -17 -17 -16 -15 -11 -8 -3 6 6 6 5 5 4 4 5 7 7 8 8 7 -3 6 8 7 7 8 8 9 8 5 -3 0 1 -1 -1 -2 0 2 3 3 2 1 1 2
-15 -16 -17 -17 -14 -14 -15 -14 -13 -11 -9 -4 5 6 5 5 5 5 5 5 5 7 7 6 7 -3 -3 0 5 5 7 8 8 5 3 -2 -2 -2 -2 -2 -1 -1 0 1 1 2 0 2 4
-16 -17 -16 -16 -14 -13 -13 -10 -10 -11 -10 -4 3 5 4 4 4 5 5 5 4 5 6 7 9 9 5 3 -1 -3 4 7 5 5 3 2 -0 -1 -1 -1 -1 0 2 3 3 2 0 2 4
-13 -10 -11 -11 -11 -10 -10 -8 -9 -13 -12 -6 -2 3 2 3 4 4 4 4 4 5 7 9 8 7 5 8 2 4 8 5 5 4 3 3 4 3 3 2 1 1 1 0 0 -1 -2 -0 -1
-9 -8 -5 -8 -9 -9 -9 -6 -9 -11 -12 -8 -7 -4 1 2 3 4 3 4 5 5 7 8 8 8 9 8 6 4 4 4 2 4 4 5 5 5 4 3 1 0 0 -0 -1 -1 -0 2 4
-6 -5 -4 -6 -7 -7 -7 -6 -9 -9 -10 -10 -8 -8 -5 -1 1 3 3 3 3 3 4 8 10 9 10 7 6 4 5 4 3 4 2 3 4 4 3 2 1 -0 -1 -1 0 0 1 2 2
-4 -6 -3 -4 -7 -9 -9 -7 -7 -8 -7 -6 -7 -8 -5 1 3 2 2 2 2 2 3 8 9 10 7 6 5 4 4 3 3 2 2 2 2 2 2 1 1 1 -1 -1 -1 -2 -2 -2 -4
-7 -6 -3 -5 -6 -7 -6 -9 -5 -5 -6 -6 -3 1 3 3 3 2 3 2 2 4 2 5 8 8 7 3 3 1 2 1 1 1 1 2 2 1 1 1 1 -1 -2 -2 -2 -3 -5 -5 -6
-7 -4 -1 -4 -5 -7 -6 -5 -4 -4 -4 -2 1 2 3 3 3 3 4 4 5 6 7 7 6 4 1 1 1 1 0 0 2 2 3 2 2 2 1 1 0 -2 -2 -3 -3 -3 -3 -5 -4
-1 0 -1 -1 -3 -4 -4 -4 -3 -4 -3 -1 0 1 1 2 3 2 2 2 2 2 2 1 1 0 0 -0 1 1 0 1 2 2 2 2 1 1 1 0 -2 -2 -5 -5 -4 -5 -5 0 2
2 0 -0 -1 -1 1 -5 -0 -2 -3 -1 -2 -1 -1 0 2 3 3 3 3 2 2 2 2 2 2 2 2 2 2 2 1 1 1 1 1 1 1 0 -1 -2 -8 -9 -9 -5 1 2 2 1
1 -1 -1 -1 0 1 0 0 -1 -2 0 -0 -0 0 1 1 2 2 3 2 3 3 3 2 2 3 3 2 2 2 2 2 2 1 1 1 1 0 -2 -8 -8 -4 -2 1 1 1 -1 -2 -2
-3 1 1 1 2 6 5 3 5 -0 0 0 -0 -0 0 1 1 2 2 3 3 3 3 3 3 3 2 2 2 3 3 3 3 2 2 1 -1 -6 -6 -4 -2 -1 -2 -1 -2 -2 -3 -4 -2
-0 3 7 7 8 7 5 4 6 1 -1 -0 1 2 2 1 1 2 3 3 3 2 3 3 3 3 3 2 1 2 2 2 2 1 -0 -1 -6 -5 -5 -5 -5 -3 -3 -4 -5 -2 -3 -2 -3
2 2 5 8 8 6 3 4 3 0 -0 1 1 1 1 1 1 1 1 1 1 2 2 2 2 2 2 1 1 1 0 0 -0 -1 -2 -4 -4 -3 -3 -5 -5 -2 -3 -2 -1 -2 -3 -4 -5
1 2 -2 5 5 6 3 2 1 0 -0 -0 -0 0 1 1 1 1 1 1 2 1 2 2 2 1 1 1 0 -1 -1 -2 -3 -4 -4 -3 -2 -2 -5 -8 -5 -3 -3 -4 -5 -6 -6 -5 -6
-0 -3 4 4 5 5 2 4 6 3 3 2 -0 -1 -1 0 1 1 1 1 1 2 2 1 1 0 -0 -1 -1 -2 -2 -2 -4 -5 -4 -3 -2 -4 -9 -6 -5 -5 -6 -6 -6 -6 -6 -7 -8
1 2 1 1 4 5 5 2 -3 2 4 2 -0 0 1 1 1 1 2 2 2 1 1 1 -0 -2 -3 -2 -2 -3 -3 -6 -5 -5 -4 -4 -4 -10 -5 -6 -7 -8 -9 -10 -10 -10 -10 -9 -7
-2 1 2 4 4 4 4 3 -2 1 0 0 -0 1 1 1 1 1 2 2 1 1 0 -1 -3 -4 -3 -4 -3 -2 -5 -5 -5 -5 -5 -5 -6 -8 -6 -7 -8 -10 -11 -11 -10 -10 -10 -10 -8

GFSSGP_850_dewp_024.txt.gz
Dewpoint
-20 -27 -11 -7 -5 -4 -3 -4 2 5 7 7 7 7 8 8 9 13 14 13 12 11 11 11 11 11 11 11 9 9 8 7 7 4 2 1 0 -1 -1 -1 -2 -2 -2 -3 -4 -6 -9 -9 -7
-28 -9 -8 -7 -3 -2 1 0 6 6 7 6 7 9 10 12 14 14 14 12 11 11 11 11 11 11 10 5 3 1 1 0 -1 -1 -2 -2 -2 -3 -2 -4 -4 -4 -5 -10 -13 -13 -12 -10 -6
-25 -8 -8 -6 -4 -2 2 1 0 4 6 6 6 6 7 10 13 14 12 11 11 10 10 10 10 3 -3 -4 -4 -3 -2 -2 -1 -2 -2 -2 -2 -3 -6 -6 -4 -4 -9 -13 -14 -13 -14 -13 -13
-11 -9 -10 -8 -6 -6 2 1 4 6 6 6 6 6 8 11 12 13 13 12 9 9 9 3 -5 -6 -5 -5 -4 -3 -2 -2 -2 -2 -2 -2 -2 -6 -7 -4 -3 -5 -8 -10 -11 -10 -9 -9 -10
-8 -6 -7 -7 -4 0 -0 1 3 6 7 6 6 6 7 11 12 12 10 9 6 0 -6 -5 -5 -5 -5 -5 -4 -4 -5 -4 -3 -1 -1 -2 -5 -6 -5 -4 -3 -5 -6 -7 -7 -7 -7 -8 -8
-8 -8 -6 -5 -3 1 -3 1 6 7 6 5 5 5 7 10 10 9 7 -2 -8 -7 -5 -4 -4 -5 -7 -9 -11 -12 -8 -4 -3 -3 -5 -6 -1 1 -0 -1 -0 -1 -0 -2 -2 -1 -1 -2 -5
-7 -6 -6 -7 -7 -2 -4 0 4 7 8 7 5 5 5 9 8 6 -1 -7 -5 -4 -3 -2 -0 -1 -8 -16 -18 -12 -9 -8 -7 -5 0 2 1 1 3 3 4 3 1 2 3 1 0 0 0
-7 -8 -7 -8 -2 -2 -5 -4 1 6 6 6 4 6 4 5 4 4 1 -5 -2 3 6 5 3 2 -2 -8 -12 -9 -5 -2 1 2 6 5 5 4 4 4 4 3 4 2 1 -1 -1 0 2
-7 -7 -7 -9 -7 -7 -11 -7 -3 6 7 5 6 4 3 3 4 3 3 5 7 8 8 7 3 4 6 7 6 6 5 5 3 4 6 4 2 4 3 2 2 2 2 2 1 -0 0 0 1
-8 -9 -11 -12 -11 -13 -15 -10 -7 1 6 6 6 4 3 3 3 3 5 7 8 8 8 8 1 5 6 7 8 8 8 7 7 7 4 0 4 6 5 3 -0 -1 -1 -0 1 1 1 0 -0
-12 -12 -16 -15 -15 -15 -14 -13 -7 3 5 6 6 4 3 3 3 3 5 5 7 8 8 8 4 4 6 6 8 8 8 8 8 8 7 1 2 2 -1 -2 -3 -2 0 1 1 1 2 1 1
-16 -16 -16 -14 -16 -15 -14 -13 -13 -8 2 3 5 5 4 3 3 3 5 6 7 8 8 9 1 -1 5 7 7 7 7 7 8 9 6 -1 0 1 -2 -2 -1 0 1 1 1 2 2 2 -0
-15 -16 -17 -13 -14 -17 -16 -13 -11 -10 1 3 6 5 4 4 4 3 4 6 7 8 9 8 0 6 4 6 6 7 7 7 7 8 4 1 -2 -1 -1 1 2 2 2 3 4 4 4 3 -1
-17 -16 -17 -15 -13 -13 -11 -10 -11 -6 3 5 6 5 3 2 3 4 4 4 7 8 9 8 6 -1 5 3 4 3 6 8 8 6 4 4 3 2 2 2 2 2 1 1 1 2 2 -1 -1
-16 -14 -13 -14 -12 -11 -10 -8 -9 -5 5 6 6 5 4 3 4 4 5 5 5 7 8 8 7 5 4 8 6 3 5 6 6 5 4 4 4 4 3 3 3 2 0 -1 -1 -1 -1 -1 -2
-9 -8 -7 -9 -10 -10 -10 -7 -9 -5 4 6 6 5 4 4 4 4 5 5 5 5 8 8 8 8 6 6 7 5 4 5 4 4 5 4 5 4 4 4 3 1 0 1 0 -0 -2 -2 -2
-6 -6 -5 -6 -9 -9 -9 -7 -8 -12 -3 1 4 4 4 4 4 5 5 5 5 6 8 8 9 8 7 7 7 5 5 5 4 5 3 4 5 5 4 3 2 1 1 1 1 -1 -3 -5 -7
-5 -4 -4 -5 -7 -7 -7 -8 -8 -12 -11 -8 -7 -1 2 4 5 4 4 5 5 8 9 9 8 7 8 7 6 6 6 4 3 2 3 3 2 2 2 1 1 1 1 0 -2 -3 -4 -8 -7
-7 -4 -4 -5 -7 -7 -7 -6 -5 -6 -5 1 4 4 5 6 6 7 7 8 9 10 10 9 9 8 7 5 4 4 2 1 1 2 2 2 2 2 2 2 1 1 -1 -2 -2 -3 -6 -7 -8
-3 -2 -2 -4 -5 -7 -5 -5 -4 -3 1 3 4 4 4 5 5 5 5 5 6 4 4 3 3 3 2 1 1 1 1 1 2 2 2 2 2 1 1 1 0 -0 -1 -2 -3 -9 -10 -8 -2
1 -0 -1 -2 -3 -4 -4 -3 -0 0 2 3 3 3 2 2 2 3 3 3 3 2 1 1 1 2 1 1 1 1 1 0 1 1 1 0 0 1 1 0 -0 -2 -6 -10 -8 -4 -1 1 -1
3 -1 -1 -2 -1 -2 -5 0 -2 0 0 0 2 3 3 3 2 1 1 1 -0 -0 0 -0 -0 1 1 2 2 2 1 1 1 2 2 1 2 1 0 -4 -12 -13 -12 -6 -2 0 -2 -2 -2
0 -2 -1 -1 -0 1 1 0 -1 0 2 2 2 3 3 3 2 2 1 1 2 2 2 2 1 1 1 2 2 2 2 2 2 2 2 2 1 -2 -8 -11 -9 -7 -9 -7 -4 -4 -6 -2 -2
-3 0 3 2 2 5 5 2 2 1 2 2 1 3 3 2 2 1 2 2 2 2 2 3 3 3 3 3 2 2 2 2 2 2 1 0 -1 -7 -9 -6 -5 -6 -9 -3 -3 -3 -3 -2 -4
-1 3 6 6 7 6 5 6 4 2 0 1 2 2 2 2 1 1 2 2 2 3 3 3 3 3 3 2 2 1 1 1 0 -0 -2 -3 -7 -7 -5 -3 -5 -10 -7 -4 -4 -5 -6 -7 -7
1 2 5 7 6 5 1 5 4 2 2 2 1 1 1 1 1 2 3 3 3 2 2 2 2 2 2 2 1 1 0 -0 -1 -3 -5 -8 -7 -5 -3 -4 -11 -11 -9 -6 -6 -7 -7 -7 -7
1 1 -0 4 4 4 4 3 0 1 1 1 2 2 1 1 1 2 2 2 2 2 2 2 1 1 1 0 -0 -0 -1 -2 -3 -4 -8 -9 -7 -4 -3 -7 -11 -9 -8 -7 -9 -10 -10 -10 -10
-3 -2 3 3 4 4 2 4 5 3 2 1 0 1 1 1 1 1 1 2 2 1 1 1 0 -1 -1 -2 -2 -3 -4 -3 -3 -4 -6 -6 -6 -4 -4 -9 -10 -7 -8 -9 -10 -11 -10 -9 -10
0 2 1 1 3 4 5 2 -1 2 3 1 1 1 1 1 2 2 2 2 1 1 -1 -1 -2 -3 -4 -5 -5 -5 -5 -4 -4 -5 -5 -5 -5 -5 -5 -9 -8 -7 -8 -11 -11 -11 -10 -10 -10
-2 0 1 3 1 3 3 1 -0 1 0 -0 1 1 1 1 2 2 1 1 0 -2 -4 -5 -5 -5 -6 -6 -7 -6 -5 -4 -4 -4 -3 -4 -5 -5 -4 -4 -7 -7 -11 -11 -11 -12 -12 -10 -10

GFSSGP_850_dewp_030.txt.gz
Dewpoint
-22 -25 -6 -6 -6 -4 -3 -4 1 6 9 9 10 11 13 14 12 11 14 13 13 12 12 12 11 11 10 10 9 8 7 4 0 -2 -4 -5 -4 -4 -8 -9 -7 -9 -14 -15 -16 -16 -15 -14 -13
-26 -9 -6 -6 -4 -3 -0 -3 7 8 10 9 9 11 12 14 14 14 14 13 13 12 12 12 11 11 10 8 6 2 -1 -3 -4 -4 -5 -5 -5 -10 -9 -6 -7 -11 -12 -12 -10 -10 -10 -12 -13
-14 -7 -8 -6 -4 -3 -2 4 7 8 6 6 6 8 11 14 14 14 13 13 12 12 12 12 11 11 8 1 -5 -4 -3 -4 -4 -5 -5 -4 -11 -11 -8 -7 -8 -8 -9 -9 -8 -8 -8 -8 -9
-9 -8 -10 -7 -6 -6 -4 5 6 7 6 5 5 8 8 13 13 13 13 12 12 12 13 12 11 5 -3 -5 -4 -3 -4 -5 -6 -5 -5 -10 -10 -8 -6 -6 -6 -5 -5 -4 -3 -2 -2 -3 -6
-7 -9 -8 -7 -7 -2 -3 5 7 6 6 7 6 8 10 13 13 12 12 12 12 13 12 11 2 -4 -5 -4 -5 -7 -9 -7 -6 -6 -9 -5 -4 -3 -1 -1 -2 -2 0 -1 -3 -3 -1 1 1
-7 -9 -7 4 2 0 4 6 7 6 6 7 9 9 12 12 12 11 12 12 12 12 7 -3 -4 -4 -6 -7 -11 -13 -10 -8 -9 -6 -1 -1 -1 -2 -3 -5 -5 -4 -4 -5 -4 -4 -4 -3 -2
-8 -9 -7 5 5 2 1 6 6 6 6 7 9 9 14 12 12 11 11 12 11 1 -5 -4 -5 -8 -12 -15 -15 -11 -10 -8 -4 0 0 0 -1 -3 -3 -4 -4 -4 -3 -3 -3 -3 -2 -2 -2
-7 -9 -7 -5 6 5 -1 6 5 6 6 7 8 12 13 12 10 11 11 7 -2 -3 -4 -4 -8 -15 -18 -16 -12 -10 -7 -3 2 2 1 0 -1 -2 -2 -3 -3 -2 -2 -1 -0 0 0 -0 -1
-8 -7 -7 -8 3 5 1 2 4 6 5 5 6 8 11 9 9 8 3 -2 -3 -1 0 -2 -6 -12 -14 -12 -8 -3 -0 0 1 1 0 2 1 1 -0 -1 -1 -0 1 1 2 2 3 2 1
-6 -6 -7 -9 1 2 1 1 1 6 5 5 5 9 10 3 2 -2 -3 -2 1 4 1 0 3 1 2 2 2 2 1 1 3 2 -0 1 2 1 1 0 0 1 2 2 2 2 2 2 1
-8 -6 -11 -14 -6 -1 -3 1 3 6 6 5 7 10 8 1 -3 -5 -3 -1 2 6 5 -0 3 5 6 6 5 4 3 4 5 5 3 -0 2 2 1 1 1 2 2 2 2 2 1 1 0
-9 -12 -13 -15 -12 -2 -2 -1 4 4 2 3 4 7 4 -1 -3 -5 -4 0 4 6 6 1 4 5 6 7 6 6 5 5 7 6 5 3 -1 1 0 1 1 1 2 2 2 1 1 0 0
-12 -16 -14 -15 -11 -5 -6 -6 3 -4 3 3 5 6 4 2 1 -0 -4 1 5 7 7 5 4 5 6 7 8 7 7 8 8 8 8 5 3 2 2 3 2 3 3 3 2 1 0 0 1
-15 -15 -14 -15 -14 -13 -11 -10 -9 -4 5 3 4 5 4 4 3 2 2 2 5 7 8 7 5 7 7 8 8 8 8 8 9 9 8 7 5 4 4 5 5 5 4 3 2 2 1 1 1
-15 -14 -13 -13 -13 -10 -10 -10 -8 3 4 3 4 4 4 5 4 3 2 2 5 7 8 8 6 8 8 8 7 7 7 8 9 8 9 8 6 5 6 6 6 5 4 3 2 1 1 1 0
-10 -9 -11 -12 -11 -10 -12 -10 -10 5 4 4 4 4 5 5 4 3 3 3 4 6 8 9 8 8 7 8 8 7 7 7 7 7 8 7 6 6 6 6 4 3 2 1 1 1 0 -0 -1
-7 -7 -7 -8 -10 -10 -11 -10 -8 6 5 5 4 4 4 4 4 3 3 3 4 5 7 9 9 9 9 7 8 7 7 8 6 5 6 5 5 5 4 3 2 1 1 0 -0 -1 -2 -3 -5
-8 -6 -6 -6 -8 -9 -8 -4 -1 1 6 5 5 5 5 5 5 5 5 5 5 4 6 10 9 9 9 9 8 7 5 5 5 4 4 4 3 2 2 1 1 1 1 0 -4 -9 -13 -18 -20
-7 -6 -6 -6 -7 -6 1 3 3 -1 3 5 5 5 6 6 6 6 6 6 6 8 9 10 10 9 8 8 6 6 6 4 2 2 1 0 -0 -1 -0 0 1 1 -2 -9 -16 -19 -20 -23 -25
-4 -4 -3 -4 -4 -4 1 2 3 4 4 5 5 6 7 8 9 9 10 10 11 10 10 8 8 6 5 4 3 2 1 1 1 1 -0 -0 0 1 2 1 -2 -8 -15 -17 -18 -20 -20 -20 -18
0 -2 -1 -2 -4 -4 -2 -0 3 2 4 5 5 6 8 9 9 8 7 7 7 5 3 2 1 1 -0 -1 -1 -1 -1 -1 -0 0 1 1 2 0 -4 -9 -14 -15 -15 -17 -20 -22 -22 -20 -18
0 -1 -2 -2 -4 -0 -4 0 2 3 4 4 5 5 5 5 5 5 5 4 1 -1 -0 0 0 0 1 1 1 1 1 1 1 1 1 2 -4 -8 -9 -6 -9 -13 -13 -14 -17 -19 -15 -11 -8
-1 -1 -1 -1 0 0 2 2 2 4 5 5 4 4 4 4 3 2 2 1 1 2 2 2 2 2 2 2 2 2 2 2 2 2 0 -4 -7 -6 -8 -7 -7 -9 -8 -8 -10 -14 -15 -11 -11
-2 1 2 2 2 4 4 1 2 4 4 4 4 4 3 3 3 2 2 2 2 2 2 3 3 3 2 2 2 2 2 1 0 -2 -6 -7 -6 -6 -8 -8 -7 -6 -6 -5 -9 -13 -13 -11 -10
0 2 5 6 5 6 2 3 1 0 1 3 3 4 3 3 3 2 2 3 3 4 3 3 3 2 2 1 1 1 0 -1 -4 -6 -6 -5 -5 -5 -6 -6 -5 -4 -4 -8 -10 -9 -11 -10 -11
0 1 5 6 6 5 2 5 3 2 0 2 3 3 3 3 3 3 4 4 4 4 3 2 2 1 0 0 0 -1 -4 -6 -6 -4 -4 -4 -4 -4 -5 -5 -4 -3 -5 -8 -5 -6 -9 -12 -12
1 1 -0 4 3 5 4 3 2 2 2 2 3 3 3 3 3 4 4 4 3 2 2 1 0 -1 -1 -1 -3 -6 -6 -4 -3 -4 -4 -4 -4 -4 -3 -3 -3 -4 -4 -3 -4 -5 -10 -11 -11
-2 -0 2 2 3 3 2 4 5 4 3 2 2 3 3 3 3 4 3 2 2 1 1 -0 -2 -3 -2 -5 -6 -6 -6 -5 -4 -4 -5 -7 -6 -4 -3 -3 -3 -4 -4 -3 -5 -6 -8 -11 -12
1 0 1 1 2 3 3 4 -0 3 3 3 2 2 2 2 3 2 2 1 1 1 -1 -2 -4 -5 -5 -5 -6 -7 -7 -5 -6 -11 -14 -13 -13 -14 -13 -7 -5 -5 -4 -4 -4 -8 -9 -11 -11
-1 -0 -2 -0 -1 2 2 1 -1 1 1 2 1 2 2 2 2 1 1 1 0 -1 -2 -5 -5 -5 -5 -7 -7 -7 -8 -10 -12 -12 -11 -11 -10 -11 -11 -6 -4 -3 -4 -5 -8 -7 -7 -10 -10

GFSSGP_850_dewp_033.txt.gz
Dewpoint
-13 -24 -11 -6 -5 -3 0 -5 0 8 10 11 11 10 11 13 12 12 14 12 12 12 12 12 12 11 10 10 10 10 9 7 2 -3 -4 -4 -4 -9 -8 -7 -12 -14 -14 -12 -12 -12 -12 -12 -13
-21 -21 -7 -6 -4 -2 -0 -4 7 9 11 11 11 11 9 9 13 14 14 13 13 12 12 12 11 10 11 10 9 7 2 -3 -4 -4 -5 -6 -11 -8 -7 -9 -10 -10 -10 -9 -9 -9 -9 -9 -9
-24 -7 -7 -5 -4 -4 -1 7 10 10 9 7 8 9 9 9 10 13 14 13 13 12 11 11 11 11 10 8 3 -2 -3 -4 -5 -5 -6 -12 -9 -7 -7 -8 -8 -7 -6 -4 -4 -3 -3 -5 -6
-13 -8 -10 -6 -5 -5 -1 8 8 8 7 7 6 8 11 11 9 12 14 14 12 12 12 12 11 11 7 -1 -2 -4 -5 -7 -6 -6 -11 -8 -6 -6 -5 -4 -2 -1 -2 -4 -4 -2 -1 -1 -1
-9 -9 -7 -5 -3 -1 -2 6 7 8 10 7 7 7 12 14 13 13 14 13 12 12 12 12 11 5 -0 -2 -4 -6 -7 -6 -5 -8 -6 -4 -2 -1 -2 -2 -2 -5 -5 -5 -4 -4 -4 -4 -4
-6 -9 -7 3 4 2 6 7 7 7 7 6 8 10 12 14 13 13 13 12 12 12 12 10 3 -1 -3 -3 -6 -8 -7 -6 -7 -2 -1 -0 -1 -3 -3 -3 -3 -5 -5 -4 -3 -3 -2 -2 -2
-6 -8 -5 5 4 3 7 7 8 7 6 6 8 11 13 14 12 12 12 12 12 12 8 -0 -3 -3 -2 -5 -8 -8 -7 -6 -0 -0 0 -1 -1 -3 -3 -3 -4 -4 -4 -3 -3 -2 -2 -2 -2
-6 -7 -2 4 5 6 4 6 5 4 5 8 9 11 13 14 12 11 12 12 12 5 -2 -3 -5 -5 -7 -10 -8 -8 -7 -0 1 2 1 -0 -1 -2 -3 -3 -3 -2 -2 -1 -1 -1 -1 -1 -0
-7 -6 -6 -2 5 7 5 5 3 4 6 5 7 11 11 12 12 12 12 11 2 -3 -4 -5 -9 -11 -13 -9 -8 -6 -2 2 1 1 1 1 -0 -1 -3 -2 -2 -0 1 1 1 1 1 1 1
-7 -5 -7 -9 2 1 1 3 4 6 6 5 6 11 12 11 11 11 8 -2 -3 -2 -1 -4 -11 -13 -11 -8 -4 -1 1 2 2 1 1 2 2 0 -0 -1 0 1 1 2 3 3 2 1 0
-6 -5 -7 -10 1 1 1 2 6 5 6 5 8 11 11 9 9 2 -4 -5 -1 2 0 0 -3 -2 -1 1 3 4 3 5 6 5 2 3 4 3 3 2 1 1 2 2 2 2 1 0 0
-7 -11 -12 -15 -6 -2 1 2 6 5 3 4 5 10 7 2 -2 -6 -5 -2 3 4 2 3 4 6 6 6 7 7 6 7 8 8 7 5 5 5 3 3 3 2 2 2 2 2 1 0 1
-8 -14 -14 -14 -13 -3 0 3 5 2 2 4 7 8 4 -3 -6 -6 -4 -1 5 6 5 2 6 7 7 8 8 8 8 9 9 10 9 7 5 5 4 4 4 4 3 4 3 3 2 1 1
-12 -14 -14 -13 -9 -7 -6 -6 2 -0 4 5 7 6 4 1 -3 -4 -4 -0 5 7 7 4 6 7 7 8 8 8 9 9 9 9 8 8 7 5 5 5 5 5 5 5 3 2 1 1 1
-15 -12 -12 -11 -11 -10 -10 -9 -8 1 3 6 8 6 4 1 -1 -2 -3 -1 5 7 8 8 5 7 8 8 9 8 7 8 8 8 7 7 8 6 6 6 6 5 3 2 1 1 0 -1 -3
-10 -8 -10 -11 -11 -10 -11 -8 -7 5 4 6 7 6 4 3 2 1 0 2 4 6 8 8 8 8 9 8 8 8 6 7 7 7 7 8 7 6 6 5 3 2 1 1 1 -1 -4 -8 -12
-6 -8 -6 -8 -9 -9 -10 -6 -1 6 4 4 5 5 5 5 5 5 4 4 4 5 7 9 9 9 8 7 6 8 7 8 7 7 6 5 5 4 3 2 1 1 0 -1 -4 -10 -15 -19 -21
-5 -6 -6 -7 -8 -6 -5 1 1 1 5 5 5 4 5 5 5 4 4 4 4 5 5 8 10 9 8 6 8 7 7 5 5 5 4 3 2 1 0 1 1 0 -3 -11 -16 -18 -19 -20 -21
-7 -6 -5 -6 -6 1 3 4 3 2 5 5 6 5 5 5 5 5 5 5 6 7 8 9 9 9 8 7 7 5 5 4 2 1 1 0 0 1 2 1 -4 -10 -12 -14 -15 -16 -15 -16 -19
-4 -3 -2 -3 -4 -1 2 4 4 4 4 5 6 6 6 6 7 8 8 8 8 8 9 9 9 5 6 6 4 2 1 0 1 1 1 1 2 1 -2 -6 -9 -9 -8 -10 -12 -12 -13 -15 -20
-1 -0 -1 -2 -3 -3 -1 1 4 4 5 5 5 6 7 8 9 11 11 8 6 6 4 4 2 2 2 1 0 0 0 0 0 1 1 2 1 -1 -6 -10 -13 -11 -11 -11 -9 -8 -7 -11 -15
1 -1 -2 -2 -3 -1 -3 -2 2 4 5 5 5 7 8 9 8 7 6 3 1 0 0 0 0 0 1 1 1 1 2 2 2 2 2 1 -3 -7 -8 -10 -10 -9 -9 -8 -6 -6 -8 -11 -10
1 -0 -0 -1 0 1 2 -0 0 4 6 6 5 6 6 6 6 4 2 0 0 1 1 1 1 1 2 2 2 2 2 2 1 1 -0 -5 -6 -6 -6 -7 -7 -8 -7 -5 -5 -8 -10 -10 -9
1 1 2 2 2 4 4 1 0 5 5 6 5 5 5 5 4 2 1 1 1 1 2 2 2 2 3 2 2 2 1 1 -0 -3 -6 -7 -7 -6 -5 -5 -6 -6 -5 -4 -7 -8 -7 -8 -10
1 2 5 6 7 6 3 3 2 1 2 5 5 4 4 3 2 1 1 2 2 2 3 3 3 3 2 0 0 0 -0 -2 -5 -7 -6 -4 -4 -4 -4 -4 -4 -4 -3 -3 -6 -7 -4 -7 -9
1 2 7 5 7 6 2 5 2 2 0 4 4 4 3 3 2 2 2 2 3 4 3 3 2 1 0 -0 -1 -2 -5 -6 -6 -4 -3 -3 -4 -4 -6 -5 -3 -3 -3 -4 -5 -4 -4 -6 -9
1 1 0 4 3 5 3 3 1 2 2 3 4 4 4 3 3 3 3 3 4 4 3 2 1 -0 -1 -1 -4 -6 -6 -5 -4 -3 -4 -5 -9 -12 -12 -12 -15 -11 -4 -5 -4 -5 -5 -5 -8
-1 -0 3 3 4 2 1 3 2 4 3 3 3 4 4 3 3 4 4 4 4 3 2 0 -2 -3 -3 -5 -5 -6 -5 -5 -5 -6 -10 -13 -13 -12 -12 -13 -14 -9 -6 -4 -4 -6 -5 -6 -9
1 1 1 1 2 0 2 -2 1 2 3 3 3 3 3 3 3 4 4 3 2 1 -0 -3 -4 -4 -5 -4 -6 -7 -7 -8 -10 -12 -13 -12 -12 -11 -12 -14 -12 -7 -4 -4 -3 -4 -7 -8 -8
-1 0 0 2 -1 3 2 0 -3 1 2 2 3 3 2 2 2 3 3 2 1 -1 -3 -2 -5 -3 -4 -7 -8 -8 -9 -12 -14 -14 -12 -10 -10 -12 -14 -14 -11 -5 -4 -4 -4 -5 -7 -7 -8

GFSSGP_850_dewp_036.txt.gz
Dewpoint
-7 -17 -23 -5 -3 -3 -1 -3 1 8 11 10 9 9 10 11 11 13 15 14 14 14 13 12 12 11 11 10 10 10 10 8 5 -1 -4 -5 -6 -10 -8 -11 -14 -14 -12 -10 -10 -10 -10 -10 -11
-13 -25 -7 -5 -4 -3 -3 -3 2 9 11 10 9 8 7 10 14 14 14 14 14 13 13 12 11 11 11 10 11 10 8 2 -2 -4 -4 -8 -9 -7 -10 -10 -10 -9 -8 -7 -6 -6 -6 -7 -7
-22 -14 -7 -9 -8 -4 -2 2 9 8 7 8 8 9 9 10 14 13 13 13 13 14 14 12 11 11 11 10 10 6 1 -1 -3 -4 -8 -8 -6 -7 -8 -7 -6 -3 -3 -3 -3 -3 -3 -3 -3
-12 -8 -9 -8 -8 -7 2 8 8 7 7 7 8 10 9 8 8 7 8 13 14 13 14 11 11 11 10 9 4 2 -0 -3 -3 -7 -8 -6 -6 -6 -4 -2 -1 -4 -5 -4 -4 -4 -5 -6 -7
-8 -9 -10 -9 -6 -2 -0 7 6 7 9 6 6 7 10 13 10 9 11 13 13 14 14 11 12 11 8 4 2 -1 -3 -3 -5 -7 -5 -4 -2 -2 -2 -3 -5 -4 -4 -4 -4 -5 -5 -4 -3
-11 -10 -11 -8 -1 3 2 6 6 7 5 3 6 7 13 13 13 13 13 13 13 12 13 12 11 8 4 1 -2 -5 -3 -4 -6 -3 -1 -1 -2 -3 -3 -4 -4 -4 -3 -3 -3 -3 -2 -2 -2
-11 -12 -10 -1 3 6 6 6 5 5 3 2 7 7 14 14 14 14 14 13 12 12 13 12 9 4 2 -1 -5 -4 -3 -4 0 -0 -0 -1 -3 -2 -3 -3 -3 -3 -2 -2 -1 -1 -1 -1 -1
-8 -10 -2 2 4 7 6 5 4 3 3 7 7 9 13 13 14 14 13 13 12 12 12 11 11 9 -1 -6 -4 -3 -3 2 1 2 0 0 -1 -3 -3 -2 -2 -2 -0 -0 -0 -0 -0 -0 -0
-7 -8 -3 3 6 6 4 4 4 3 5 6 8 10 12 13 13 12 12 12 12 12 11 11 10 10 8 6 -3 -2 2 4 3 3 2 2 8 3 3 -1 -1 -1 0 0 0 -0 -0 -0 1
-8 -6 -7 -7 -0 0 2 0 3 3 4 5 8 12 13 13 11 11 12 12 10 9 7 -0 -3 -5 -6 5 -1 -1 5 8 9 8 5 9 5 7 7 -0 -0 1 1 1 1 0 0 1 2
-8 -6 -9 -10 -3 -1 0 1 2 3 4 5 6 13 13 13 13 12 12 10 8 9 8 6 -9 -9 -4 3 6 9 9 7 6 5 7 6 6 5 8 3 2 2 2 3 3 3 2 2 1
-6 -9 -10 -13 -2 -1 -1 1 3 3 2 4 5 12 13 12 13 12 7 6 6 8 7 -1 -9 -6 -3 6 8 6 9 8 10 8 6 6 7 5 4 3 2 3 3 3 3 3 3 2 2
-7 -10 -12 -11 -5 -1 -1 1 2 3 4 6 10 12 11 10 9 5 4 5 6 7 7 3 0 2 3 6 7 8 8 10 9 9 8 8 6 6 5 4 4 5 4 4 4 3 3 2 2
-9 -12 -14 -13 -8 -2 -0 2 3 3 6 9 11 10 7 5 3 3 3 4 6 7 8 6 6 5 6 7 8 8 9 9 9 9 7 7 8 7 6 6 6 6 5 4 3 2 1 1 1
-12 -12 -10 -8 -5 -4 -2 -1 -5 3 6 8 8 6 5 1 2 1 2 3 6 8 9 8 6 7 7 7 8 8 7 7 7 7 7 7 8 8 6 6 6 4 2 1 1 -0 -1 -1 -2
-12 -12 -8 -8 -6 -8 -5 -6 -5 3 4 5 5 5 5 4 3 3 2 3 5 8 10 8 7 8 9 9 8 7 4 5 6 8 8 8 7 7 6 4 2 1 1 -1 -3 -3 -4 -5 -4
-9 -11 -10 -9 -10 -7 -10 -8 -3 4 3 5 5 5 5 4 4 5 7 5 5 8 11 8 9 8 9 8 7 7 5 7 8 7 6 5 4 3 2 1 1 0 -2 -5 -7 -5 -4 -5 -4
-8 -12 -11 -11 -10 -10 -9 -3 -3 4 3 3 4 5 5 5 5 7 8 6 7 10 10 8 9 10 9 7 4 6 7 7 5 5 4 3 2 0 1 1 -1 -4 -5 -5 -11 -8 -5 -6 -4
-10 -7 -8 -8 -6 -7 -6 -3 -2 2 4 3 4 5 5 6 7 8 5 5 8 9 8 7 8 9 9 3 8 7 6 5 4 2 2 2 1 1 1 -2 -4 -7 -5 -13 -10 -7 -6 -6 -4
-6 -6 -4 -4 -6 -4 -2 -1 0 0 4 4 4 5 5 6 7 8 8 7 8 9 9 7 8 6 6 5 6 5 4 2 2 1 1 1 1 0 -3 -6 -4 -6 -6 -4 -3 -3 -4 -7 -5
-3 -3 -2 -3 -4 -3 -1 0 2 2 3 5 6 5 6 7 8 9 11 11 10 10 9 6 7 5 2 2 1 1 1 1 1 1 1 2 0 -4 -5 -7 -9 -7 -4 -5 -3 -3 -3 -5 -6
-2 -2 -3 -3 -3 -3 -3 -3 1 2 2 3 5 6 7 8 9 10 10 10 10 7 3 8 6 5 1 1 3 2 3 3 3 3 3 0 -4 -6 -9 -10 -9 -4 -3 -2 -3 -4 -2 -3 -5
0 -3 -3 -3 -2 -1 -1 -2 -1 2 3 3 4 6 8 8 9 7 6 6 7 7 7 6 6 5 3 2 4 4 4 3 3 2 1 -0 -1 -7 -5 -3 -2 -2 -2 -2 -1 -1 -2 -3 -3
-0 0 1 0 -0 1 -1 -0 -7 -4 0 3 4 7 8 7 6 5 3 3 4 5 5 5 4 4 2 3 2 3 3 2 1 -0 -2 -3 -3 -2 -2 -1 -1 -1 -1 -1 -1 -1 -2 -2 -2
-0 -1 -1 2 3 1 2 1 -5 -1 0 3 5 7 6 6 4 3 3 3 4 4 4 5 4 4 3 2 2 2 2 0 -1 -1 -3 -2 -3 -2 -2 -1 -1 -2 -2 -2 -2 -2 -2 -2 -3
-1 -1 -1 -2 1 0 2 2 1 1 -0 3 4 5 5 5 3 2 3 4 4 4 5 4 4 4 2 1 1 0 -3 -1 -2 -2 -2 -2 -2 -2 -3 -5 -5 -5 -5 -4 -3 -2 -3 -3 -4
0 -0 1 4 4 5 -1 0 -0 1 1 3 4 5 4 3 3 3 4 4 4 5 5 5 4 3 -1 -2 -4 -5 -6 -7 -6 -6 -6 -4 -5 -6 -7 -6 -7 -7 -6 -4 -4 -3 -3 -4 -5
0 -1 2 2 3 -1 -4 -3 -5 2 2 2 4 4 3 2 3 4 4 5 5 4 4 3 2 -2 0 -0 -5 -5 -6 -7 -8 -9 -7 -6 -7 -7 -7 -7 -7 -6 -5 -4 -3 -3 -3 -3 -4
1 1 -0 -1 1 -3 -4 -8 -1 -1 1 1 3 3 2 3 4 4 4 5 4 3 3 1 -2 0 -2 -5 -5 -7 -8 -8 -10 -8 -7 -7 -7 -7 -7 -6 -5 -5 -4 -3 -4 -4 -4 -4 -5
-1 -0 -1 -2 -1 2 3 -5 -5 -1 1 1 1 2 2 3 4 4 4 4 2 1 0 -2 -2 -2 -4 -6 -6 -6 -9 -9 -6 -7 -8 -7 -6 -8 -5 -4 -4 -4 -3 -3 -4 -4 -4 -5 -5

GFSSGP_850_dewp_042.txt.gz
Dewpoint
-14 -10 -9 -7 -8 -5 -3 -5 -2 8 10 8 8 10 12 13 14 15 14 14 13 13 10 9 8 9 9 7 7 9 10 10 8 1 -4 -6 -11 -10 -14 -14 -12 -11 -9 -7 -6 -5 -5 -6 -6
-16 -3 -11 -14 -6 -3 -4 4 11 10 9 8 7 8 10 14 14 14 14 14 14 12 11 10 9 9 9 9 10 10 10 7 -0 -4 -6 -12 -10 -12 -11 -10 -8 -5 -5 -5 -6 -8 -9 -9 -9
-13 -8 -13 -11 -7 -2 0 9 9 7 6 6 7 8 9 13 13 14 14 15 14 13 13 11 11 10 10 10 11 10 6 -1 -3 -5 -11 -8 -10 -10 -8 -5 -5 -7 -6 -8 -8 -8 -6 -5 -5
-8 -11 -14 -7 -5 -7 2 8 6 6 6 6 6 8 10 10 10 14 14 14 14 13 12 11 11 11 11 11 10 5 -1 -4 -5 -10 -9 -8 -8 -6 -4 -6 -7 -7 -8 -7 -6 -5 -4 -3 -2
-9 -12 -11 -8 -7 -8 -6 5 5 5 5 5 5 7 9 6 8 14 14 13 13 13 12 11 11 11 11 9 5 -0 -3 -4 -7 -10 -7 -7 -4 -3 -6 -6 -7 -7 -6 -5 -3 -3 -3 -2 -2
-10 -14 -7 -5 -7 -7 -5 4 6 7 9 9 4 6 8 8 7 11 13 13 13 13 11 10 11 11 9 3 2 -1 -3 -4 -8 -6 -5 -2 -2 -5 -6 -5 -5 -5 -4 -2 -2 -2 -2 -2 -2
-11 -10 -8 -7 -6 -3 2 6 8 8 6 8 3 9 12 10 10 8 11 12 12 10 10 11 11 10 5 2 0 -2 -3 -7 -5 -2 -2 -3 -3 -4 -3 -4 -4 -3 -2 -1 -1 -1 -1 -1 1
-13 -11 -8 -8 -8 6 8 7 6 8 6 3 2 5 10 13 12 8 8 11 10 8 11 11 10 6 2 -0 -3 -2 -5 -3 0 -0 -2 -1 -1 -2 -3 -3 -2 -2 -1 -0 0 0 0 2 4
-12 -9 -7 -7 -0 9 7 9 7 4 2 5 6 10 11 13 12 10 7 10 11 12 11 8 5 2 0 -2 -1 -3 -1 1 1 2 5 8 9 8 6 -1 -1 -1 0 1 2 2 3 4 4
-11 -8 -9 -1 6 8 6 8 7 -1 -0 3 8 12 14 13 12 11 12 12 9 10 11 11 9 10 8 -2 -2 -1 2 4 4 3 10 10 10 9 9 7 0 1 3 5 6 6 5 5 5
-11 -8 -11 -4 2 5 6 6 5 0 3 4 9 12 14 14 13 12 13 11 11 11 10 10 9 8 8 5 -1 4 8 10 10 9 10 10 9 9 9 8 8 8 7 7 6 6 6 5 5
-10 -11 -11 -6 2 2 2 2 3 3 4 2 6 13 13 13 12 13 11 10 9 10 10 10 9 7 7 6 8 8 10 9 10 9 9 8 8 9 8 8 8 7 7 6 6 5 5 5 4
-11 -11 -10 -9 -8 -2 -0 2 3 2 -1 3 7 13 12 10 11 11 11 7 8 8 8 9 6 8 6 9 8 10 10 10 9 8 7 8 9 8 7 7 7 7 6 6 5 5 5 2 0
-11 -11 -9 -8 -5 -4 -0 3 3 1 1 10 12 12 11 10 9 7 4 6 6 7 7 7 4 5 9 10 10 9 9 9 8 10 9 9 8 7 9 8 7 6 6 5 3 2 -0 -2 -2
-9 -8 -9 -7 -4 -1 -2 1 -1 2 3 7 9 8 8 7 6 3 4 6 6 7 7 8 8 10 10 10 8 9 8 8 5 7 6 6 7 8 8 8 7 6 5 1 0 -1 -2 -3 -4
-11 -9 -4 -5 -6 -5 1 4 -1 1 3 6 7 7 6 5 3 3 5 6 6 8 9 10 10 10 10 10 9 8 7 4 3 4 4 6 7 8 7 7 6 2 0 -1 -1 -2 -5 -9 -8
-8 -5 -3 -3 -8 -5 -1 1 -2 -1 1 2 3 3 3 2 1 3 4 6 7 8 10 11 11 10 9 8 8 8 6 3 3 2 5 6 6 5 4 3 1 0 -1 -1 -2 -5 -10 -8 -6
-3 -6 -6 -4 -7 -8 -2 -3 -6 -3 1 1 1 -0 -2 -2 -1 1 3 5 8 10 10 10 10 8 7 7 7 8 7 6 5 4 6 5 3 2 1 1 0 -0 -2 -3 -5 -5 -2 -3 -3
-6 -6 -6 -10 -10 -9 -9 -8 -8 -4 -1 1 0 0 -1 -1 -0 2 3 3 6 10 10 10 10 9 8 7 8 7 6 4 6 6 5 3 2 1 1 0 -0 -1 -1 -3 -4 -3 -2 -2 -3
-8 -3 -4 -11 -13 -11 -9 -10 -7 -6 -3 0 1 2 2 1 1 5 6 6 8 10 11 11 10 10 9 9 8 4 6 6 5 4 3 4 3 2 -0 0 0 -1 -4 -7 -3 -3 -3 -2 -3
-7 1 -0 -1 -9 -13 -9 -11 -6 -6 -5 -3 0 2 2 3 4 7 7 8 7 11 11 10 11 10 9 9 8 7 4 5 5 4 4 4 2 1 0 -1 -1 -3 -3 -2 -2 -2 -2 -2 -3
-1 -1 -3 -3 -3 -5 -1 0 -4 -4 -4 -3 -2 -1 1 3 6 7 8 9 10 11 11 10 10 9 10 9 7 5 5 4 4 3 4 4 3 2 1 -1 -2 -1 -1 -2 -2 -2 -3 -3 -2
0 -1 -0 -5 -6 2 1 2 3 -2 -1 -2 0 0 1 2 4 6 8 9 10 10 10 11 10 9 8 4 5 4 4 4 3 3 3 3 2 1 -1 -2 -2 -1 -1 -1 -2 -2 -2 -2 -2
-1 -0 -2 -4 -2 4 3 4 2 1 2 3 0 1 2 3 4 7 8 10 10 11 10 9 8 8 6 5 4 4 5 4 4 3 3 1 -0 -2 -3 -3 -2 -1 -1 -4 -4 -5 -5 -5 -5
-4 -3 4 10 10 5 -6 -3 -4 2 0 -0 0 2 3 4 6 7 9 10 10 9 9 8 7 6 5 5 5 5 5 4 3 1 1 0 -2 -3 -3 -3 -3 -6 -6 -6 -6 -6 -6 -5 -5
1 -3 8 8 10 4 -2 -1 -2 -2 -3 -2 1 1 4 7 7 7 8 7 8 8 8 7 6 5 5 5 6 5 4 3 -0 1 0 -1 -2 -3 -3 -5 -6 -7 -7 -7 -7 -6 -5 -6 -3
0 -1 -2 -0 7 9 -3 -9 0 -2 -1 -1 1 3 6 6 6 5 6 6 6 7 7 5 5 5 5 5 5 4 1 0 -0 -2 -1 -4 -4 -5 -6 -8 -8 -8 -7 -5 -5 -5 -4 -3 -3
-4 -5 1 -1 3 3 -4 -6 3 -0 -1 -0 2 4 5 5 5 4 4 3 4 5 6 5 5 5 5 4 4 2 0 -0 -1 -2 -2 -4 -4 -5 -7 -7 -7 -7 -5 -5 -5 -4 -4 -5 -4
-0 -0 -4 -5 1 6 6 -1 -6 -5 -3 -1 1 3 5 5 5 4 2 3 4 5 6 6 5 4 4 3 2 -0 -0 -1 -2 -3 -4 -4 -5 -6 -6 -7 -7 -5 -5 -5 -5 -5 -6 -5 -4
-4 -2 -2 9 3 4 7 2 -7 -6 -5 -4 -2 1 4 4 4 3 3 3 4 5 5 6 6 4 3 2 0 -0 -2 -2 -3 -5 -5 -6 -6 -6 -7 -7 -6 -5 -4 -6 -7 -7 -6 -7 -7

GFSSGP_850_dewp_045.txt.gz
Dewpoint
-18 -12 -6 -4 -6 -4 -2 -2 10 12 10 9 12 13 14 14 14 15 15 14 13 9 7 6 8 12 12 9 7 9 10 8 2 -6 -7 -14 -12 -14 -12 -10 -8 -7 -7 -8 -10 -10 -10 -9 -5
-18 -6 -2 -4 -8 -4 -4 4 11 10 9 8 9 13 13 14 14 15 15 14 13 10 8 9 9 11 9 8 9 10 9 3 -4 -7 -13 -12 -12 -11 -8 -6 -7 -8 -9 -10 -8 -7 -7 -8 -1
-19 -7 -8 -10 -9 -6 -3 8 9 8 8 7 8 10 12 13 14 14 14 14 12 9 8 9 9 9 9 10 11 9 3 -3 -5 -10 -12 -11 -10 -7 -6 -8 -8 -9 -9 -7 -6 -5 -3 -2 -3
-10 -9 -11 -9 -6 -7 -4 5 6 7 6 7 8 10 10 10 13 13 14 14 13 10 9 9 9 10 10 11 10 4 -3 -4 -8 -12 -9 -9 -7 -5 -8 -8 -9 -8 -6 -5 -4 -3 -2 -2 -2
-6 -7 -11 -9 -8 -8 4 3 5 9 8 7 6 9 8 14 13 13 14 14 13 12 11 11 11 11 11 10 5 -2 -4 -6 -11 -8 -8 -6 -5 -7 -8 -8 -7 -6 -4 -3 -3 -2 -2 -2 -1
-4 -10 -8 -7 -7 1 8 9 9 8 8 5 6 8 9 11 13 13 13 14 14 13 12 11 10 9 10 6 0 -3 -5 -9 -9 -7 -5 -4 -7 -7 -7 -6 -5 -3 -3 -2 -2 -2 -2 -0 1
-8 -8 -7 -9 -8 5 8 8 10 10 8 6 8 11 9 9 11 12 12 13 13 12 11 10 8 8 8 2 -2 -4 -6 -8 -6 -3 -4 -5 -6 -6 -6 -4 -3 -2 -2 -2 -1 -1 0 3 3
-9 -10 -9 -10 -8 9 8 9 6 8 8 5 6 11 10 11 9 12 10 9 12 11 8 7 9 9 5 0 -3 -5 -8 -4 -2 -4 -3 -4 -5 -5 -3 -4 -3 -2 -1 -0 0 1 3 4 4
-9 -9 -8 -9 7 8 8 8 7 4 9 9 8 8 10 11 9 10 10 9 9 9 6 10 10 5 1 -4 -4 -6 -2 0 -2 -2 3 3 5 6 3 -1 -2 -1 0 3 6 5 5 5 4
-10 -8 -7 -6 6 7 6 6 8 8 8 10 11 11 10 12 9 11 10 9 9 9 10 9 4 2 -2 -4 -4 -1 1 0 2 8 9 7 8 7 6 7 5 6 6 7 6 6 6 6 5
-11 -9 -10 -4 3 3 5 5 4 6 4 5 9 9 9 11 8 10 9 8 7 9 9 9 9 5 -3 -4 -1 3 3 4 6 10 10 9 8 7 8 8 8 7 7 7 6 6 5 5 5
-10 -11 -10 0 2 4 5 5 4 3 3 4 9 10 11 11 10 11 9 7 9 11 10 11 9 8 4 -3 4 7 8 7 8 5 10 10 9 8 9 8 8 7 7 7 6 6 5 5 2
-10 -10 -10 -1 2 3 4 5 5 3 2 4 6 7 11 10 10 11 10 10 10 11 10 9 8 6 6 8 9 10 8 8 8 7 7 8 6 9 9 8 8 7 7 6 5 5 3 0 -2
-8 -11 -9 -7 -2 1 4 6 2 1 2 3 3 6 10 10 10 10 10 10 9 9 8 9 7 6 8 9 9 9 9 8 9 7 7 7 8 8 7 7 7 7 6 6 4 1 -1 -3 -7
-7 -8 -8 -6 -1 1 3 6 6 3 4 9 10 10 11 10 10 7 9 8 8 8 6 4 7 7 10 9 8 9 9 7 5 7 8 8 8 7 7 8 8 7 6 3 -0 -1 -4 -9 -14
-4 -9 -5 -5 -2 1 0 4 2 5 10 11 10 10 9 8 7 8 7 7 7 7 5 1 7 8 9 9 8 8 8 7 6 5 5 4 6 6 7 8 7 4 1 -1 -1 -3 -8 -12 -10
-5 -5 -3 -2 -5 2 2 2 0 4 8 8 8 7 5 3 4 6 6 6 6 6 4 7 5 6 8 8 8 8 7 5 3 3 3 4 5 5 5 4 2 0 -0 -1 -2 -7 -13 -8 -6
-3 -4 -5 -3 -4 -1 -1 -1 -2 3 6 7 7 6 5 3 3 4 5 6 6 8 7 6 8 10 10 8 8 8 7 6 5 4 5 5 4 1 1 0 -0 -0 -0 -1 -4 -8 -5 -4 -5
-4 -3 -4 -5 -6 -4 -1 -2 -1 -1 2 3 4 4 3 1 3 4 6 7 8 9 9 9 8 9 9 7 6 6 8 7 6 6 5 5 1 1 1 0 0 -0 -0 -2 -7 -5 -4 -5 -3
-2 -2 -2 -3 -9 -10 -8 -6 -4 -3 1 1 1 0 1 -0 2 2 5 7 8 9 9 10 9 7 6 6 7 8 7 5 5 6 5 1 -0 1 1 0 0 0 -1 -4 -7 -6 -7 -5 -2
1 1 -1 0 -0 -5 -9 -7 -6 -5 -3 1 1 -0 -1 -1 1 2 3 5 9 10 10 8 9 9 8 8 9 6 6 6 5 3 0 -0 1 2 1 0 0 -1 -3 -4 -4 -4 -5 -2 -3
2 -1 -0 -1 1 1 -2 1 -1 -4 -4 -1 2 1 1 1 1 3 5 6 8 10 11 10 10 9 8 8 8 7 6 1 -0 1 2 2 3 3 1 0 -2 -2 -2 -1 -2 -2 -2 -3 -2
-1 -1 -0 1 1 2 1 3 1 -1 -2 -2 -2 2 2 2 3 5 6 7 8 10 11 11 10 10 9 9 8 5 3 3 3 3 3 4 3 2 0 -2 -1 -1 -1 -1 -1 -1 -8 -8 -7
-1 -1 1 4 5 4 1 2 4 -1 -1 1 -2 -0 2 4 5 6 7 8 9 9 10 10 9 8 9 9 6 5 4 4 4 4 4 4 2 1 0 -1 -2 -2 -2 -1 -3 -17 -14 -8 -7
-0 1 6 7 8 7 2 2 3 1 -2 1 -1 -1 2 4 6 7 8 9 10 10 10 9 9 9 9 5 5 4 5 4 4 3 3 1 -0 -2 -2 -3 -3 -3 -3 -13 -18 -14 -10 -8 -6
1 2 5 8 9 7 1 4 2 -0 -1 -1 -0 -0 1 4 6 7 8 10 10 9 9 7 9 9 8 5 5 5 5 5 3 3 2 1 1 -1 0 -3 -4 -9 -14 -15 -14 -11 -7 -5 -3
3 4 2 6 7 6 2 -3 -0 -0 -0 1 2 2 5 6 7 9 9 9 9 9 7 8 9 7 6 5 5 5 6 5 4 1 1 1 1 -0 -1 -7 -10 -12 -13 -10 -9 -7 -5 -4 -3
1 -1 2 3 2 2 1 -0 4 2 1 2 3 5 6 7 7 7 8 8 8 8 9 8 6 5 5 5 5 5 5 4 2 1 -1 0 -3 -4 -4 -7 -11 -11 -8 -8 -6 -5 -5 -6 -7
-0 0 -1 -0 4 5 6 1 -4 -0 -0 2 3 5 6 6 6 6 7 7 7 8 8 7 6 5 5 5 5 5 4 2 0 -1 -1 -3 -3 -4 -7 -9 -10 -9 -6 -6 -6 -7 -10 -8 -7
-3 -0 3 4 2 4 4 2 -6 -4 -1 -1 2 4 5 5 5 5 5 5 5 4 5 5 5 5 5 5 5 3 2 0 -0 -1 -2 -2 -3 -5 -7 -8 -8 -8 -5 -5 -6 -9 -9 -6 -6

GFSSGP_850_dewp_048.txt.gz
Dewpoint
-12 -12 -6 -4 -5 -5 -3 -2 9 11 10 13 13 13 14 14 14 13 14 14 10 9 12 13 12 12 12 9 6 9 9 5 -6 -9 -15 -14 -13 -11 -8 -7 -7 -10 -10 -10 -9 -6 3 2 3
-12 -12 -2 -3 -9 -6 -6 -2 8 10 10 11 12 13 13 14 14 15 14 14 8 8 12 13 13 12 11 7 9 10 7 -3 -8 -14 -13 -13 -10 -7 -7 -8 -10 -9 -7 -6 -5 -4 1 0 3
-11 -13 -6 -7 -9 -8 -7 6 10 9 8 8 9 11 12 14 14 14 14 13 7 12 14 14 12 12 8 9 10 9 -0 -6 -11 -13 -12 -10 -7 -8 -8 -9 -9 -6 -5 -3 -2 -2 -3 -2 2
-8 -8 -9 -10 -8 -8 -8 -6 7 7 7 7 10 10 10 12 13 14 14 13 8 12 12 12 11 8 9 11 10 2 -5 -8 -14 -11 -9 -7 -8 -9 -9 -8 -6 -5 -4 -3 -2 -2 -2 -2 -2
-5 -6 -9 -10 -10 -0 9 10 8 9 7 7 7 9 11 14 14 14 14 12 11 12 12 11 9 9 11 10 5 -2 -6 -12 -10 -9 -6 -7 -8 -8 -7 -6 -4 -4 -3 -3 -2 -2 -1 0 -0
-5 -9 -8 -7 -8 5 8 9 9 10 9 7 7 8 11 14 14 14 14 13 13 13 12 10 11 11 10 5 -1 -4 -8 -11 -8 -6 -5 -8 -8 -7 -6 -4 -3 -3 -3 -2 -2 -1 0 2 1
-5 -7 -7 -8 -8 -6 9 9 10 10 9 8 8 10 12 14 14 14 13 12 10 12 12 12 11 9 5 1 -3 -6 -10 -7 -5 -5 -7 -7 -7 -6 -5 -4 -3 -2 -2 -2 -1 -0 2 3 3
-7 -10 -9 -9 -9 3 8 7 7 6 8 7 8 10 12 12 13 13 12 11 12 11 10 9 6 3 4 -0 -4 -7 -6 -4 -4 -5 -7 -7 -6 -5 -5 -3 -2 -2 -1 0 2 3 4 4 4
-7 -7 -7 -8 2 7 8 8 8 7 4 9 10 10 11 12 11 13 12 12 10 10 8 7 6 5 4 -2 -4 -6 -2 -3 -4 -5 -6 -6 -5 -3 -3 -3 -1 1 1 4 4 5 5 5 5
-9 -8 -8 -10 3 7 7 7 7 7 7 10 12 12 11 11 10 11 11 11 10 9 7 6 7 7 0 -3 -5 -3 -2 -3 -2 -1 -2 -1 3 3 7 6 7 6 6 6 5 5 5 5 5
-9 -8 -10 -9 -0 4 5 4 5 5 7 8 12 12 12 11 10 9 9 7 7 8 8 9 6 5 -0 -3 -3 1 1 5 4 6 7 5 7 7 8 8 7 7 6 6 6 6 5 5 5
-11 -11 -11 -9 3 4 4 4 4 4 3 10 10 9 10 11 9 8 6 5 6 9 10 7 7 2 -1 -3 -0 0 1 7 7 8 9 8 9 9 9 8 7 7 6 6 6 6 5 5 0
-8 -8 -10 -4 4 4 4 4 4 4 5 9 6 8 8 10 10 7 7 4 7 8 8 8 6 -1 -2 -1 3 5 7 4 3 9 9 10 9 8 9 8 8 7 7 6 6 5 3 -1 -3
-3 -4 -6 2 4 2 3 3 2 4 8 8 6 9 8 10 9 9 8 5 8 9 9 11 8 4 -2 5 7 8 7 5 5 5 8 9 8 9 8 8 8 7 7 6 6 1 -1 -5 -12
-3 -8 -7 1 3 4 2 4 4 4 5 9 9 8 10 11 11 10 7 8 10 10 10 9 6 6 7 8 9 9 7 9 9 9 7 7 8 9 8 8 8 7 7 6 0 -1 -4 -12 -14
-2 -8 -5 -5 -0 2 0 2 1 2 4 5 5 8 10 10 10 10 9 10 10 10 9 8 7 6 7 8 8 9 9 9 9 8 9 8 7 6 7 8 8 7 5 -0 -1 -2 -8 -11 -9
-3 -5 -2 -3 -2 1 -1 -0 1 3 6 10 9 10 10 11 10 10 10 9 9 7 7 8 7 6 9 9 10 10 9 9 8 8 6 4 5 6 7 8 5 1 -1 -1 -1 -4 -10 -10 -9
-1 -4 -5 -4 -3 1 1 -1 -2 7 10 10 10 10 10 10 9 9 9 9 8 6 2 -4 3 6 10 10 9 9 9 8 6 4 4 5 5 5 4 2 -0 -1 -0 -0 -1 -7 -10 -8 -10
-2 -4 -3 -4 -6 1 2 -1 -2 7 9 8 9 7 6 8 7 8 8 7 7 7 4 -3 0 6 8 9 8 8 7 7 6 6 5 5 5 2 -0 -1 -1 -0 0 -1 -4 -7 -6 -11 -12
-2 -1 -0 -4 -4 -3 -2 -2 -2 5 7 7 7 6 5 6 7 8 7 7 7 6 7 5 4 4 6 7 6 7 7 7 8 7 6 5 3 0 -1 -0 -0 0 -0 -3 -4 -5 -7 -10 -9
-0 0 -0 0 -1 -6 -7 -7 -4 -3 3 5 6 6 4 4 6 7 7 6 7 7 7 8 8 7 7 9 8 7 7 7 6 6 5 4 1 0 0 1 1 -1 -2 -3 -4 -5 -5 -3 -3
2 -1 -0 -1 -1 -1 -4 -4 -1 -4 -1 2 3 3 4 2 5 6 6 6 7 7 8 9 9 9 9 8 7 7 8 5 5 5 4 1 0 2 3 2 0 -1 -2 -3 -4 -3 -2 -2 -7
1 -1 -0 -0 1 2 1 0 -2 -4 -2 2 2 1 2 2 3 5 6 6 7 7 8 9 10 10 9 8 8 8 7 5 4 1 2 3 3 3 2 1 -1 -1 -2 -2 -2 -2 -2 -6 -18
-0 -2 3 4 4 4 2 1 -0 -1 -3 -3 1 1 1 1 2 4 4 6 8 9 9 9 10 10 9 9 8 7 5 3 2 3 3 4 4 3 2 1 1 -1 -2 -2 -2 -5 -15 -23 -20
-1 2 5 5 6 5 3 2 1 -0 -2 -2 -1 1 1 2 2 4 5 7 7 8 9 9 10 9 9 9 8 5 4 3 4 4 4 4 4 3 2 0 -1 -2 -2 -3 -8 -17 -24 -20 -13
2 1 4 4 8 5 3 4 2 -1 -1 -2 -2 -2 0 3 3 4 5 7 7 7 10 10 10 8 7 8 8 5 5 4 5 4 4 4 3 2 -1 1 1 -2 -5 -10 -18 -23 -21 -12 -6
1 3 1 6 6 7 4 -2 -0 0 0 1 0 0 1 2 4 6 6 7 8 9 10 10 10 9 8 8 7 5 5 5 4 4 4 3 2 2 1 1 -2 -2 -7 -18 -22 -21 -13 -7 -6
-0 -1 3 4 4 4 1 0 4 2 2 2 3 2 5 5 6 6 7 8 9 9 9 9 8 8 8 9 5 5 5 5 4 4 2 1 2 1 -1 1 -3 -5 -14 -20 -20 -11 -7 -8 -12
0 -0 -0 1 3 4 5 1 -4 1 2 3 3 3 6 7 8 8 8 9 9 9 9 7 7 8 9 8 5 5 5 5 3 1 -0 0 -0 1 0 -2 -5 -9 -13 -16 -14 -8 -5 -9 -10
2 2 2 4 0 3 4 1 -4 -1 -0 2 2 4 5 5 6 6 6 7 8 8 8 8 8 6 6 6 6 5 5 4 1 1 2 1 -0 1 -3 -4 -6 -7 -14 -12 -9 -6 -5 -6 -8

GFSSGP_850_dewp_051.txt.gz
Dewpoint
-10 -11 -6 -4 -5 -5 -3 -3 -0 11 10 13 13 13 14 14 13 12 14 12 10 11 15 14 12 11 11 9 5 7 7 -2 -9 -14 -15 -14 -10 -8 -8 -10 -11 -9 -5 2 1 3 3 2 3
-10 -12 -3 -5 -8 -6 -6 -7 0 5 11 12 12 12 13 14 14 14 14 13 11 12 14 14 12 11 11 6 7 9 4 -7 -13 -14 -13 -10 -8 -9 -10 -10 -8 -6 -3 0 0 2 3 3 2
-8 -13 -5 -7 -9 -8 -8 -4 9 9 12 9 11 12 12 13 14 14 14 14 13 13 14 14 12 12 9 6 9 7 -4 -9 -13 -13 -10 -7 -9 -10 -10 -7 -5 -3 -3 -2 -1 -0 1 3 3
-7 -8 -9 -9 -8 -9 -8 8 4 8 7 8 9 10 13 13 14 14 14 13 13 13 14 13 13 12 7 9 9 0 -6 -12 -12 -10 -7 -9 -9 -9 -7 -5 -4 -3 -2 -2 -2 -2 -1 0 1
-6 -6 -7 -10 -10 -4 9 10 9 9 9 8 8 9 12 14 14 14 14 13 13 13 14 13 13 8 9 10 4 -5 -9 -12 -10 -7 -8 -9 -9 -7 -5 -4 -3 -3 -2 -2 -2 -1 1 1 1
-5 -9 -8 -7 -8 -0 9 9 9 9 7 7 9 9 12 13 13 14 14 13 13 13 14 13 11 10 10 5 -3 -7 -13 -11 -8 -6 -8 -8 -7 -5 -4 -3 -3 -3 -2 -2 -1 0 1 2 3
-6 -6 -7 -8 -8 -9 8 8 9 9 7 6 4 10 12 13 12 13 13 13 12 11 12 11 12 10 3 -2 -5 -9 -12 -8 -5 -7 -8 -7 -6 -4 -3 -3 -2 -2 -2 -2 -0 1 2 3 3
-6 -9 -8 -9 -9 -5 7 8 8 8 8 5 8 11 11 12 12 12 12 11 9 9 11 11 9 4 1 -2 -5 -10 -7 -4 -5 -7 -7 -6 -5 -3 -3 -2 -2 -2 -1 0 2 3 4 4 4
-7 -6 -6 -7 -6 -0 8 8 7 6 8 9 11 10 11 12 12 11 12 11 10 11 10 9 6 4 2 -2 -6 -8 -4 -2 -5 -6 -6 -5 -4 -3 -2 -1 -1 -2 -2 2 4 4 5 5 5
-8 -7 -8 -9 -7 5 8 7 6 6 11 11 12 11 11 12 12 12 12 11 9 7 7 6 3 2 -1 -5 -6 -4 -1 -3 -5 -5 -4 2 2 0 -1 -1 -0 1 3 4 5 5 5 5 5
-9 -8 -10 -10 -6 4 6 5 6 6 8 11 11 12 11 12 11 11 11 10 9 8 7 8 7 2 -1 -1 -3 0 -1 -1 -1 4 7 7 7 7 7 6 6 5 5 5 6 6 5 5 4
-11 -11 -11 -11 1 4 5 4 4 5 5 9 11 12 12 11 9 8 10 10 10 6 5 4 3 4 4 -1 -2 1 -1 5 8 7 7 7 7 8 8 8 6 6 6 6 6 6 5 4 -1
-9 -7 -5 -7 3 3 4 5 4 8 11 11 12 11 11 9 8 5 7 8 8 4 7 7 6 6 2 -2 2 2 7 8 8 9 8 7 8 7 8 8 7 7 7 6 6 6 3 -1 -6
-4 -3 2 4 4 4 3 4 3 10 11 10 9 11 9 9 8 7 7 6 7 7 8 6 6 3 -2 -2 3 3 6 7 8 9 9 8 8 8 8 8 7 7 7 6 6 4 -1 -4 -12
-3 -7 1 3 3 3 2 2 4 10 10 9 10 11 10 7 7 5 6 4 4 6 6 5 5 0 -1 2 4 6 5 6 6 6 8 7 8 9 9 8 8 7 7 6 4 -1 -3 -9 -13
-2 -8 -0 0 3 3 -1 1 4 9 9 10 11 11 11 9 9 8 7 4 7 8 7 8 7 3 -1 4 8 8 7 8 8 9 8 8 9 9 9 8 8 8 7 3 -1 -2 -4 -11 -12
-2 -6 -3 -2 0 2 1 -1 2 7 9 9 9 10 11 9 10 8 7 5 6 7 8 10 8 3 0 7 9 9 9 8 9 9 9 9 8 8 8 8 8 8 2 -1 -1 -2 -8 -10 -13
0 -2 -5 -4 -3 1 2 -1 4 5 6 7 8 8 11 10 10 10 8 7 9 9 10 10 7 6 7 8 9 9 9 9 10 9 8 5 5 6 8 8 6 1 -1 -1 -1 -4 -8 -9 -12
-0 -2 -3 -4 -5 -1 1 0 -2 7 9 9 10 10 10 10 9 10 9 9 10 10 10 9 8 7 6 7 8 9 10 10 9 7 4 4 5 6 6 3 -0 -1 -1 -1 -2 -5 -7 -8 -7
-1 -1 -1 -2 -3 -2 -0 1 -2 6 9 9 9 10 10 10 10 10 10 10 9 9 9 8 8 7 5 8 9 10 9 9 8 6 5 6 5 5 2 0 -1 -0 -0 -1 -2 -4 -5 -6 -6
-1 -0 -0 -0 -2 -4 -4 -2 -2 4 8 9 9 9 9 9 10 10 10 9 9 8 7 6 2 1 2 7 9 9 9 8 7 7 7 6 5 4 1 0 1 1 -0 -1 -2 -3 -3 -3 -3
1 -1 -0 0 -1 -3 -5 -3 -3 -1 5 7 8 7 7 7 9 8 8 9 8 7 7 6 4 1 3 6 9 9 8 8 7 7 7 5 5 2 1 2 1 1 -0 -1 -2 -2 -2 -2 -5
1 -1 0 -0 1 1 1 1 -2 -3 3 4 6 6 5 5 6 7 7 6 6 7 7 6 6 6 7 8 9 9 9 7 7 6 5 5 3 2 3 2 1 1 1 -1 -2 -1 -2 -5 -16
-1 -1 2 3 3 3 1 1 1 -1 -3 -2 3 5 5 4 5 6 6 7 7 7 7 7 7 8 9 9 9 8 8 7 7 5 5 3 3 3 3 2 1 0 -0 -1 -2 -3 -7 -17 -22
-1 1 3 5 5 5 2 3 1 -1 -2 -4 -1 2 4 4 3 5 6 7 7 6 7 7 8 8 9 10 9 9 8 7 6 4 2 3 4 4 3 2 1 2 -1 0 -5 -6 -14 -21 -18
2 1 4 3 6 4 3 5 1 -1 -1 -2 -2 0 2 2 2 3 5 5 6 6 7 7 8 8 8 9 10 9 7 5 4 3 4 4 4 4 3 2 3 1 1 -3 -0 -5 -18 -15 -12
2 3 0 5 5 6 3 0 -2 -0 0 1 -0 -0 2 1 1 1 3 4 5 6 7 7 8 8 9 9 9 8 7 5 5 4 5 5 4 4 3 3 2 1 -0 -3 -10 -16 -12 -11 -9
-0 -0 2 3 3 5 1 0 2 1 0 1 2 1 -0 1 3 3 2 3 4 5 6 7 8 9 9 8 7 8 8 7 6 5 5 5 5 4 3 3 2 -2 -4 -7 -14 -13 -10 -10 -11
0 0 -0 1 2 3 4 2 -5 1 0 1 1 2 3 3 4 4 4 4 4 6 7 8 8 9 9 8 9 9 8 7 6 5 4 4 4 2 3 2 0 -3 -6 -8 -15 -15 -12 -10 -7
-0 1 2 4 1 3 3 1 -5 -4 -1 1 1 1 1 4 4 4 5 6 6 7 8 9 9 8 7 8 8 8 7 5 5 4 3 2 2 3 1 0 -2 -4 -6 -13 -17 -13 -10 -6 -5

GFSSGP_850_dewp_057.txt.gz
Dewpoint
-11 -13 -7 -5 -6 -5 -6 -6 -6 -3 3 12 13 12 12 14 13 13 13 13 14 13 14 11 7 7 6 6 6 6 3 -6 -12 -17 -19 -14 -9 -7 -8 -7 -3 1 2 4 5 5 2 1 1
-11 -9 -3 -6 -7 -7 -10 -7 -4 4 8 10 11 11 11 12 14 13 13 14 13 14 14 12 8 7 7 7 6 4 -4 -13 -18 -18 -12 -8 -8 -8 -6 -3 0 1 0 0 0 -0 1 2 2
-11 -8 -4 -6 -8 -9 -8 -10 0 8 10 10 11 11 11 13 13 13 13 13 14 14 14 12 11 8 8 7 6 1 -10 -17 -17 -12 -8 -9 -9 -6 -2 0 1 0 -1 -2 -2 -1 0 2 1
-9 -9 -10 -7 -7 -9 -10 -9 9 8 8 8 10 11 13 13 13 12 13 13 14 14 13 12 11 9 8 8 4 -6 -15 -16 -13 -7 -9 -9 -6 -3 -0 0 -1 -2 -2 -3 -2 -0 0 1 1
-8 -8 -7 -8 -9 -11 -7 8 9 8 8 9 9 11 12 12 13 13 14 14 13 14 13 12 12 9 9 7 1 -11 -15 -13 -8 -8 -10 -6 -4 -3 -2 -2 -2 -2 -1 -0 -0 1 1 1 2
-5 -8 -6 -7 -8 -10 3 9 9 8 8 9 10 11 13 13 12 14 13 13 13 13 13 13 13 11 10 -1 -9 -14 -13 -10 -6 -9 -7 -5 -2 -2 -2 -2 -1 -0 1 1 2 2 3 4 4
-5 -6 -6 -7 -7 -8 0 9 9 8 8 7 10 10 12 13 13 13 13 13 13 13 12 11 10 10 7 4 -4 -11 -9 -5 -8 -7 -6 -2 -2 -2 -2 -1 -1 -0 1 2 3 4 4 4 4
-6 -7 -7 -8 -7 -7 5 8 7 9 8 7 9 10 11 12 13 13 13 12 12 12 11 8 8 8 6 5 1 -6 -5 -6 -7 -6 -4 -3 -2 -2 -1 -1 -1 0 2 4 4 5 5 4 3
-8 -5 -5 -6 -7 -5 7 8 8 7 10 10 11 11 11 12 13 12 12 11 11 12 12 10 9 8 7 0 -2 -0 -2 -6 -6 -5 -2 -2 -2 -2 -1 -1 -0 2 3 4 5 5 5 5 4
-7 -5 -6 -8 -9 -6 6 7 6 7 11 11 11 11 12 12 12 12 11 10 9 10 10 9 8 7 3 1 3 3 -1 -6 -7 -3 -2 -2 -2 -1 -1 -1 0 2 4 5 5 5 5 5 2
-8 -6 -8 -9 -9 -6 3 7 5 7 9 10 11 11 12 12 12 11 10 10 8 9 9 8 7 4 3 4 3 -0 -3 -5 -5 -3 -2 -1 -1 -1 -1 0 2 4 5 5 5 6 6 5 0
-7 -8 -8 -10 -9 -2 2 6 6 7 7 6 10 12 12 12 11 10 10 10 10 10 9 4 3 2 2 -1 -4 -4 -3 -6 -5 -3 -2 -2 -1 -0 1 4 5 6 5 6 6 6 6 4 -3
-9 -8 -5 -6 -2 1 4 5 5 9 9 10 11 11 12 11 11 10 10 10 10 7 5 5 5 3 0 -3 -6 -5 -3 -5 -4 -2 -1 -0 2 5 6 7 6 6 6 6 6 6 6 0 -4
-6 -5 -0 3 3 4 4 6 6 10 11 11 12 11 11 11 11 10 9 9 9 7 7 5 3 1 -4 -6 -7 -5 -2 -3 -2 1 6 7 7 7 7 7 7 7 7 7 6 6 4 -3 -6
-3 -2 -1 4 4 4 4 4 4 10 11 11 11 11 10 11 11 9 8 9 7 5 5 3 2 -4 -6 -5 -4 0 -2 -1 4 7 8 8 8 8 8 8 8 7 7 6 6 6 -0 -3 -9
-3 -7 -1 1 3 3 2 4 7 10 11 10 11 10 10 9 9 10 9 9 6 5 6 3 1 2 3 -2 -4 -1 -1 5 7 8 9 8 8 8 7 8 8 8 7 7 6 1 -2 -5 -11
-1 -3 -3 -0 2 3 1 1 6 10 11 10 10 10 10 10 10 8 6 7 4 5 5 5 3 4 5 0 -2 2 1 4 8 9 8 7 7 7 8 8 8 8 7 7 4 -1 -2 -5 -10
1 1 -1 -2 -2 2 3 3 7 10 11 10 9 9 9 10 9 8 7 6 6 4 5 8 7 5 4 0 -1 2 3 7 8 7 8 8 8 8 9 9 8 7 7 7 0 -1 -2 -6 -6
-1 -0 -1 -3 -4 2 3 2 3 10 10 10 9 9 8 6 8 8 8 7 6 6 6 8 6 6 5 1 -0 2 4 3 5 8 7 8 9 9 8 8 7 7 7 3 -1 -1 -2 -3 -3
-0 -0 -0 -2 -2 -2 -2 -2 -1 8 10 9 8 8 7 7 7 8 8 8 7 5 4 7 7 7 7 4 -1 -0 2 6 8 9 9 8 9 8 7 7 7 8 5 -0 -0 -1 -2 -2 -2
-0 0 0 0 -1 -4 -4 -4 -1 4 7 8 8 8 8 7 8 8 8 8 8 6 4 5 6 7 9 8 3 -1 5 8 9 9 8 8 8 6 6 7 7 5 0 -0 -0 -0 -1 -1 -2
0 -1 -0 1 1 0 -3 1 -2 -2 6 7 7 8 8 9 6 7 8 8 7 6 6 6 7 8 8 9 7 3 4 6 7 6 7 8 7 6 6 7 5 1 -0 1 -0 -0 -1 -1 -4
0 -0 1 1 1 1 0 1 -1 -3 -1 4 7 8 9 8 6 5 7 7 7 7 7 7 7 8 9 9 9 7 7 7 7 7 9 8 6 6 6 5 2 1 0 1 -0 -0 -1 -2 -0
-0 1 1 1 2 4 1 1 0 -2 -2 -2 1 6 9 7 5 5 6 7 7 7 6 7 7 7 8 8 8 8 7 7 7 8 9 9 7 6 6 4 2 1 1 1 -0 1 1 -0 -0
-1 1 4 5 6 4 2 2 1 -2 -3 -2 -2 1 6 7 6 5 6 6 7 7 7 7 6 7 7 8 8 8 7 7 9 10 10 8 8 7 6 4 3 2 1 -0 -0 1 2 -1 -2
1 1 5 3 4 2 1 3 -1 -1 -2 -1 -0 -1 -1 3 5 6 4 4 6 7 7 7 6 6 7 7 8 7 6 7 7 9 10 9 8 7 5 4 3 2 1 0 1 3 2 -4 -10
2 2 0 5 5 6 2 0 -4 -3 -2 -0 1 -1 -1 -2 4 5 7 6 6 6 5 5 6 6 7 7 8 7 7 8 7 8 9 8 7 6 5 4 3 2 1 1 2 3 -2 -4 -8
1 0 3 3 5 5 1 0 -2 -2 -1 -0 -1 1 -0 1 0 2 4 6 7 6 6 6 6 6 7 7 8 7 8 8 9 9 9 8 7 6 5 4 3 2 1 3 2 -1 -5 -2 -12
2 2 1 1 2 3 3 0 -1 -3 -2 0 0 -0 0 -1 -0 1 2 2 4 5 5 5 5 6 7 7 7 8 8 9 10 10 9 8 7 6 5 4 2 1 3 2 0 -3 -2 -8 -10
0 2 2 5 3 3 4 2 -3 -3 -4 -3 -2 -2 -0 0 -0 0 1 2 2 2 2 2 4 5 6 7 8 8 9 10 9 7 7 8 8 6 5 4 2 2 2 1 0 -1 -5 -8 -9

GFSSGP_850_dewp_060.txt.gz
Dewpoint
-8 -12 -9 -5 -8 -10 -8 -10 -10 -9 1 6 9 4 6 9 10 11 14 14 14 14 14 10 9 12 12 12 12 11 8 6 2 -6 -14 -18 -13 -10 -8 -3 1 5 5 4 3 -0 -2 -1 -0
-10 -10 -3 -7 -8 -8 -10 -11 -10 -4 3 10 11 10 9 8 12 13 14 13 14 14 14 13 8 9 11 11 8 6 6 -1 -9 -17 -17 -12 -9 -8 -5 0 2 3 3 1 -1 -1 -1 0 -0
-10 -11 -6 -8 -9 -9 -9 -10 -8 3 7 9 10 11 9 8 11 13 14 13 14 14 14 11 8 6 6 6 7 5 -3 -11 -17 -16 -11 -9 -8 -6 -2 0 1 1 -0 -1 0 1 1 -0 -1
-6 -10 -9 -9 -9 -10 -13 -12 -1 1 6 8 9 9 11 10 8 13 13 13 13 14 14 12 8 7 7 7 5 -3 -12 -17 -16 -12 -9 -9 -7 -2 -1 -0 -1 -1 -0 0 1 1 -0 -0 -0
-8 -11 -11 -9 -9 -13 -13 -6 1 4 7 7 8 10 12 13 10 12 13 14 14 14 14 12 9 9 8 5 -3 -11 -16 -14 -10 -9 -10 -8 -3 -1 -0 -1 -1 -1 -0 0 -0 1 1 2 1
-8 -9 -10 -9 -10 -13 -11 1 5 6 8 8 9 10 13 13 13 14 14 13 12 11 12 13 12 10 10 6 2 1 -6 -7 -8 -9 -7 -4 -1 -1 -2 -2 -1 -0 0 1 2 3 3 3 2
-7 -7 -8 -9 -11 -9 -6 5 6 7 7 7 8 8 13 12 13 13 14 13 13 11 12 13 12 11 9 6 5 4 4 -4 -7 -7 -3 -3 -2 -2 -2 -1 0 1 2 3 3 4 4 3 1
-9 -9 -8 -10 -10 -5 -2 5 7 7 6 8 9 8 11 13 13 13 13 13 13 13 13 12 11 9 7 6 4 3 3 -5 -7 -2 -2 -2 -2 -2 -1 -0 1 2 3 3 4 5 5 3 -1
-8 -9 -8 -8 -8 -4 1 2 8 8 7 9 10 10 12 12 13 13 12 12 12 9 9 11 10 8 7 8 7 3 -0 -6 -3 -2 -2 -1 -1 -0 2 3 1 2 3 4 5 5 5 4 -2
-8 -7 -9 -10 -10 -8 -6 2 4 7 7 8 11 12 12 12 12 12 12 12 11 11 9 8 8 8 8 8 5 2 0 -2 -2 -2 -1 2 -0 6 3 1 2 4 4 5 5 5 5 3 -1
-7 -8 -9 -8 -8 -8 -7 -1 1 4 4 6 10 11 11 11 11 11 10 10 10 10 10 10 9 9 8 5 3 1 -3 -1 -2 -2 -2 -2 5 0 1 2 4 4 5 5 5 6 6 4 -3
-6 -8 -7 -7 -7 -6 -5 -1 3 4 6 8 10 11 11 11 11 11 10 10 10 10 10 9 8 6 4 1 2 2 2 -2 -1 -1 -2 -1 3 2 5 6 4 5 5 6 6 6 6 3 -4
-5 -7 -6 -4 -0 -2 1 2 4 6 9 11 12 11 11 11 11 10 10 10 9 8 8 7 6 2 1 4 7 6 0 -2 4 -1 -1 -1 -1 -1 1 4 5 6 6 6 6 6 5 1 -4
-5 -5 -4 0 0 2 3 4 5 7 10 11 12 11 11 11 11 11 10 10 9 8 6 5 6 6 7 8 8 5 6 6 -2 -2 -2 -2 -1 0 4 6 6 6 6 6 6 6 5 -2 -4
-4 -3 -4 1 1 3 3 4 3 7 10 11 11 11 11 11 10 10 9 10 9 7 7 7 7 7 8 7 6 6 -1 -2 4 -1 -2 1 4 6 7 7 7 7 7 7 7 6 5 -2 -4
-4 -4 -4 1 2 3 3 1 2 8 9 9 11 10 11 11 10 9 10 9 8 7 8 8 7 8 8 8 5 7 3 -2 2 2 5 7 8 7 8 8 8 8 7 7 6 5 1 -2 -4
-5 -4 -5 1 2 2 3 0 4 8 8 7 8 9 10 10 10 9 9 9 7 7 7 7 6 6 8 4 -0 -1 -0 0 7 9 9 8 8 8 7 7 8 8 7 7 6 5 -1 -1 -2
-6 -3 -5 -5 -0 2 1 -1 2 8 8 7 6 7 9 9 9 10 9 9 7 7 8 8 7 8 5 5 -0 -2 2 4 8 8 9 9 9 7 7 7 8 8 7 6 6 3 -1 -1 -0
-3 -3 -4 -4 -4 1 -1 -2 -4 5 8 7 6 6 7 8 9 10 9 9 8 7 8 9 9 9 10 9 4 6 6 7 7 9 8 8 6 7 7 8 8 8 6 6 6 1 -1 1 -1
-1 -3 -4 -3 -3 -2 -3 -3 -4 0 7 7 6 6 6 7 8 9 10 9 9 8 8 9 10 10 8 8 6 5 3 7 8 8 6 7 8 7 8 9 8 7 5 7 5 -1 1 1 -0
-1 -1 -2 -2 -2 -3 -3 -4 -3 1 5 7 8 7 5 5 6 8 10 10 10 9 9 9 10 10 9 10 8 7 7 8 6 7 5 7 7 8 9 9 8 7 7 6 1 -0 0 2 1
-0 -3 -2 -2 -2 -1 -3 -1 -4 -3 1 4 5 7 6 5 6 7 9 9 10 10 10 9 10 10 10 9 9 8 6 6 7 7 6 7 7 8 9 7 7 7 6 4 0 0 1 0 -0
-2 -2 -1 -1 -1 0 -1 -1 -4 -3 -3 -0 3 4 6 6 5 6 8 9 9 10 10 10 10 10 10 10 10 9 7 6 8 9 7 8 8 9 8 7 7 7 6 2 -0 0 -0 -0 -0
-2 -0 0 1 1 2 -1 -1 -3 -5 -5 -4 -4 1 3 5 7 6 6 8 9 10 10 8 8 10 10 9 8 9 10 9 9 7 7 8 9 9 8 7 7 6 3 1 0 0 0 -0 2
-0 0 3 4 4 2 0 0 -3 -4 -4 -3 -2 -2 -0 3 6 7 6 7 8 10 11 9 8 10 9 9 8 8 9 9 7 6 7 8 9 9 8 7 6 5 2 1 0 0 -0 1 2
0 -0 2 3 3 1 0 -1 -4 -3 -4 -2 -0 0 0 0 5 6 7 7 8 9 10 8 6 8 10 8 7 8 8 7 6 5 7 8 9 10 8 8 6 4 3 1 0 -0 0 2 2
1 2 -0 3 5 5 -1 -2 -5 -5 -4 -1 -2 -1 0 -0 3 5 6 7 9 9 10 9 8 9 10 9 10 9 7 7 5 5 6 9 10 9 8 7 6 5 3 2 0 -0 2 2 -1
1 -1 2 2 4 3 -0 -1 -4 -5 -2 -5 -5 -4 -2 2 2 3 5 6 8 9 10 11 10 10 11 11 10 9 8 7 7 7 9 9 9 9 8 7 6 4 3 3 0 1 2 -1 -0
1 2 1 0 1 3 2 -1 -5 -5 -4 -1 -1 -2 -1 1 3 3 4 5 6 8 9 10 10 10 10 10 10 8 9 9 9 9 9 9 9 9 9 6 5 5 4 2 0 2 0 0 -0
-1 -0 1 2 2 3 3 0 -6 -4 -3 -4 -3 -2 0 2 3 4 4 5 6 8 8 9 9 9 9 10 10 8 9 9 9 9 9 8 9 9 6 6 6 5 3 1 2 1 1 -0 -3

GFSSGP_850_dewp_063.txt.gz
Dewpoint
-5 -5 -6 -7 -8 -9 -9 -11 -12 -11 -10 -1 3 4 -1 -5 7 12 10 14 15 15 14 9 13 14 14 13 12 11 11 11 8 5 -4 -17 -15 -11 -9 -3 4 6 4 5 2 -1 -1 -1 -2
-2 -6 -6 -8 -6 -9 -10 -13 -11 -12 -1 2 4 5 4 2 10 12 9 14 15 15 14 14 13 14 14 13 12 12 12 9 6 -2 -16 -15 -10 -8 -5 1 5 8 4 1 -1 -1 -1 -2 -2
-4 -8 -8 -7 -8 -8 -10 -9 -11 -8 0 3 3 7 7 4 8 12 14 14 15 15 14 13 12 14 13 13 12 12 10 6 -1 -14 -15 -10 -7 -3 0 3 6 9 1 -0 -0 -0 -1 -2 -2
-6 -9 -10 -10 -10 -11 -11 -13 -12 -6 -2 4 4 6 9 13 14 14 14 15 15 15 14 12 12 13 13 13 13 10 7 -0 -13 -13 -8 -7 -3 0 1 3 7 7 -0 0 0 -1 -0 -1 -1
-8 -10 -10 -10 -11 -11 -14 -13 -2 1 0 3 5 5 7 14 12 15 14 15 15 14 14 13 11 14 13 13 10 7 -0 -11 -11 -7 -5 -3 0 1 1 2 2 0 0 0 0 1 1 0 -2
-9 -10 -9 -11 -9 -12 -14 -4 -1 3 4 6 6 6 10 14 13 14 13 14 13 13 12 13 12 12 11 11 9 5 -2 -6 -4 -4 -3 -2 0 -0 -1 -1 -1 -0 0 1 2 3 2 -0 -4
-9 -9 -8 -9 -10 -11 -7 0 2 2 4 4 5 5 12 13 13 13 13 13 13 13 10 8 11 11 9 8 7 6 5 5 4 -2 -2 -1 -1 -1 -1 -1 -0 0 1 3 4 3 2 -2 -5
-9 -10 -10 -11 -10 -7 -3 -1 2 -1 2 7 6 5 8 13 12 13 13 12 13 11 10 11 8 9 9 8 5 4 6 2 -3 -1 -1 -1 -1 -1 -1 0 1 2 3 4 4 4 3 -2 -5
-10 -10 -10 -10 -9 -6 -2 -3 4 5 4 7 8 9 12 11 13 12 12 12 12 11 11 11 11 10 10 8 8 6 3 3 -1 -0 -2 -2 -1 -0 3 1 2 3 4 4 5 5 4 -2 -5
-10 -8 -9 -11 -11 -9 -9 -6 -1 1 -2 6 10 12 12 12 12 12 12 11 11 11 11 11 11 10 7 8 8 6 4 1 -0 -0 0 -1 0 3 4 1 3 4 4 5 5 5 3 1 -1
-10 -9 -10 -10 -9 -8 -8 -7 -4 1 -0 8 7 12 11 11 12 11 10 10 10 11 10 10 9 8 8 8 7 5 5 3 0 0 -2 -1 6 7 1 2 4 4 5 5 5 4 3 2 -2
-8 -11 -11 -10 -8 -8 -7 -5 -3 0 5 7 10 12 11 11 11 11 10 10 10 10 9 9 8 8 8 8 5 4 2 1 -1 -1 -1 3 7 5 2 6 5 5 5 5 5 5 6 2 -4
-8 -10 -10 -9 -7 -4 -4 -4 -2 2 7 11 12 12 12 11 11 11 10 10 10 9 9 9 8 8 8 6 6 4 2 2 4 -1 -1 5 8 8 7 7 7 6 6 6 5 6 6 1 -3
-8 -7 -9 -8 -5 -4 -3 -3 2 5 8 11 11 11 11 11 11 11 10 9 9 9 8 8 8 8 4 2 2 1 2 4 -2 -1 4 9 8 8 8 8 7 6 6 6 5 4 4 -0 -1
-6 -6 -7 -7 -5 -5 -2 -1 6 6 8 10 11 11 11 11 10 10 10 9 9 9 8 8 5 4 5 7 8 7 7 5 7 7 8 9 8 7 8 8 7 7 6 5 4 5 2 0 -2
-6 -7 -5 -4 -5 -3 -2 7 7 5 8 9 9 9 10 8 8 10 9 10 9 8 7 6 5 6 7 7 8 7 6 7 6 7 8 3 5 2 6 8 8 7 6 6 5 4 3 0 -1
-7 -6 -3 0 -5 -3 -2 4 6 2 4 7 7 7 9 8 7 9 10 8 7 7 7 7 7 7 7 7 7 7 7 7 6 7 8 9 3 8 7 8 8 7 7 6 6 4 3 1 -1
-5 -7 -5 -7 -1 -4 -3 -2 2 2 3 4 5 6 7 8 6 7 7 6 6 7 7 7 7 7 7 8 7 7 7 7 5 7 7 9 9 9 8 8 8 7 7 7 6 5 3 1 1
-4 -6 -7 -5 -5 -3 -2 -0 -3 2 2 3 4 4 6 6 6 7 8 7 6 7 7 7 7 7 8 8 7 5 6 6 7 7 9 9 9 9 8 9 8 7 7 6 6 5 4 2 2
-3 -4 -6 -6 -5 -4 -4 -1 -4 -3 2 2 4 3 5 6 6 7 7 8 6 7 7 7 7 7 8 8 7 5 4 5 6 7 9 10 10 9 7 8 8 8 7 6 6 5 4 3 3
-2 -3 -1 -2 -1 -5 -4 -4 -5 -5 0 3 3 3 3 5 6 7 7 8 8 7 7 8 7 8 8 7 7 6 5 5 7 7 8 9 10 8 8 8 9 8 8 6 6 5 4 3 3
-1 -5 -4 -4 -3 -1 -0 2 1 -5 -2 1 3 5 4 3 5 6 8 9 9 8 8 8 8 8 8 9 7 7 5 4 5 7 8 9 8 6 8 8 9 8 8 6 6 5 4 4 3
-2 -2 -3 -3 -1 -0 -1 -3 2 -5 -7 -4 1 4 4 2 3 4 7 8 9 9 9 9 8 8 8 9 9 8 7 6 6 7 8 8 9 9 8 8 8 9 7 6 5 4 4 3 2
-4 -2 -2 -2 -1 4 -1 -1 0 -3 -7 -8 -7 -1 2 3 2 2 4 6 7 8 9 9 9 8 9 9 10 10 9 8 6 6 9 9 10 8 8 8 9 8 7 6 5 4 4 3 1
-2 -1 2 4 7 4 1 -2 -1 -1 -6 -6 -6 -6 -2 1 3 3 3 5 7 7 9 10 10 9 9 10 10 10 10 10 9 9 10 8 8 8 8 8 8 8 7 5 4 4 4 2 -0
-1 -1 3 7 6 7 -1 -2 -3 -6 -7 -6 -4 -3 -2 -1 1 3 4 3 5 7 8 9 10 10 9 10 11 11 11 11 11 10 7 7 5 7 9 8 9 8 6 5 4 4 3 2 -0
-0 1 -1 3 2 2 -1 -4 -7 -7 -8 -6 -5 -4 -2 -1 -1 2 3 5 4 6 8 10 10 10 10 10 11 11 11 12 12 10 8 7 6 7 7 9 9 8 6 4 4 3 2 2 -0
0 -2 2 1 5 5 -1 -3 -3 -5 -4 -7 -7 -6 -5 -1 0 2 3 4 6 6 8 9 11 10 10 10 11 11 11 11 11 11 8 7 6 7 8 9 8 7 6 4 4 3 3 0 2
-0 2 0 2 4 4 2 -2 -4 -6 -6 -5 -5 -6 -5 -3 0 2 3 3 5 7 8 10 11 11 11 11 11 11 11 10 10 10 10 9 8 9 9 8 8 6 5 4 4 3 2 1 2
-3 -1 -1 2 1 1 2 2 -6 -6 -7 -6 -6 -5 -4 -1 -1 2 3 4 5 6 7 9 10 11 11 11 11 11 11 11 10 10 9 9 9 9 8 8 7 6 4 5 4 1 1 1 1

GFSSGP_850_dewp_066.txt.gz
Dewpoint
-7 -6 -5 -4 -6 -7 -7 -10 -13 -12 -10 5 1 4 5 0 4 7 7 5 6 9 14 13 14 14 12 11 10 10 10 9 9 6 -3 -17 -15 -7 9 8 6 6 5 2 -2 -3 -3 -4 -4
-3 1 -4 -7 -5 -4 -8 -11 -9 -10 -5 2 1 -0 0 0 11 10 9 3 6 4 14 13 14 14 13 12 11 11 10 10 7 2 -13 -16 -11 -3 9 6 4 4 2 -2 -2 -2 -3 -3 -4
-7 -4 -8 -6 -5 -6 -8 -10 -10 -11 -9 -3 -3 3 1 9 13 14 15 11 13 12 14 13 13 14 14 12 11 11 10 9 5 -7 -17 -11 -7 1 9 7 3 2 -2 -1 -1 -2 -2 -3 -4
-3 -7 -9 -8 -9 -12 -12 -9 -13 -11 -2 4 3 3 9 14 14 14 14 14 13 14 14 13 13 14 14 13 12 12 10 7 -3 -15 -10 -6 -2 4 8 6 1 -2 -1 -1 -1 -1 -2 -4 -6
-5 -9 -8 -8 -11 -12 -11 -14 -8 2 5 6 6 4 10 7 12 12 13 13 13 14 14 14 14 14 14 13 12 12 8 1 -13 -10 -4 -2 2 5 8 5 -1 -1 -0 0 0 -0 -3 -6 -9
-8 -9 -7 -8 -10 -8 -11 -10 -3 3 2 6 8 8 9 6 13 12 13 14 12 11 13 12 12 11 14 13 13 9 0 -9 -9 -4 6 4 3 5 7 3 -0 0 0 2 1 -2 -5 -7 -9
-8 -9 -8 -10 -10 -11 -3 -3 -2 0 0 7 4 8 11 12 12 11 12 13 13 11 10 10 7 10 10 10 10 7 -3 -8 -6 -2 2 3 1 2 2 0 -0 0 2 3 2 -1 -5 -7 -9
-10 -11 -10 -10 -10 -6 -2 -4 -1 -2 -3 -2 5 9 11 6 11 12 12 12 12 12 11 8 6 7 9 9 7 5 2 -4 -3 1 4 3 1 0 -0 0 0 2 3 4 4 1 -4 -7 -9
-10 -9 -9 -9 -7 -1 -1 -2 -2 1 -2 4 9 13 12 11 12 12 12 12 11 11 10 8 9 8 7 8 8 5 3 3 3 5 4 2 1 1 0 0 1 3 4 4 5 4 -3 -5 -7
-11 -9 -9 -9 -11 -11 -9 -7 -6 1 4 5 1 8 11 11 12 12 12 11 11 11 11 9 8 8 9 9 8 8 5 1 3 4 3 1 -1 -1 1 2 2 3 4 5 5 3 0 -1 -2
-10 -9 -11 -11 -11 -9 -9 -8 -5 -5 5 5 4 8 11 12 11 11 11 11 11 11 11 11 10 9 10 10 8 6 1 6 4 3 1 -1 -1 0 2 2 3 4 5 5 5 4 3 -0 -2
-9 -10 -12 -12 -11 -9 -8 -8 -7 1 5 3 5 12 11 11 11 11 11 11 10 10 10 10 10 10 9 9 7 4 4 7 4 2 0 1 -1 1 3 2 3 4 5 5 5 5 5 -0 -4
-9 -10 -12 -11 -11 -10 -7 -5 -5 6 9 11 12 12 11 11 11 11 11 10 10 10 10 9 9 9 9 8 6 3 7 5 3 1 2 -1 0 3 2 3 3 4 5 5 5 5 5 2 -3
-9 -8 -9 -9 -10 -9 -6 -4 3 6 6 11 11 12 12 12 11 10 10 10 10 9 9 9 9 9 8 7 7 5 7 3 3 3 3 -1 3 4 5 7 6 6 6 6 5 5 5 1 -2
-7 -7 -8 -9 -8 -7 -7 -4 4 5 8 10 11 11 10 11 11 11 10 10 9 9 9 8 8 8 8 7 5 4 5 2 3 7 4 3 6 7 7 7 7 6 6 6 5 4 3 2 -1
-6 -6 -5 -8 -7 -5 -5 -0 4 3 6 8 9 10 10 10 10 10 10 9 9 9 8 8 8 5 4 4 4 4 2 4 7 6 2 0 6 8 8 7 7 7 6 6 5 5 5 1 -1
-6 -5 -7 -6 -5 -4 -1 4 6 2 5 7 7 8 7 9 9 8 9 9 9 8 7 5 4 4 4 6 4 8 5 6 5 4 1 0 5 7 7 8 8 7 7 6 6 6 4 2 -0
-3 -4 -4 -6 -3 -3 -5 7 6 4 6 6 5 7 7 8 10 8 10 8 8 5 2 3 5 7 8 6 8 7 6 3 1 3 6 6 3 3 6 9 8 7 7 7 6 5 5 2 1
-4 -5 -4 -4 -4 -3 -4 -3 4 5 4 5 4 6 7 5 7 9 9 6 6 7 6 6 7 7 7 5 7 7 7 5 5 5 7 8 8 6 7 6 8 8 8 7 7 6 5 4 1
-3 -3 -4 -6 -4 -5 -6 -4 1 3 -0 -0 2 4 5 5 6 7 7 6 7 8 8 8 8 7 7 7 6 6 7 6 5 6 7 9 9 8 9 9 10 8 7 7 7 6 6 5 2
-4 -5 -2 -0 -3 -5 -4 -4 -3 -4 -1 -1 1 2 5 5 5 7 7 7 7 7 8 7 7 7 7 8 6 6 5 5 6 6 7 9 9 7 9 9 9 8 8 7 6 6 6 5 3
-2 -6 -3 -4 -3 -2 -1 2 1 -2 -3 -0 -0 1 2 4 5 6 7 7 7 7 7 7 7 6 7 8 8 7 5 5 6 6 7 7 8 8 8 9 9 9 8 8 7 6 6 5 4
-2 -2 -1 -3 -3 -1 -0 3 1 -2 -3 -3 0 2 3 3 5 6 6 7 7 7 7 7 8 7 7 7 7 7 6 5 4 5 6 8 9 9 9 9 9 9 9 8 8 6 6 5 4
-5 -3 -2 -2 -1 3 -1 1 2 -1 -0 -5 -1 2 4 3 3 5 7 7 8 8 8 7 8 8 8 8 8 8 8 6 5 5 6 7 8 8 7 9 8 6 6 8 8 6 6 5 4
-4 -1 3 5 6 6 -0 1 1 1 -2 -4 -6 1 3 2 2 3 5 7 8 9 9 9 8 8 8 8 9 8 9 9 7 6 7 7 8 5 3 6 7 7 7 9 8 6 5 5 5
-2 -1 4 8 10 9 5 2 -3 -3 -5 -7 -6 -5 -2 1 2 2 2 6 7 8 9 9 9 9 9 8 9 10 9 10 10 8 8 7 8 5 5 6 7 8 7 8 7 6 5 5 5
-1 2 -1 8 8 10 6 1 -5 -6 -8 -8 -6 -4 -3 -3 -0 3 3 2 6 7 8 9 10 10 9 9 8 9 5 10 9 10 10 8 8 8 7 8 8 8 9 8 7 6 5 5 4
-4 -2 3 3 10 6 -2 -2 -1 -4 -5 -6 -7 -5 -4 -1 -1 -1 3 4 3 6 7 8 8 10 10 9 9 9 10 11 11 11 11 9 8 10 9 9 9 9 8 7 6 5 5 4 4
-3 1 3 0 1 6 8 4 2 -2 -5 -5 -4 -6 -5 -3 -0 1 2 3 4 4 6 8 9 9 10 10 10 10 11 11 10 9 8 9 10 9 9 9 8 8 8 7 6 5 4 4 3
-4 -1 2 5 5 5 7 4 1 -0 -6 -5 -6 -5 -5 -4 -2 1 3 3 4 6 6 8 10 10 11 10 10 10 11 10 9 10 10 10 10 9 9 8 8 8 7 6 5 4 4 3 2

GFSSGP_850_dewp_069.txt.gz
Dewpoint
-9 -6 -4 -2 -2 -5 -4 -6 -8 -10 -3 2 3 2 3 3 7 12 10 11 12 11 10 11 14 12 8 7 8 9 7 8 7 3 -11 -16 -12 2 -0 4 6 5 -1 -4 -5 -5 -6 0 6
-8 -1 1 -0 -4 -2 -4 -7 -9 -8 2 3 0 -0 -0 12 12 12 13 9 6 5 7 4 6 12 9 8 9 9 8 8 6 -5 -15 -9 1 1 3 5 4 -0 -4 -4 -5 -5 -5 1 6
-8 -2 -0 -5 -3 -2 -4 -8 -9 2 5 5 4 5 12 11 13 14 13 13 12 5 4 5 6 9 11 9 9 10 9 8 3 -13 -12 7 8 2 4 4 1 -4 -3 -4 -5 -6 -5 2 5
-6 -4 -4 -7 -6 -7 -7 -11 1 2 2 4 3 8 10 7 7 12 11 14 13 13 12 10 12 14 12 10 10 10 9 7 -5 -16 -8 7 9 4 3 1 -3 -3 -3 -5 -6 -7 -6 3 4
-1 -2 -5 -5 -6 -8 -11 -9 -2 2 3 7 1 8 8 7 6 6 9 10 12 12 13 12 13 14 14 12 11 10 9 3 -13 -11 -2 8 8 3 1 -3 -2 -2 -2 -4 -6 -8 -8 2 3
-0 -6 -4 -4 -7 -9 -5 -3 0 3 2 6 4 8 9 7 4 5 9 9 10 12 11 11 11 12 11 8 12 10 7 -4 -14 -6 0 7 7 1 -2 -2 -2 -0 -1 -4 -6 -8 -9 -2 3
-5 -5 -5 -7 -8 -9 -2 -4 1 2 4 7 7 8 10 5 3 7 9 10 10 10 10 11 11 9 8 8 12 9 5 -1 -6 -3 3 8 6 1 -2 -1 -0 1 1 -2 -6 -8 -9 -7 1
-5 -8 -8 -9 -9 -5 -2 -4 -2 -2 6 8 7 11 11 9 8 7 11 12 12 12 12 11 10 10 9 9 8 8 6 5 7 7 5 6 6 2 -1 -0 1 3 3 1 -4 -7 -8 -8 -2
-7 -8 -7 -7 -8 -4 -2 -2 -2 -0 2 4 7 8 9 9 11 12 11 12 12 12 11 11 10 8 8 8 8 7 4 0 3 8 7 6 6 2 0 0 2 4 4 4 -0 -6 -7 -7 -3
-7 -8 -8 -10 -10 -9 -6 -3 -4 1 3 5 11 11 12 11 11 11 11 11 11 11 11 10 9 9 8 8 8 8 3 4 5 5 4 6 2 1 0 2 3 4 4 5 2 -2 -3 -4 -4
-7 -8 -10 -10 -12 -10 -9 -9 3 2 7 9 7 11 11 11 11 11 10 11 11 10 10 10 9 9 9 8 7 7 4 4 5 5 4 2 0 0 1 2 3 4 5 5 4 2 -1 -4 -4
-7 -9 -10 -11 -12 -11 -10 -5 8 7 8 10 8 11 11 11 11 11 11 10 10 11 10 10 10 10 9 8 8 6 7 4 7 4 1 -0 -1 -0 1 1 3 4 5 5 5 5 4 -2 -4
-7 -8 -10 -10 -11 -10 -11 4 7 7 2 2 9 11 10 10 10 11 10 10 10 10 10 10 10 10 10 9 7 3 2 6 5 2 -0 -1 -1 -1 -1 1 3 4 5 5 5 6 5 1 -4
-7 -6 -7 -8 -9 -9 -8 3 4 6 3 2 9 11 10 10 10 10 10 10 10 10 10 10 10 9 9 9 4 1 4 5 3 1 1 1 -0 -2 -1 0 3 4 5 5 5 6 6 4 -3
-4 -3 -6 -7 -7 -8 -8 -0 5 5 4 7 11 11 11 10 9 9 10 10 9 9 9 9 9 9 8 7 3 3 7 6 3 3 5 3 0 -2 -1 -0 2 4 5 6 6 5 5 4 0
-3 -4 -3 -6 -7 -8 -4 1 5 6 8 10 10 10 11 11 10 10 10 10 9 9 9 9 9 8 8 7 4 5 6 6 3 4 3 -0 -1 -0 3 3 5 6 6 6 5 5 5 4 1
-2 -1 -3 -5 -8 -5 -3 5 5 4 7 8 10 10 10 11 11 10 10 9 9 9 9 8 8 8 8 6 3 6 4 2 6 5 1 1 0 1 5 5 6 6 7 6 6 5 5 4 1
0 -0 -3 -4 -4 -3 1 4 5 4 5 6 9 9 9 10 8 8 9 9 8 8 8 8 6 5 3 3 4 4 6 4 2 -1 -1 -0 -0 -1 3 4 7 6 7 7 6 6 5 4 2
-2 -2 -3 -4 -4 -2 -1 3 5 4 6 7 6 8 9 9 8 7 6 7 8 8 7 4 3 3 3 3 3 1 2 4 3 2 0 1 1 -1 0 3 5 8 8 7 7 7 6 4 2
-2 -1 -2 -3 -3 -4 -5 -4 5 5 5 5 8 8 9 9 9 9 5 5 4 4 4 5 4 5 4 2 6 8 7 6 5 3 4 0 -0 5 3 1 4 7 8 8 8 7 6 5 5
-2 -2 -2 -1 -2 -3 -3 -2 5 3 3 4 6 7 7 9 9 8 6 5 3 3 3 5 6 7 7 7 8 7 6 5 3 2 3 4 5 8 8 8 7 8 8 8 8 7 6 5 5
-2 -3 -3 -0 0 1 -2 2 0 -1 2 2 4 6 6 9 8 8 7 6 6 7 6 6 7 7 8 6 5 3 5 5 4 1 4 6 7 8 8 8 7 7 6 7 8 7 7 6 6
-2 -1 -1 0 0 -0 -0 4 5 2 0 1 1 6 6 7 7 8 7 6 6 7 8 7 8 8 7 6 7 4 5 5 5 5 5 6 8 8 7 8 8 8 8 9 8 8 7 6 7
-4 -2 -1 -1 1 3 1 6 6 2 -1 -0 0 4 5 6 7 7 7 7 6 7 7 6 7 6 5 4 8 8 7 7 6 6 6 6 7 7 7 7 7 6 5 7 9 8 8 8 7
-3 -1 4 6 6 5 4 6 3 2 -0 -1 -1 3 2 5 6 7 7 7 7 7 7 7 6 7 7 7 7 7 8 7 6 5 5 6 7 8 7 7 7 7 7 9 8 8 8 8 7
-1 -0 5 7 8 9 6 6 0 -1 -2 -4 -3 2 3 2 4 6 6 7 7 7 7 7 7 7 8 7 7 7 7 7 7 7 5 5 5 6 6 7 8 7 9 8 8 8 8 7 6
1 2 1 9 8 10 9 4 -2 -2 -4 -5 -5 1 3 4 3 5 6 6 7 7 8 8 7 7 8 8 8 8 9 8 8 8 6 6 6 6 7 8 7 7 8 8 8 8 8 7 5
-2 -1 4 8 11 12 7 6 2 3 0 -5 -6 -5 -2 1 3 3 5 6 7 7 7 8 8 8 8 8 8 7 8 9 9 8 8 8 8 8 9 9 8 8 9 8 8 8 7 6 5
-1 -1 2 6 7 8 7 6 2 1 0 -5 -3 -4 -2 -2 -1 1 3 3 5 6 7 7 8 8 8 8 8 9 8 9 10 9 10 9 10 8 8 10 9 9 8 9 8 7 7 5 5
-3 -1 3 7 6 7 7 6 -1 -0 -3 -3 -4 -5 -4 -2 -2 -2 1 3 5 6 6 7 7 8 8 8 9 9 9 9 9 10 10 6 8 10 9 9 9 9 8 8 8 7 5 5 4

GFSSGP_850_dewp_072.txt.gz
Dewpoint
-9 -6 -3 -2 -4 -5 -4 -5 -7 -7 -7 3 2 5 13 13 13 12 13 12 12 14 14 12 11 9 5 8 7 5 5 6 6 1 -9 -11 -11 -7 -2 4 4 1 -5 -6 -6 -0 5 6 8
-7 -3 1 0 -3 -2 -3 -6 -6 -1 3 3 3 8 11 13 13 13 12 13 11 12 13 12 12 10 8 8 10 6 5 7 5 -6 -14 -13 -5 -5 2 5 2 -5 -6 -6 -5 3 5 6 6
-7 -2 -0 -2 -3 -2 -3 -6 -8 5 2 2 3 8 9 7 11 11 8 7 8 9 10 12 12 10 7 6 10 7 6 8 0 -13 -10 -1 -2 1 4 2 -5 -5 -6 -6 -3 4 6 6 5
-7 -4 -4 -6 -5 -7 -6 -8 -8 4 5 2 4 8 8 6 7 8 9 10 10 3 8 9 9 10 7 8 9 10 7 7 -8 6 5 -1 2 3 2 -5 -5 -5 -6 -7 -2 5 5 5 5
-2 -2 -4 -5 -5 -7 -8 -9 -10 1 5 5 3 8 7 6 5 6 8 10 11 10 8 8 10 9 11 10 12 11 8 2 -9 -7 -0 2 3 2 -4 -4 -4 -6 -7 -8 0 4 4 4 5
-2 -4 -4 -3 -4 -7 -9 -4 1 2 5 5 6 8 8 4 4 4 9 10 10 11 11 10 12 11 9 10 9 11 7 -4 6 3 6 3 3 -1 -3 -2 -4 -6 -8 -9 -2 3 3 4 5
-2 -5 -4 -5 -5 -8 -4 -3 1 2 5 8 5 8 5 5 6 8 12 10 12 13 13 11 12 11 9 8 11 11 8 6 5 9 9 5 2 -2 -2 -1 -3 -6 -8 -9 -7 2 3 3 4
-4 -5 -4 -5 -5 -8 -9 -3 -1 1 8 8 8 11 7 3 7 8 11 12 12 12 13 12 11 9 10 8 8 9 8 9 9 9 10 5 0 -1 -1 0 -1 -3 -7 -8 -9 -4 2 3 2
-5 -5 -4 -5 -8 -9 -9 -3 2 5 4 8 8 8 8 8 8 9 11 12 11 11 11 11 10 9 9 7 8 7 6 7 9 10 9 5 0 -0 1 2 2 1 -4 -7 -8 -8 -2 2 1
-6 -6 -5 -8 -10 -8 -7 -2 -1 6 8 8 10 9 9 9 10 11 11 11 11 11 11 11 9 7 8 9 8 8 6 6 6 8 8 6 1 0 2 3 3 4 1 -5 -7 -7 -4 -2 -1
-6 -4 -6 -7 -8 -11 -9 4 3 7 9 8 7 10 11 11 10 11 11 11 10 10 10 10 9 8 8 8 7 8 7 6 6 5 4 3 1 0 2 3 4 4 4 1 -2 -3 -5 -4 -5
-7 -8 -8 -8 -8 -11 -10 4 6 6 6 6 5 8 11 10 11 11 10 10 10 10 10 10 9 9 8 8 7 7 7 5 6 6 4 0 0 1 2 3 4 4 4 4 4 3 -3 -4 -4
-7 -8 -8 -7 -6 -9 -7 5 7 7 6 9 10 11 11 11 11 10 10 10 10 10 10 9 9 9 8 7 8 7 6 8 6 3 3 1 1 1 2 3 4 4 4 5 5 5 3 -4 -4
-8 -5 -4 -4 -6 -8 -4 6 5 4 5 9 11 10 10 10 10 10 10 10 10 10 10 10 10 8 8 7 6 3 5 3 3 5 3 1 0 1 2 2 3 3 4 5 5 5 5 1 -3
-4 -3 -4 -5 -6 -6 -3 1 5 3 5 9 9 10 10 10 9 9 9 10 10 10 9 9 10 10 9 7 6 5 7 4 5 2 2 2 1 -0 0 -1 2 3 4 5 5 5 5 4 -1
-3 -3 -2 -5 -6 -7 -7 -3 4 4 5 10 10 10 8 9 9 9 9 10 10 9 9 9 9 10 9 8 5 4 6 5 2 1 2 4 2 0 -1 -1 -0 3 5 5 5 5 5 5 4
-2 -1 -1 -2 -4 -5 -5 -1 4 7 8 10 10 9 7 10 10 10 9 9 9 9 9 9 9 9 9 6 3 6 6 5 1 1 3 4 3 2 -1 -1 1 4 5 5 6 5 5 6 5
0 -0 -1 -1 -4 -6 0 2 4 7 8 10 10 10 10 10 9 10 9 9 9 9 9 9 9 8 8 4 5 7 5 3 3 3 7 5 3 0 -1 -1 0 3 4 6 6 6 6 6 5
-2 -1 -1 -2 -4 -2 -0 2 5 5 6 8 9 9 10 10 10 8 8 9 8 9 9 9 9 8 7 4 6 5 4 5 6 6 5 2 2 -1 -2 -0 2 4 5 5 6 6 6 6 5
-2 -0 -0 -2 -3 -3 -4 -4 4 6 5 7 8 8 8 10 10 7 7 7 8 8 9 8 8 7 7 4 3 4 4 5 4 2 0 -0 -1 -1 -1 -1 -0 -1 3 6 7 7 7 7 5
-1 -0 -1 -1 -3 -2 -3 -1 5 4 5 6 7 4 7 9 10 7 6 6 6 7 8 7 6 4 4 3 4 4 5 5 3 2 1 -1 -1 1 1 1 -1 -2 1 6 8 8 8 7 5
-0 -2 -2 -2 0 1 -3 1 3 3 4 5 6 5 6 9 9 7 5 4 4 5 5 4 3 3 2 2 1 0 1 2 4 3 2 0 1 0 3 5 5 5 6 7 8 8 8 7 6
-0 -1 -1 -0 1 -0 0 3 2 1 2 3 4 6 7 8 9 8 5 3 2 4 4 4 3 3 2 2 3 6 6 6 5 4 3 1 1 3 5 5 7 8 8 7 7 7 8 8 7
-2 -1 -0 0 1 4 1 4 3 3 1 0 4 6 7 8 9 7 6 5 4 2 2 4 6 6 6 5 5 7 7 6 5 3 2 2 0 2 5 7 7 8 8 8 7 7 8 8 8
-2 -1 3 4 6 5 4 5 3 -0 0 -1 4 6 7 8 9 8 7 6 5 5 4 4 5 5 4 5 6 5 5 2 -1 -0 2 3 4 4 5 6 7 8 8 8 8 8 9 9 8
-1 0 5 5 6 6 6 5 3 -1 -1 -2 0 5 7 8 8 7 7 7 6 6 6 6 6 5 4 3 3 2 4 5 6 6 6 4 4 5 5 6 6 7 7 9 8 8 8 9 8
-1 1 1 8 8 8 7 6 1 -2 -3 -4 -2 3 5 6 7 7 7 7 6 6 6 3 3 5 5 4 5 3 4 7 7 8 7 6 5 5 5 5 7 7 8 8 8 8 9 9 8
-1 -0 6 7 9 9 8 7 5 0 -2 -4 -1 3 3 5 7 7 7 6 6 6 6 6 4 3 1 3 5 7 6 7 7 7 8 7 6 6 5 6 7 8 8 8 8 9 9 8 7
-1 0 3 6 7 9 8 5 2 2 -2 -4 -5 -0 3 3 4 6 6 6 6 6 6 6 6 6 5 5 6 7 7 7 8 7 7 8 7 8 8 6 5 8 9 8 8 8 8 7 7
-2 -1 1 7 9 8 6 5 -1 -0 -3 -3 -3 -2 -1 -1 1 3 4 4 6 6 7 7 7 7 7 8 8 9 9 9 9 9 9 9 8 7 5 9 8 9 9 9 8 8 8 7 6

GFSSGP_850_dewp_078.txt.gz
Dewpoint
-9 -7 -2 -2 -7 -5 -3 -5 -7 -7 -2 2 9 7 9 11 8 6 13 13 14 14 15 13 10 9 8 11 10 9 8 8 10 11 11 9 7 1 5 9 10 10 9 4 -1 -3 -2 -3 -3
-7 -3 1 -4 -5 -4 -6 -6 -6 -7 -1 2 8 10 10 11 11 11 11 12 14 15 14 13 9 11 11 11 10 10 9 8 11 11 10 8 3 -2 8 11 10 9 6 3 8 4 2 1 2
-6 -2 -2 -4 -4 -4 -4 -6 -7 -6 -6 1 3 7 9 9 12 12 10 11 11 13 14 11 8 7 9 9 10 11 10 11 10 8 4 1 -5 -2 8 9 5 2 2 11 9 7 4 3 -3
-6 -4 -6 -5 -5 -6 -5 -7 -7 -8 -4 4 4 4 6 6 8 8 9 7 8 12 14 13 10 7 7 6 6 10 12 8 4 2 0 -3 -6 1 7 4 3 -1 -2 -1 3 4 4 1 -7
-3 -4 -4 -4 -5 -7 -8 -8 -8 -7 1 4 4 3 6 4 5 5 5 4 5 10 11 13 12 11 7 7 6 7 7 10 9 7 -0 -4 -4 3 2 1 7 3 -0 2 3 4 4 4 2
-2 -5 -3 -4 -5 -6 -7 -7 -7 -4 1 5 5 6 6 6 6 4 4 4 7 9 10 11 12 12 9 10 10 10 11 10 9 8 5 -0 1 1 -0 -1 7 -2 1 2 3 5 5 4 0
-4 -5 -4 -4 -4 -4 -6 -8 -4 1 5 6 6 6 7 8 8 7 6 8 10 9 9 10 11 12 11 11 10 9 10 10 9 9 2 5 3 -1 -3 -2 -3 1 3 3 3 5 5 3 2
-4 -4 -3 -4 -3 -4 -8 -6 -0 3 4 5 6 9 7 5 7 8 8 10 11 10 11 10 11 12 11 10 9 9 9 10 10 9 3 5 0 -2 -3 -5 0 3 3 3 3 5 5 3 1
-5 -4 -3 -4 -5 -6 -9 -7 -2 2 5 6 9 9 8 7 9 10 11 11 11 11 12 12 11 10 11 10 9 8 10 10 11 9 5 4 -2 -2 -4 -2 2 4 3 2 3 3 3 3 1
-5 -4 -4 -6 -7 -7 -7 -7 -7 3 5 5 7 8 10 10 10 10 10 10 10 10 11 11 11 10 10 11 9 8 10 11 9 9 7 0 -3 -3 -5 1 4 3 2 1 1 1 1 1 -1
-6 -5 -6 -6 -7 -7 -7 -7 -3 4 5 3 4 7 11 10 10 9 10 10 10 10 10 10 11 11 11 10 9 11 11 10 9 7 3 -1 -2 -3 -6 -5 1 2 1 1 1 1 0 -1 -3
-4 -6 -6 -7 -8 -8 -8 -6 3 4 -1 1 5 5 11 10 10 10 9 9 10 10 10 10 10 10 9 9 10 11 9 8 7 7 4 0 -2 -4 -6 -8 -9 -7 -4 -2 -0 -1 -1 -4 -5
-7 -7 -7 -8 -7 -6 -5 -1 2 4 -1 2 6 8 10 10 10 10 10 10 10 10 10 10 10 9 9 8 10 10 10 9 8 6 4 0 -1 -2 -5 -7 -8 -8 -6 -6 -4 -4 -4 -4 -5
-6 -7 -6 -5 -5 -5 -3 0 5 -2 -0 5 8 9 10 10 10 10 10 10 10 10 9 10 10 9 9 9 9 9 9 7 6 5 2 1 3 3 2 -2 -6 -6 -5 -4 -3 -5 -4 -4 -4
-4 -3 -5 -5 -6 -5 -4 0 5 -3 3 7 8 10 10 10 10 10 9 10 10 10 9 10 9 9 9 8 8 8 8 8 5 6 1 3 3 4 3 4 3 2 3 4 4 1 -3 -4 -4
-4 -4 -3 -7 -6 -6 -4 -2 -4 -4 4 7 8 11 10 11 10 9 8 9 9 10 9 9 9 8 8 9 9 9 8 7 7 6 2 2 0 0 1 2 4 4 4 5 5 5 4 -0 -3
-3 -1 -4 -5 -6 -5 -5 -2 -4 1 5 6 8 9 11 11 10 10 9 8 8 9 10 9 9 9 8 8 8 8 8 9 7 6 3 1 1 3 2 3 4 4 5 5 5 5 4 4 3
-1 -1 -2 -2 -5 -4 -3 -3 -4 -0 5 6 9 10 10 10 10 10 9 8 9 9 9 9 9 9 8 8 7 7 8 9 6 5 2 3 3 2 3 3 4 4 5 5 5 5 4 5 5
-3 -2 -1 -2 -4 -3 -2 -2 -3 0 6 7 8 10 10 10 9 10 10 9 9 9 9 9 9 9 8 8 8 8 7 7 6 5 3 5 3 2 3 3 3 3 4 5 5 5 6 5 5
-2 -1 -1 -3 -4 -3 -2 -2 -4 2 4 6 7 9 10 10 10 10 10 10 9 9 8 9 9 9 9 8 8 9 8 6 5 4 4 7 2 2 2 2 2 3 4 4 5 5 6 6 6
0 -0 -1 -1 -2 -3 -2 -1 -2 -0 3 4 5 6 8 10 10 10 10 10 9 9 9 9 9 9 8 8 7 7 8 7 5 6 6 5 5 4 2 2 4 5 5 4 4 3 4 6 6
0 -2 -2 -1 -0 1 -2 2 -1 -2 2 4 4 4 5 8 10 9 9 9 6 7 8 8 9 9 9 8 6 7 7 7 6 5 3 1 3 3 3 3 4 6 6 3 2 2 3 5 6
-0 -3 -2 -1 0 0 0 2 0 0 1 1 2 3 4 5 7 8 8 8 4 5 7 7 8 9 9 9 8 7 7 6 4 4 4 2 4 3 3 2 4 3 4 3 4 4 3 3 5
-2 -1 -1 1 1 4 2 2 2 0 0 -1 -0 -0 1 3 5 7 7 8 5 3 6 7 8 8 8 8 8 6 5 6 5 2 4 4 4 2 1 2 2 2 3 3 3 6 7 6 7
-1 0 4 4 6 6 1 3 1 -1 -2 -1 -1 -2 -1 1 3 5 7 8 6 2 2 5 7 8 8 8 8 5 4 4 5 3 3 2 2 1 2 2 2 1 1 2 2 5 7 8 8
1 1 5 6 6 4 4 5 3 0 -1 -1 -1 -2 -2 1 2 3 5 7 7 5 -1 -0 1 5 6 7 7 5 4 5 5 4 3 1 1 0 -0 2 3 2 0 -1 1 3 6 7 7
-0 2 -0 5 7 7 5 3 -0 -2 -1 -3 -2 -2 -1 1 2 3 4 6 7 6 3 -1 -2 -0 2 3 6 5 3 4 5 4 2 1 1 1 2 4 3 2 4 5 5 5 6 6 8
-1 -0 4 5 8 9 5 5 3 0 -2 -2 -3 0 0 2 3 3 4 5 6 7 6 2 0 -1 0 2 2 4 4 4 3 3 2 1 0 1 4 3 1 2 5 6 7 7 7 7 8
-0 -1 3 3 4 5 6 4 2 1 1 1 -2 -3 -0 0 2 3 3 4 6 6 7 6 3 1 0 1 2 3 3 3 2 1 1 2 3 3 1 -0 3 6 8 8 8 8 7 7 8
-3 -0 2 5 6 5 4 3 -1 0 -0 -1 -3 -5 -2 -3 -1 2 3 5 6 6 7 7 6 4 3 2 2 1 0 1 1 0 0 2 1 -0 2 5 7 7 7 7 8 8 7 6 7

GFSSGP_850_dewp_081.txt.gz
Dewpoint
-9 -7 -3 -2 -7 -5 -4 -5 -7 -7 -5 -2 6 6 7 10 7 5 12 13 14 13 12 11 9 8 8 8 7 7 11 11 11 10 9 7 5 1 -1 1 8 10 9 9 4 8 11 8 3
-7 -3 -0 -5 -6 -6 -6 -6 -6 -7 -5 -2 9 10 10 8 10 10 11 12 13 14 13 14 10 7 8 8 9 10 11 11 11 10 9 8 5 2 4 4 9 9 10 9 4 7 -3 -4 -4
-5 -0 -2 -4 -4 -6 -6 -7 -7 -8 -7 -2 3 6 9 9 10 10 11 11 12 13 14 14 13 8 8 8 9 9 10 12 11 10 9 8 4 4 7 6 10 10 10 7 7 -1 -4 -7 -11
-4 -3 -6 -4 -5 -5 -6 -7 -7 -8 -1 3 3 3 5 4 6 10 9 11 9 11 14 14 12 9 10 9 8 9 8 6 12 10 9 7 4 4 9 9 11 9 9 10 5 1 -4 -8 -13
-6 -4 -3 -3 -4 -6 -7 -8 -8 -7 -4 4 4 2 5 3 3 5 6 8 7 9 13 13 11 8 9 8 8 6 5 9 13 11 8 6 2 4 10 10 9 9 8 9 6 -2 -9 -12 -13
-2 -5 -3 -6 -5 -6 -7 -7 -7 -2 -1 5 5 5 4 2 3 5 4 4 5 7 13 13 11 8 9 8 8 8 10 9 8 9 8 6 5 7 8 8 6 2 1 7 3 2 0 -10 -12
-2 -3 -4 -5 -5 -5 -6 -8 -5 -3 2 3 4 4 3 4 4 5 5 6 9 10 12 12 12 10 7 7 8 8 7 7 9 9 7 8 9 8 6 3 2 -2 2 4 4 3 -1 -2 -7
-4 -5 -3 -4 -4 -5 -7 -7 -3 2 -2 4 5 5 6 4 4 4 7 7 9 10 11 12 12 10 9 10 9 8 10 9 9 11 9 8 8 7 3 0 -1 1 2 4 5 4 2 -0 -4
-4 -2 -2 -3 -4 -6 -8 -7 -5 -3 3 5 7 6 6 7 5 6 9 10 10 10 11 11 12 12 11 11 11 10 10 10 11 11 10 8 7 6 1 -2 1 1 3 5 5 4 2 -0 -3
-5 -3 -4 -5 -6 -6 -6 -7 -7 -0 4 5 7 6 7 7 7 9 10 10 10 11 10 12 12 11 11 11 11 10 9 10 11 12 10 6 3 1 -0 0 2 2 3 4 5 4 2 -1 -4
-5 -4 -5 -6 -6 -7 -7 -7 -5 1 -1 -1 2 -0 4 6 9 10 9 9 9 9 11 11 11 11 10 11 10 10 9 10 11 10 8 5 2 -0 -1 1 -2 3 3 5 5 4 1 -2 -5
-4 -5 -6 -6 -6 -6 -7 -6 -1 2 -3 -4 -1 2 4 6 9 9 9 9 9 9 10 11 11 11 10 10 11 10 9 11 11 9 6 4 -1 -2 -2 1 0 2 2 2 2 1 0 -3 -5
-4 -5 -6 -6 -7 -7 -6 -5 -4 0 -6 -2 1 4 5 7 9 10 10 9 9 10 10 10 10 10 11 10 10 10 10 10 9 7 6 1 -3 -2 -0 -1 1 2 1 1 1 -0 -1 -4 -5
-5 -6 -7 -6 -5 -5 -5 -3 3 -4 -3 0 4 5 8 8 9 9 9 9 9 10 10 9 10 10 9 9 10 10 9 9 8 8 2 -2 -4 -6 -6 -3 -5 1 0 -1 -2 -3 -4 -5 -5
-4 -3 -4 -5 -5 -6 -5 -1 2 -3 -0 5 8 8 9 10 9 9 9 9 9 9 9 10 9 9 9 9 9 9 9 8 7 5 1 -2 -4 -7 -8 -8 -8 -6 -2 -4 -4 -4 -4 -4 -5
-3 -3 -2 -6 -6 -6 -4 -5 -3 -4 3 8 10 10 9 10 10 9 9 10 9 9 10 9 10 9 9 9 9 9 8 7 6 2 1 -1 0 2 -4 2 3 -3 -0 -1 -1 -3 -4 -4 -4
-2 -4 -3 -5 -6 -5 -3 -3 -4 -2 3 6 9 9 9 10 10 9 9 8 10 9 9 9 9 8 8 9 9 9 8 8 5 3 3 3 2 3 3 3 -1 1 4 4 4 4 -0 -3 -4
-1 -1 -2 -3 -5 -4 -4 -4 -5 -2 4 5 7 9 10 10 10 9 10 9 9 9 9 9 9 9 8 9 9 9 8 6 4 4 3 3 3 4 4 2 4 5 5 5 5 5 3 1 2
-2 -2 -3 -4 -4 -3 -4 -4 -5 -4 4 5 7 8 10 10 10 10 9 10 9 8 9 9 9 9 8 8 8 9 8 5 7 4 3 4 4 4 4 3 4 5 5 5 5 5 5 3 5
-2 -2 -2 -3 -4 -3 -4 -3 -4 -3 -1 4 5 8 9 10 10 9 10 10 9 9 8 9 9 9 9 8 8 8 9 6 8 6 5 4 2 3 4 3 4 4 4 5 5 6 5 4 5
1 1 0 -1 -3 -4 -3 -2 -2 -3 1 4 6 6 8 9 9 9 10 9 9 8 8 9 9 9 9 8 8 8 8 8 8 4 4 3 4 3 2 3 3 3 3 3 5 5 6 6 6
0 -1 -1 -0 -0 -1 -2 1 -1 -3 -2 1 3 6 7 9 9 9 10 10 10 9 8 9 9 9 9 8 8 8 8 8 7 5 3 3 3 5 2 2 2 2 3 4 5 6 5 5 6
-1 -2 -1 -0 -0 -0 -3 -0 -0 -1 -1 -2 -2 4 6 5 6 8 9 9 10 8 9 9 9 9 9 8 8 8 8 7 6 5 4 3 4 5 2 4 3 2 4 5 5 6 6 5 6
-2 -2 -1 0 0 2 -1 1 1 -0 -1 -1 -2 -1 3 5 4 5 8 9 9 7 7 8 8 9 9 8 8 8 8 7 5 4 4 4 6 5 4 3 3 3 4 4 4 5 6 6 7
-1 1 2 5 5 1 1 2 1 -1 -2 -2 -2 -2 -1 2 4 5 6 7 8 7 4 7 7 8 8 8 8 7 7 7 6 4 5 6 5 5 3 3 3 2 2 3 4 4 4 5 6
0 1 1 1 4 1 2 4 0 -0 -1 -1 -1 -1 -1 0 2 4 4 5 6 6 3 5 6 7 8 8 8 8 6 7 7 6 5 4 2 1 1 3 3 2 3 4 4 4 5 5 5
1 2 -1 3 7 7 4 3 0 -1 -1 -2 -2 -2 -1 0 1 3 3 3 5 6 4 -0 3 5 7 7 8 8 8 7 6 5 6 4 4 3 3 3 2 2 2 5 5 4 5 6 6
-1 -0 3 2 3 4 4 4 1 -1 -2 -1 0 -1 -1 0 3 3 2 2 4 6 5 2 -1 0 2 5 6 7 7 6 5 4 4 4 3 3 3 2 2 1 2 4 5 3 5 6 7
-2 0 2 1 3 3 4 3 2 1 -1 1 1 -1 -2 1 1 5 3 3 4 6 6 5 2 -2 -3 -0 2 5 6 6 5 3 3 2 2 2 2 1 0 0 1 5 4 4 7 6 8
-3 -2 -0 4 6 5 3 2 -1 0 0 0 -1 -3 -5 -2 0 3 4 4 4 5 6 6 5 3 -1 -3 -1 1 1 2 3 3 1 2 1 1 1 1 0 2 4 4 6 7 7 8 9

GFSSGP_850_dewp_084.txt.gz
Dewpoint
-9 -9 -5 -3 -6 -10 -9 -9 -9 -8 -7 -6 -2 1 3 4 1 2 7 8 12 13 14 12 11 10 10 9 9 11 11 10 10 8 8 6 3 2 2 4 8 9 9 11 10 9 10 4 6
-9 -5 -1 -5 -8 -10 -9 -9 -7 -8 -8 -4 0 6 7 2 8 11 11 9 12 13 13 12 10 10 9 9 9 10 12 11 11 9 8 5 2 7 1 8 10 10 12 10 10 10 7 2 2
-6 -1 -4 -8 -10 -10 -9 -9 -8 -8 -7 -6 -2 5 5 4 10 12 10 9 11 12 12 13 10 10 9 8 9 10 11 12 11 10 8 5 2 1 2 6 11 9 11 9 10 7 2 -4 -2
-2 -4 -7 -9 -11 -9 -8 -9 -8 -7 -4 -5 -4 1 6 8 11 13 7 10 10 10 10 13 12 13 9 9 9 11 12 12 12 10 11 4 2 2 6 6 11 9 8 8 4 -5 -5 -5 -6
-4 -6 -8 -9 -11 -11 -8 -9 -8 -7 -5 1 1 -2 2 5 3 4 5 6 9 8 8 9 12 13 11 10 9 9 8 11 7 8 9 7 4 4 3 9 11 9 6 -2 -4 -4 -10 -10 -9
-6 -6 -9 -10 -11 -12 -9 -9 -7 -6 -4 2 2 1 2 5 3 4 3 4 4 5 5 11 11 12 12 12 11 11 10 9 7 6 11 9 6 5 8 11 10 9 9 -1 -5 -10 -12 -12 -12
-6 -7 -9 -10 -12 -12 -9 -8 -7 -6 -5 -4 2 -1 3 9 6 4 4 4 4 6 5 11 13 11 9 11 11 9 9 9 8 9 9 11 9 9 11 11 10 9 9 0 -5 -7 -12 -12 -12
-6 -7 -9 -10 -12 -11 -9 -8 -7 -5 -5 4 3 -4 -2 9 4 5 5 4 6 9 12 12 12 11 9 11 10 9 9 9 10 10 10 11 9 10 11 10 9 4 5 0 -1 -6 -9 -12 -12
-5 -6 -7 -9 -9 -11 -9 -8 -7 -1 -1 1 3 3 8 4 6 6 5 6 7 10 11 12 12 11 10 10 10 9 9 9 8 9 10 10 8 10 10 9 3 1 3 2 -0 -1 -4 -10 -12
-6 -7 -8 -11 -11 -9 -8 -8 -8 -7 -7 -4 1 6 8 6 9 10 10 11 10 10 11 11 12 12 11 10 10 10 10 8 10 10 10 10 9 10 10 6 2 2 4 3 2 0 -3 -3 -4
-8 -7 -9 -9 -9 -8 -9 -8 -8 -6 -6 -6 -4 -2 8 9 10 10 10 10 11 9 10 11 11 11 12 12 11 10 11 10 10 10 10 10 9 9 8 5 4 4 5 4 4 1 3 5 4
-7 -8 -10 -10 -10 -9 -9 -8 -8 -6 -5 -6 -1 1 6 8 9 10 10 10 10 9 9 11 11 11 11 11 11 11 11 10 10 10 11 10 8 8 8 8 4 4 6 5 5 5 6 5 4
-5 -10 -9 -8 -8 -7 -7 -7 -7 -8 -7 -6 2 5 6 8 9 10 10 9 10 9 9 10 10 11 11 11 10 10 10 10 10 10 10 8 5 5 2 4 5 4 7 7 7 7 6 -1 3
-7 -6 -7 -7 -7 -7 -6 -8 -8 -7 -7 -2 3 4 6 8 9 10 10 9 10 10 9 10 10 10 10 10 10 10 9 10 10 10 9 7 5 2 2 3 3 3 4 8 7 4 2 2 3
-5 -5 -6 -6 -7 -6 -8 -7 -8 -7 -1 0 3 5 6 8 9 9 9 9 9 9 9 10 10 10 10 10 9 10 10 10 10 8 6 5 2 0 0 2 2 1 1 1 2 1 0 4 3
-4 -4 -3 -7 -8 -8 -7 -8 -12 -8 -1 -1 2 5 7 8 8 9 9 9 9 9 10 9 10 10 9 9 10 9 9 9 7 6 5 3 0 -2 2 2 1 0 -1 -2 -2 -4 4 3 2
-5 -3 -4 -4 -7 -8 -6 -9 -9 -2 -2 -1 1 5 7 7 8 9 9 9 9 9 9 9 9 9 9 9 9 9 8 6 6 4 3 2 -1 -0 -3 -4 -2 -1 -2 -3 -4 0 2 1 2
-4 -3 -3 -3 -7 -7 -8 -7 -9 -7 -3 -2 1 5 6 6 8 9 9 9 9 9 8 9 9 9 9 9 9 9 7 6 3 3 -0 -5 -6 -5 2 3 3 3 3 -1 -1 -1 -2 -2 0
-5 -3 -3 -5 -6 -5 -6 -6 -9 -10 -5 -2 1 3 5 6 8 9 10 9 8 9 9 9 9 9 8 9 9 8 7 5 4 3 -0 0 4 -3 1 3 3 3 3 4 4 5 3 0 0
-2 -2 -3 -5 -6 -4 -5 -6 -9 -10 -6 -4 -2 2 4 7 9 9 10 9 9 9 9 9 9 9 8 9 9 9 8 5 5 3 4 4 -0 -3 2 2 3 4 5 5 5 5 5 5 3
-1 -2 -3 -3 -5 -4 -3 -3 -6 -11 -6 -2 -0 0 3 5 8 10 10 10 9 9 8 9 9 9 9 8 9 9 8 6 5 4 4 4 4 -0 3 3 4 5 5 5 5 5 5 6 5
-1 -5 -4 -3 -2 -2 -4 -2 -7 -6 -4 -4 -2 2 2 4 6 9 10 10 10 9 8 8 9 9 9 8 8 9 8 6 7 6 4 5 5 4 3 3 4 3 3 4 4 5 6 6 7
-3 -5 -6 -3 -1 -1 -1 -1 -6 -9 -5 -5 -6 -2 2 4 6 9 9 10 10 9 8 9 9 9 9 8 8 8 8 6 7 8 5 5 4 5 4 4 4 3 4 3 3 4 4 6 7
-3 -2 -1 -1 -1 2 -0 -2 -4 -5 -3 -4 -5 -5 -1 2 5 8 9 10 10 9 9 9 9 8 9 9 8 8 8 7 7 7 5 4 3 5 5 6 2 3 2 2 2 4 5 6 7
-2 -2 1 3 4 2 -4 -3 -3 -4 -4 -4 -5 -5 -2 2 4 7 9 10 9 9 7 9 9 9 9 9 8 8 8 8 6 6 4 3 4 5 7 5 3 3 3 3 4 5 5 6 6
-1 -1 1 3 3 2 -2 -0 -3 -4 -5 -5 -4 -3 -1 1 4 7 8 9 9 9 7 7 8 10 9 9 9 8 8 9 8 7 5 5 5 6 8 6 5 4 4 4 5 5 5 5 4
-3 0 -3 1 -0 4 -0 -1 -2 -3 -3 -3 -4 -4 -3 -1 3 6 7 9 9 9 8 2 6 8 9 9 9 9 8 8 9 7 6 6 6 7 8 6 4 3 4 4 3 3 5 5 6
-7 -6 1 0 3 3 -1 0 -0 -2 -3 -4 -3 -2 -1 -2 2 5 7 8 9 9 8 3 4 8 9 8 8 8 8 9 9 9 8 6 7 8 8 7 5 6 4 4 3 3 4 7 7
-3 -1 -2 -2 -0 2 1 -1 -3 -2 -3 -3 -2 -2 -1 -0 2 5 6 7 9 9 9 5 4 8 8 9 9 9 9 8 8 8 8 8 8 8 8 6 6 4 3 3 4 5 3 6 7
-4 -3 -2 2 -1 1 2 1 -2 -2 -1 -1 -2 -1 -2 2 4 5 6 7 8 9 9 8 7 7 8 9 9 9 9 8 8 8 7 6 6 6 5 4 4 5 5 4 6 7 7 5 5

GFSSGP_850_dewp_087.txt.gz
Dewpoint
-12 -13 -4 -5 -5 -8 -10 -11 -12 -10 -9 -9 -5 -3 -2 -1 -2 4 12 12 1 8 15 14 12 11 11 11 11 12 12 11 9 7 7 6 5 2 1 6 8 9 10 9 6 7 9 10 8
-1 -5 -3 -5 -8 -9 -11 -10 -9 -10 -9 -8 -5 -0 -1 -1 1 6 10 10 9 6 12 16 13 11 11 11 12 12 12 12 10 8 8 8 4 1 1 7 10 11 9 8 6 4 6 7 9
-2 -3 -2 -5 -7 -9 -9 -10 -10 -10 -8 -8 -7 -2 0 -1 5 8 12 4 8 7 11 14 14 11 11 10 10 11 12 13 12 8 8 8 4 2 8 10 11 10 9 6 -0 1 1 5 8
-3 -5 -6 -10 -10 -11 -10 -11 -10 -9 -8 -7 -8 -4 0 7 6 11 8 5 5 13 11 12 11 11 10 10 10 11 11 13 13 10 10 8 7 6 8 10 11 11 9 5 -4 -1 0 3 5
-4 -6 -6 -7 -8 -11 -13 -11 -10 -9 -8 -4 -5 -6 -2 6 9 9 10 2 2 5 6 8 10 11 13 13 11 10 8 8 8 9 11 9 10 9 10 11 11 10 11 8 1 -6 -3 -3 1
-8 -9 -6 -7 -10 -12 -13 -11 -10 -9 -7 -5 -1 -4 -3 7 8 10 3 1 2 2 2 5 7 10 11 13 12 10 10 10 8 7 10 8 9 10 11 9 9 9 9 -3 -6 -9 -8 -6 -4
-6 -7 -5 -7 -9 -11 -13 -11 -9 -8 -7 -7 -3 -3 -0 8 8 8 4 3 2 2 2 3 7 11 12 12 12 11 10 8 9 10 9 9 10 9 9 9 7 9 1 -3 -5 -12 -11 -10 -8
-8 -8 -6 -7 -8 -10 -14 -12 -9 -8 -8 -2 -3 -3 -5 7 8 8 10 11 5 2 3 5 7 13 12 12 12 11 11 11 10 10 10 9 11 10 7 4 3 8 0 -7 -11 -12 -13 -12 -11
-6 -5 -5 -7 -8 -10 -13 -10 -9 -8 -7 -7 -3 -3 4 8 9 10 11 10 11 5 5 5 8 12 12 11 11 11 10 10 11 10 9 11 11 10 10 10 9 9 -0 -6 -11 -11 -12 -12 -11
-6 -5 -6 -9 -10 -11 -13 -10 -10 -10 -9 -8 -6 -3 2 8 8 9 10 10 12 12 9 6 9 11 12 12 11 11 11 10 10 11 10 8 11 11 11 11 9 8 1 -4 -6 -9 -12 -11 -9
-7 -5 -7 -9 -10 -12 -12 -12 -11 -9 -9 -9 -8 -7 -4 6 7 8 8 8 10 11 10 7 9 11 11 12 11 10 11 10 10 10 9 10 10 9 11 11 10 7 3 -1 -3 -7 -5 3 2
-6 -8 -9 -9 -11 -11 -11 -12 -12 -10 -9 -9 -8 -6 -2 -1 6 7 8 9 9 11 8 8 10 10 11 11 11 11 11 12 11 10 11 10 11 10 11 8 8 5 3 1 -1 1 5 5 4
-7 -8 -9 -11 -10 -10 -10 -10 -10 -10 -10 -10 -8 -8 -2 1 4 6 8 9 8 10 10 9 10 10 11 11 10 11 11 12 11 10 11 11 10 9 9 5 8 6 5 3 3 6 6 6 5
-7 -9 -8 -8 -9 -8 -8 -8 -9 -10 -11 -9 -8 -7 -3 2 5 6 9 8 9 9 11 9 9 10 10 11 11 11 11 11 11 10 10 10 10 9 8 7 8 8 7 6 7 7 6 5 5
-7 -5 -6 -7 -7 -7 -7 -6 -6 -8 -10 -11 -6 -4 1 2 5 6 8 9 9 9 10 8 9 9 10 10 10 10 11 10 10 10 11 10 9 9 6 5 8 9 8 8 7 6 4 4 4
-4 -4 -2 -5 -6 -7 -7 -3 -7 -11 -11 -11 -4 -3 1 4 6 7 8 8 8 9 11 9 9 10 10 10 9 9 9 10 11 10 9 10 8 6 3 4 8 9 9 8 7 6 4 4 3
-3 -1 -2 -4 -6 -7 -7 -5 -8 -10 -7 -6 -4 -3 2 4 6 7 8 8 8 9 10 10 9 9 9 9 10 9 10 9 10 10 10 8 7 3 3 5 6 8 4 3 5 4 4 4 3
-2 -2 -4 -4 -5 -6 -6 -6 -7 -10 -7 -6 -5 -3 1 4 5 6 8 8 9 9 11 9 10 9 9 9 9 9 9 8 8 8 6 5 4 2 5 5 2 2 -0 2 -1 0 4 4 3
-5 -5 -5 -5 -6 -5 -4 -4 -6 -9 -11 -10 -5 -4 -1 2 4 6 8 9 9 9 10 10 9 9 9 9 9 8 7 5 4 4 4 3 4 5 4 2 1 3 3 -1 -2 2 2 2 2
-4 -4 -3 -5 -5 -5 -5 -4 -6 -7 -8 -11 -9 -5 -2 2 4 7 9 9 10 10 10 10 9 9 8 9 8 6 5 4 4 4 4 4 2 4 0 4 4 4 3 2 2 3 2 3 1
-4 -2 -2 -3 -4 -5 -4 -3 -4 -6 -6 -8 -11 -7 -5 -0 4 7 9 10 10 10 10 9 9 9 9 9 9 8 6 5 5 5 4 3 2 2 2 5 4 4 3 4 5 5 5 5 5
-1 -3 -4 -4 -3 -1 -5 -0 -3 -5 -8 -9 -10 -5 -5 -3 3 6 9 10 10 10 10 9 9 9 9 9 9 8 6 5 5 5 0 2 1 1 2 4 4 2 5 5 6 7 7 7 7
-2 -5 -4 -3 -3 -3 -3 -2 -3 -4 -5 -7 -6 -5 -4 -2 2 6 9 9 10 10 10 9 9 9 9 9 9 8 6 4 3 3 1 3 2 1 -3 3 6 5 5 6 7 7 5 8 7
-3 -4 -3 -3 -3 2 -1 -0 -1 -3 -6 -5 -6 -7 -6 -3 1 4 8 9 10 10 10 9 9 9 9 9 8 9 8 5 5 4 4 4 3 3 2 2 5 5 6 7 7 5 5 5 7
-3 -1 2 4 3 3 -2 -1 -1 -5 -6 -6 -6 -6 -6 -4 -0 4 7 9 9 10 9 9 9 9 9 9 9 8 9 8 6 4 4 3 3 4 4 6 7 8 7 8 5 3 7 5 5
-2 -1 2 4 4 3 -2 0 -3 -6 -7 -8 -6 -6 -4 -2 -0 3 6 8 9 10 9 9 9 9 9 9 9 8 9 8 7 8 6 4 4 5 5 6 7 8 7 7 6 6 7 7 7
-5 -1 -3 -0 0 3 2 -1 -3 -5 -5 -5 -5 -6 -5 -4 -1 2 5 8 9 9 9 9 10 9 9 9 9 9 8 8 7 6 7 6 4 5 5 6 6 7 8 7 6 7 6 7 7
-10 -14 -3 -2 2 3 -1 -2 -3 -3 -3 -4 -5 -4 -4 -5 -3 1 4 7 9 9 9 9 9 9 9 9 9 9 9 9 8 7 5 6 6 5 5 5 6 7 8 7 8 7 7 8 6
-7 -7 -6 -3 -1 0 1 -2 -4 -4 -4 -4 -3 -3 -2 -2 -3 0 4 6 8 9 9 9 9 9 9 9 9 9 8 9 9 9 8 7 5 5 6 6 6 7 8 7 8 7 7 8 7
-7 -5 -6 -1 -0 -2 -1 -1 -5 -4 -4 -3 -3 -2 -1 0 -1 0 4 6 8 9 9 9 9 8 9 9 9 9 9 9 9 9 8 7 7 6 7 7 7 8 8 8 7 7 8 7 7

GFSSGP_850_dewp_093.txt.gz
Dewpoint
-19 -14 -11 -4 -1 -3 -2 -5 -8 -10 -6 -7 -7 -5 -3 -4 3 9 9 4 2 3 3 5 8 11 10 10 11 11 11 10 8 7 6 5 4 4 3 2 -0 -4 -3 -1 6 8 8 9 9
-15 -5 -3 -4 -2 -0 -2 -6 -7 -7 -8 -9 -8 -7 -4 -2 9 11 11 5 8 2 -0 2 5 10 11 10 10 9 11 11 10 8 7 6 5 4 3 -1 -3 2 7 8 5 5 4 6 8
-4 0 -1 -2 -1 -1 -3 -8 -9 -8 -9 -9 -9 -7 -5 5 10 10 5 1 -1 3 -1 -0 1 6 11 11 11 10 10 11 12 10 11 12 10 5 2 -1 7 9 10 11 12 7 8 6 7
-2 -1 -4 -2 -1 -3 -4 -8 -10 -9 -9 -9 -8 -8 -3 3 6 6 2 -1 -1 -3 -1 -0 -0 3 8 11 11 11 11 12 13 12 11 11 11 11 3 6 10 10 10 12 11 4 4 4 4
-2 -2 -2 -2 -3 -6 -9 -10 -10 -10 -10 -6 -8 -6 4 6 4 1 -6 -5 -1 -2 -2 0 0 3 8 8 10 11 10 12 13 11 11 8 8 10 9 9 11 10 10 10 -0 1 3 7 8
-3 -4 -3 -2 -4 -6 -8 -10 -10 -8 -9 -9 -4 -4 1 4 2 -4 -7 -4 -3 -2 -1 1 1 2 7 11 11 11 11 11 11 12 11 10 9 8 11 12 11 10 9 3 -1 2 7 8 9
-2 -3 -3 -5 -5 -6 -8 -10 -9 -7 -8 -8 -8 -2 4 7 3 -2 -4 -6 -3 0 -1 1 2 2 4 8 11 12 12 11 11 12 10 9 7 7 10 11 11 10 10 1 -4 3 7 8 8
-1 -5 -4 -4 -5 -6 -9 -11 -11 -9 -8 -9 -4 -3 6 6 4 1 -1 -6 -4 1 2 2 3 4 5 7 10 12 12 12 11 11 8 8 8 9 12 10 10 10 10 4 -4 -3 7 7 6
-3 -3 -2 -4 -6 -7 -8 -12 -10 -10 -9 -9 -9 -8 -1 4 6 5 -0 -3 -1 3 4 4 5 13 13 11 10 11 12 12 11 10 9 9 8 8 11 10 9 10 10 2 -4 -4 3 6 6
-3 -3 -3 -6 -7 -6 -7 -9 -12 -9 -9 -9 -8 -8 2 5 6 4 0 0 5 7 9 9 5 13 12 12 11 11 12 11 11 11 10 9 10 11 11 11 10 9 9 -3 -6 -6 2 4 6
-5 -3 -5 -6 -7 -7 -7 -8 -10 -11 -10 -9 -8 -8 5 5 4 3 3 4 6 8 9 10 9 10 12 12 12 12 11 11 11 10 10 10 9 11 10 11 9 10 5 -5 -7 -6 -2 3 5
-3 -5 -6 -7 -7 -7 -7 -8 -10 -10 -10 -11 -10 -10 -1 3 2 3 5 6 7 9 9 10 10 4 10 11 11 11 11 11 10 10 10 10 9 11 11 11 9 9 -0 -10 -8 -7 -2 3 5
-3 -4 -5 -6 -7 -7 -8 -8 -9 -10 -10 -10 -10 -9 -10 -2 3 2 1 5 7 8 9 9 9 4 8 11 10 11 11 11 10 10 10 10 9 10 10 7 9 3 -8 -10 -9 -7 -6 5 6
-3 -3 -4 -5 -6 -7 -7 -8 -9 -9 -9 -9 -9 -9 -9 -10 -10 -6 -2 6 7 7 9 9 9 5 8 11 11 11 11 11 11 11 10 10 10 10 8 6 8 -3 -9 -10 -10 -9 3 6 5
-4 -2 -3 -4 -4 -5 -6 -5 -6 -7 -7 -7 -7 -8 -8 -10 -10 -8 -2 4 6 7 8 9 9 6 8 10 11 11 11 11 12 11 11 11 10 11 9 7 9 -2 -8 -8 -4 -6 5 5 5
-1 -1 -0 -4 -5 -6 -6 -3 -5 -6 -6 -7 -7 -7 -8 -9 -9 -5 1 5 7 8 8 8 9 7 9 10 10 10 10 11 11 11 11 11 10 10 9 7 8 -1 -6 2 5 1 -0 5 4
-0 2 1 -1 -4 -4 -4 -3 -5 -6 -6 -6 -7 -8 -7 -9 -9 -0 4 6 8 8 8 9 9 8 11 10 10 10 10 10 10 11 10 11 10 11 9 8 8 -0 5 6 6 5 5 5 5
1 1 -1 -1 -3 -4 -3 -3 -5 -6 -7 -8 -8 -9 -10 -9 -0 2 5 7 8 8 8 9 9 8 10 10 9 9 9 10 10 10 10 11 10 11 10 9 7 0 7 7 6 5 5 5 5
-3 -2 -1 -3 -6 -5 -3 -2 -3 -6 -7 -7 -5 -7 -7 -7 -1 3 5 7 8 8 9 9 9 10 9 9 9 9 9 9 9 9 9 10 10 10 10 9 6 2 6 7 6 4 4 4 4
-8 -5 -5 -6 -6 -5 -4 -1 -1 -2 -6 -6 -6 -5 -6 -6 1 4 6 7 8 8 9 9 9 9 8 9 9 8 9 9 9 10 10 10 10 10 9 8 6 6 6 7 5 3 4 3 1
-13 -8 -5 -3 -3 -2 1 2 1 -2 -5 -6 -7 -7 -6 -6 1 6 7 8 8 8 9 9 9 9 9 9 9 8 9 9 9 9 9 9 9 10 8 7 8 7 5 7 4 3 2 2 2
-10 -13 -10 -5 2 4 2 7 3 1 -3 -5 -6 -6 -6 -6 2 5 7 8 8 8 9 10 9 9 8 8 9 9 9 8 8 8 8 8 8 9 9 8 6 5 8 6 3 2 2 1 3
-6 -9 -8 1 3 4 4 7 4 -1 -2 -4 -6 -6 -6 -6 5 6 7 7 8 8 9 10 9 8 8 8 8 8 8 8 8 8 8 8 8 7 6 6 6 5 4 2 3 3 3 3 3
-5 -3 -1 1 3 8 5 6 5 1 -1 -4 -5 -6 -5 -6 5 5 6 8 8 9 9 10 9 8 8 8 9 8 8 8 7 7 8 7 7 7 6 6 5 4 3 3 4 0 1 3 2
-3 -2 3 6 6 6 1 5 4 -0 -3 -5 -5 -5 -5 -6 4 7 8 9 9 9 9 9 9 8 8 8 8 8 7 6 5 6 6 6 6 5 5 5 4 4 3 4 4 1 2 5 6
-2 -1 5 6 8 9 3 8 6 2 1 -5 -5 -6 -7 -5 4 7 7 8 9 9 9 9 9 8 8 8 8 7 5 5 5 5 4 4 4 5 4 4 4 3 3 4 4 5 6 7 6
-1 -0 -2 3 2 6 4 1 1 1 -0 -3 -6 -6 -4 -2 5 7 8 9 9 9 8 9 9 8 8 8 8 7 6 5 6 5 3 3 3 3 4 4 6 6 5 4 5 6 6 6 6
-5 -3 1 2 4 3 0 -2 4 2 2 1 -3 -3 -3 -2 4 7 7 8 8 8 8 9 10 7 8 8 8 8 8 7 7 6 3 2 2 2 3 3 4 5 4 6 6 7 7 6 5
-6 -4 -2 -3 2 4 3 2 1 2 1 3 2 -1 -2 -2 -1 7 7 8 8 8 9 9 10 8 9 9 8 8 8 8 8 7 6 4 1 0 2 3 2 2 2 4 5 6 6 5 5
-9 -9 -8 -3 -2 -2 0 -1 -0 -2 2 3 5 5 -2 -2 -1 2 8 9 9 9 9 9 9 8 7 8 9 8 8 8 8 8 7 7 4 2 0 1 1 1 3 3 5 6 5 5 5

GFSSGP_850_dewp_096.txt.gz
Dewpoint
-14 -11 -8 -5 -2 -3 -2 -4 -7 -7 -6 -6 -6 -6 -4 -1 0 3 7 7 7 -3 -2 0 6 10 10 10 10 10 9 8 7 5 5 5 4 6 9 9 8 6 5 4 4 9 11 11 11
-15 -9 -5 -4 -2 -0 -2 -5 -6 -7 -7 -8 -8 -5 -4 10 9 5 7 -1 -2 -3 -2 -1 2 6 10 10 10 10 10 10 8 7 6 6 5 5 7 6 5 2 1 4 5 9 11 11 10
-9 -3 -1 -3 -2 -0 -2 -7 -8 -8 -9 -9 -8 -8 -3 8 6 4 4 -1 -2 -4 -4 -3 -2 0 5 10 10 10 11 11 10 8 7 7 6 7 6 4 -0 -3 -3 1 12 12 9 10 9
-4 -0 -0 -2 -0 -2 -4 -5 -7 -9 -8 -9 -9 -8 5 6 3 5 0 -3 -5 -4 -4 -3 -2 -0 3 7 11 10 10 11 11 10 9 7 7 8 8 5 4 5 5 8 11 10 7 9 10
-1 -2 -2 -1 -2 -4 -6 -8 -9 -9 -9 -7 -8 -5 6 8 6 4 -0 -3 -4 -4 -4 -5 -2 -0 6 9 11 11 11 11 11 12 10 10 9 9 9 9 8 10 10 11 11 9 8 9 10
-3 -4 -2 -1 -2 -4 -7 -8 -8 -9 -9 -6 -6 3 6 6 4 5 5 -2 -5 -3 -3 -2 -1 1 4 9 11 11 12 12 11 12 12 11 10 9 6 8 11 11 10 10 8 7 7 8 8
-2 -3 -2 -4 -4 -4 -6 -8 -9 -7 -8 -7 -5 -1 9 9 5 1 -1 -2 -3 -3 -3 -2 0 1 2 7 11 12 11 12 12 12 12 11 11 9 7 7 11 11 10 8 5 6 5 8 8
-2 -4 -3 -3 -3 -4 -7 -9 -10 -8 -8 -8 -6 3 10 6 5 -1 -2 -1 -1 -2 -3 -1 1 1 1 4 10 13 12 12 12 13 13 11 9 8 7 9 9 12 9 5 5 7 8 9 9
-1 -2 -2 -3 -4 -5 -7 -7 -7 -9 -9 -9 -7 -5 -4 2 5 4 0 -1 -1 -0 -1 1 1 1 2 5 9 13 12 12 12 12 12 9 8 7 9 10 10 10 10 5 3 9 9 9 8
-1 -1 -1 -5 -6 -5 -7 -7 -7 -10 -9 -9 -9 -8 -6 1 4 5 3 -1 -4 1 2 6 7 5 3 5 9 13 13 12 12 12 10 9 8 9 11 10 10 9 10 4 2 9 8 7 6
-3 -0 -2 -3 -5 -6 -6 -6 -7 -10 -10 -9 -9 -8 -2 1 5 6 4 -1 -2 3 5 7 8 7 4 6 9 11 13 12 12 11 10 10 9 8 10 10 10 10 10 3 6 9 8 6 7
-0 -3 -4 -5 -5 -6 -6 -7 -8 -8 -9 -9 -11 -10 -3 5 6 6 3 1 2 5 7 7 9 9 7 4 9 11 10 12 11 11 10 9 10 9 10 11 11 8 11 2 5 9 7 6 7
-2 -2 -3 -3 -4 -6 -6 -7 -7 -8 -8 -8 -10 -9 -4 1 4 4 0 2 4 6 7 8 9 10 8 3 9 10 9 10 10 11 10 11 10 9 10 11 10 5 10 -1 0 7 6 6 6
-3 -3 -3 -3 -3 -4 -6 -6 -7 -8 -8 -9 -9 -9 -7 -4 -1 1 4 4 7 7 7 8 10 9 8 4 7 9 10 10 10 10 10 10 10 9 10 10 7 7 5 -4 -3 4 5 6 6
-3 -3 -3 -3 -4 -4 -4 -4 -6 -6 -7 -7 -7 -7 -7 -8 -8 -4 -0 3 6 7 7 8 9 9 8 4 8 10 10 11 10 11 10 10 10 10 11 11 8 8 -1 -8 -5 1 5 6 6
-1 -1 1 -3 -4 -4 -5 -2 -4 -6 -6 -6 -7 -6 -6 -7 -7 -8 -9 -1 5 7 8 9 9 9 8 5 9 10 11 11 11 11 11 10 10 10 9 8 9 -0 -9 -8 -6 -0 4 6 6
-0 2 1 -0 -4 -3 -4 -2 -5 -6 -6 -5 -5 -6 -6 -6 -7 -8 -9 -2 2 6 7 8 8 8 8 5 8 11 11 11 11 11 11 11 11 10 9 7 7 -3 -10 -8 -8 0 6 6 6
1 2 0 0 -3 -3 -2 -2 -4 -4 -4 -3 -3 -5 -6 -8 -7 -8 -6 0 3 6 8 8 8 8 8 5 9 10 10 10 11 11 11 11 11 10 10 7 8 -4 -9 -6 -7 5 5 5 5
-1 -1 -0 -3 -4 -5 -5 -5 -6 -4 -2 -2 -3 -5 -7 -10 -9 -7 -0 3 5 7 8 8 8 8 8 6 10 9 9 10 10 11 10 11 11 10 10 8 8 -6 -7 -2 -5 5 3 2 5
-6 -5 -3 -5 -7 -6 -6 -3 -2 -2 -2 -2 -2 -3 -6 -7 -4 2 5 5 5 6 8 8 8 8 8 5 9 9 9 9 9 10 10 10 11 11 10 8 8 -2 4 2 4 0 4 4 5
-9 -8 -8 -7 -7 -4 -0 -1 -3 -4 -1 -1 -2 -3 -5 -6 -2 6 7 6 6 7 7 8 8 8 7 5 9 9 10 9 9 9 9 10 10 11 10 9 8 5 6 4 6 5 4 5 5
-8 -11 -11 -12 -9 -5 -0 1 -2 -2 -2 -1 -1 -2 -4 -6 -3 3 7 7 7 7 8 8 8 8 6 5 9 8 8 9 8 8 9 9 10 10 10 10 8 6 6 5 6 4 4 3 1
-8 -9 -9 -11 -1 3 4 5 -1 2 1 0 -1 -3 -4 -5 -5 4 7 6 7 7 8 8 9 9 5 6 9 8 8 8 8 8 8 9 10 10 10 10 8 5 6 6 5 4 4 1 1
-5 -4 -2 1 3 5 5 4 -1 2 1 -0 -2 -3 -4 -5 -5 2 6 7 7 8 8 9 9 9 5 7 9 8 8 8 8 8 8 8 8 8 8 9 6 7 4 6 5 4 2 2 1
-4 -2 2 4 6 6 2 5 1 0 -0 -0 -0 -2 -2 -2 -4 6 8 8 8 8 9 9 9 8 5 8 9 8 8 8 8 8 8 8 8 8 8 8 8 7 6 4 5 4 3 3 3
-3 -1 3 4 6 4 4 6 6 2 0 0 1 0 -1 -1 -1 7 7 7 7 8 9 9 9 7 5 7 8 8 8 8 8 8 8 8 8 8 8 7 7 7 5 6 5 4 3 3 2
-4 -0 -1 2 3 4 4 2 -1 0 3 4 3 2 -2 -3 1 8 8 7 7 8 8 9 8 7 4 7 8 8 8 8 8 7 7 7 7 8 7 7 6 6 5 5 4 3 4 3 2
-4 -3 1 1 4 5 2 -0 0 3 5 5 5 4 3 4 8 9 8 7 7 7 8 9 8 6 4 6 8 7 7 7 7 6 6 6 6 7 7 6 6 6 6 5 4 4 5 4 4
-5 -4 -0 1 3 4 4 2 5 7 6 6 3 3 3 2 8 9 7 6 7 8 8 9 9 8 7 5 8 8 7 7 5 5 5 5 4 5 5 5 5 5 5 4 3 4 4 4 5
-2 -5 -0 4 3 3 3 2 3 5 6 4 3 4 5 4 0 8 9 9 8 8 8 9 9 9 8 4 7 8 8 7 6 6 6 5 4 3 5 4 4 5 6 4 3 4 4 5 5

GFSSGP_850_dewp_099.txt.gz
Dewpoint
-11 -11 -6 -6 -2 -3 -1 -3 -6 -6 -7 -7 -6 -5 -4 -1 -1 -0 -2 6 4 -1 -4 -2 4 10 10 9 9 8 7 6 6 5 4 7 8 10 11 11 11 10 8 5 8 10 9 10 11
-16 -9 -7 -4 -2 -1 -3 -4 -5 -7 -8 -6 -6 -3 0 7 7 1 2 4 8 -4 -4 -3 -2 3 10 10 10 9 9 7 6 6 5 7 9 8 9 11 10 9 7 8 9 10 12 11 10
-10 -6 -2 -3 -2 -1 -4 -5 -7 -7 -8 -7 -8 -6 2 6 6 -2 -3 -4 -1 -3 -3 -3 -3 -2 3 10 10 10 10 9 8 6 6 6 7 10 8 8 8 9 9 9 9 9 11 10 10
-5 -0 -2 -2 -0 -2 -4 -6 -5 -8 -9 -9 -9 -4 2 3 3 2 -4 -5 -3 -1 -3 -3 -3 -3 0 7 10 11 11 10 10 8 7 6 7 8 9 7 5 8 8 9 8 9 11 11 10
-2 -1 -2 -2 -2 -3 -4 -5 -6 -7 -9 -9 -8 -5 4 4 5 5 -1 -3 -3 -2 -3 -3 -1 0 -1 4 10 11 11 11 11 10 8 7 6 6 6 4 5 7 7 8 8 10 10 10 10
-2 -3 -1 -1 -3 -4 -6 -6 -7 -7 -7 -8 -6 5 6 7 6 3 -1 -3 -4 -6 -6 -5 -2 1 2 4 8 11 12 12 12 11 10 8 7 8 7 8 9 7 7 3 10 9 9 10 10
-2 -3 -1 -3 -4 -4 -6 -7 -8 -7 -8 -5 -4 5 5 6 7 5 1 -4 -6 -5 -4 -3 -2 -0 2 4 8 12 12 13 13 12 13 11 9 8 9 9 9 8 7 6 10 8 9 10 10
-2 -2 -1 -3 -2 -3 -7 -8 -8 -8 -8 -8 -5 6 8 3 9 7 4 -1 -3 -4 -3 -2 0 1 1 1 8 12 12 13 14 13 13 12 10 11 11 10 9 10 7 9 9 9 9 10 8
-1 -1 -0 -1 -4 -5 -7 -6 -7 -7 -8 -9 -5 -3 -3 -0 8 9 7 3 1 -2 -2 -3 -1 1 1 1 4 12 12 12 13 12 13 12 11 12 10 9 9 10 7 10 7 8 9 9 8
0 1 -0 -3 -6 -5 -5 -6 -6 -6 -8 -9 -9 -7 -6 -1 5 6 3 0 -3 -3 -5 -2 2 3 5 2 4 11 13 12 13 12 11 11 12 9 8 8 9 9 7 8 5 7 9 9 9
-1 1 -2 -3 -4 -4 -5 -5 -5 -7 -8 -8 -9 -9 -5 2 6 6 4 2 -1 -2 -2 0 3 5 4 3 2 6 12 12 12 11 12 11 10 9 8 10 10 11 10 8 6 8 9 9 10
0 -3 -2 -2 -3 -3 -4 -5 -6 -7 -7 -7 -7 -9 -8 -1 3 3 5 4 1 -1 1 2 5 7 7 7 4 6 10 11 11 11 11 11 9 9 9 10 10 9 9 8 8 9 9 9 8
-0 -1 -2 -2 -2 -3 -3 -4 -5 -6 -5 -6 -7 -8 -9 -7 -4 -1 1 4 3 0 3 4 7 8 8 8 6 6 6 9 11 11 12 11 10 10 9 10 10 9 9 8 8 10 9 7 7
-4 -4 -3 -3 -3 -3 -3 -3 -4 -5 -5 -5 -6 -8 -8 -7 -5 -4 3 4 5 2 4 6 8 9 9 8 7 5 6 9 10 10 10 11 10 10 10 10 10 10 10 7 8 9 7 7 7
-4 -2 -3 -3 -3 -4 -4 -3 -4 -4 -5 -5 -6 -7 -7 -6 -6 -2 -4 -1 3 2 4 6 8 10 9 8 7 4 7 9 10 10 11 10 10 10 10 10 10 10 10 7 8 9 7 7 7
-2 -1 1 -2 -3 -3 -3 -1 -4 -5 -5 -6 -6 -6 -6 -5 -5 -5 -6 -4 1 3 3 6 8 9 9 8 6 5 6 9 11 10 10 10 10 10 10 10 10 9 9 5 8 9 8 6 6
-0 1 1 -0 -3 -3 -4 -2 -4 -5 -4 -4 -4 -5 -5 -4 -4 -6 -6 -6 -5 1 4 5 8 9 9 8 6 6 8 10 9 10 10 11 11 11 10 10 10 8 10 4 6 9 7 6 7
0 2 1 1 -2 -3 -2 -2 -4 -5 -5 -5 -4 -5 -5 -5 -5 -6 -7 -6 -7 -0 4 6 8 9 9 8 6 7 10 10 10 10 10 10 11 10 10 10 8 10 4 2 1 8 7 6 6
-1 -0 1 -2 -4 -4 -3 -4 -5 -7 -6 -3 -4 -4 -3 -5 -5 -5 -7 -6 -7 -2 3 7 8 9 9 8 6 5 8 10 10 10 10 11 11 10 10 10 9 7 1 -3 -2 5 5 6 6
-4 -2 -2 -4 -4 -4 -4 -5 -8 -6 -3 -3 -3 -2 -3 -3 -3 -4 -6 -4 -6 -4 4 8 8 9 8 8 6 3 5 9 10 10 11 10 10 11 10 10 8 4 -2 -5 -6 5 6 6 6
-7 -6 -7 -5 -9 -8 -4 -5 -4 -4 -4 -4 -4 -4 -4 -3 -3 -4 -3 1 -2 1 4 7 8 9 8 8 6 4 8 9 9 10 10 10 10 10 10 10 8 7 -5 -4 -6 3 6 6 6
-8 -10 -10 -9 -9 -8 -4 -5 -8 -5 -4 -2 -2 -3 -4 -3 -3 -4 -1 4 1 2 6 8 8 9 8 8 6 4 6 7 8 9 10 10 10 10 9 10 9 9 -5 -7 -6 5 5 5 6
-8 -8 -8 -8 -9 -8 -4 4 -2 -1 -1 -4 -4 -3 -2 -2 -3 -4 -2 1 4 5 7 8 8 9 9 8 6 6 8 8 9 8 9 8 9 10 10 10 10 9 -1 -2 -6 5 4 3 5
-5 -6 -4 -4 -4 3 -2 4 -2 -3 -1 -1 -2 -1 2 -1 -2 -4 -2 4 7 9 8 8 8 9 9 8 5 7 8 7 8 8 8 8 8 9 9 10 10 8 4 2 2 1 3 3 4
-5 -3 2 4 6 4 3 4 -0 -2 -1 -0 2 4 3 2 0 -2 2 4 7 8 9 9 8 8 9 7 5 7 8 8 8 7 8 8 8 9 9 9 9 8 5 6 6 5 5 4 2
-4 -3 2 3 4 1 2 5 1 1 2 4 4 4 3 3 3 -1 -2 1 6 8 9 8 8 8 9 6 5 8 8 8 8 8 8 8 8 8 9 9 9 8 7 7 5 5 5 5 3
-5 -1 -3 0 2 4 4 3 -1 1 5 5 5 4 4 3 4 3 0 1 6 7 8 8 8 8 8 5 5 8 8 8 7 8 8 8 8 8 8 8 8 7 7 6 6 4 6 4 3
-7 -5 -0 1 4 4 2 1 1 6 7 5 5 5 4 4 4 6 7 6 6 7 8 8 8 8 8 4 4 7 7 7 7 8 8 8 8 8 8 8 7 6 7 5 5 6 4 5 4
-4 -2 -1 -1 2 3 3 2 6 6 5 6 6 5 5 4 3 8 9 9 9 9 8 8 8 8 7 4 4 7 8 7 7 8 7 8 8 8 8 8 7 6 5 5 5 5 4 4 4
-6 -3 0 2 2 3 3 2 2 1 5 6 6 6 5 5 3 2 9 9 10 10 9 8 8 9 8 5 5 6 7 7 7 7 7 7 6 6 6 8 8 7 7 7 6 6 5 4 4

GFSSGP_850_dewp_102.txt.gz
Dewpoint
-7 -5 -7 -5 -2 -3 -1 -4 -6 -6 -7 -7 -6 -4 -2 -3 1 -2 4 -1 -6 -5 -5 -2 4 8 8 8 8 7 6 6 8 7 8 10 10 11 12 10 8 7 7 6 7 9 9 10 11
-13 -8 -6 -4 -3 -2 -5 -4 -4 -6 -7 -6 -5 -1 1 1 4 1 3 -4 -6 -6 -6 -3 2 8 9 9 8 8 7 6 6 6 6 8 10 11 11 11 10 10 7 6 7 8 9 9 10
-13 -6 -4 -4 -2 -3 -7 -5 -6 -6 -8 -6 -8 -6 -1 4 4 -3 -1 -5 -6 -5 -5 -3 -1 4 8 10 9 9 8 7 6 6 5 7 10 11 11 10 11 10 9 8 10 9 9 10 10
-8 -2 -3 -2 -1 -2 -6 -7 -6 -6 -7 -8 -9 -6 -0 3 4 -2 -2 -5 -6 -4 -4 -4 -4 -0 8 10 10 10 10 9 8 6 6 7 8 10 11 11 6 10 9 9 9 9 9 10 10
-3 -1 -2 -2 -2 -3 -4 -4 -5 -6 -7 -8 -8 -7 3 3 3 -0 -3 -6 -5 -4 -4 -4 -3 -1 3 10 11 11 10 10 10 8 7 7 8 9 9 9 8 7 8 7 8 8 10 10 10
-1 -3 -1 -2 -6 -4 -5 -6 -6 -7 -7 -7 -7 -1 2 2 4 3 -3 -5 -4 -4 -5 -4 -2 -1 1 6 10 11 11 11 11 10 8 7 8 8 8 7 6 4 6 5 3 9 10 11 10
-2 -2 -1 -2 -2 -4 -6 -7 -7 -7 -6 -7 -6 2 1 1 4 5 -1 -2 -1 0 -4 -5 -3 -2 1 4 7 9 10 11 11 11 10 9 8 9 8 6 5 8 9 7 4 9 10 9 10
-4 -3 -1 -3 -3 -3 -7 -7 -8 -7 -7 -8 -2 1 -0 -5 3 7 3 2 2 2 -2 -3 -3 -2 1 2 7 9 10 11 11 11 12 10 9 8 8 7 9 9 8 7 9 10 11 8 10
-2 -2 0 -2 -3 -5 -7 -6 -6 -6 -7 -6 -7 -6 -1 0 3 7 5 3 3 0 -3 -2 -1 -1 1 2 6 13 12 13 13 12 12 12 11 10 9 10 10 9 9 8 8 10 6 11 10
-1 0 -3 -4 -5 -5 -6 -5 -5 -6 -6 -6 -7 -7 -6 -6 5 3 4 2 -0 -3 -4 -5 -2 -1 1 1 3 10 13 14 12 13 12 12 11 9 10 12 11 11 9 10 9 7 10 10 10
0 0 -2 -3 -4 -5 -5 -5 -4 -5 -5 -6 -6 -6 -6 -2 5 6 5 3 -0 -1 -3 -5 -4 1 3 5 3 6 11 12 13 12 12 11 12 11 11 10 9 10 10 9 9 5 7 9 8
0 -1 -2 -2 -3 -3 -3 -4 -6 -6 -5 -6 -4 -4 -6 -4 3 3 4 3 2 1 -2 -3 -2 3 5 6 4 5 9 8 12 12 11 12 10 10 11 9 8 9 9 10 8 6 6 9 8
-1 -1 -2 -2 -2 -3 -3 -3 -3 -5 -3 -4 -4 -5 -6 -7 -7 -2 -3 3 5 3 1 -1 0 4 6 7 7 7 5 6 8 10 10 11 11 10 10 9 9 10 10 10 9 8 10 9 8
-6 -5 -5 -4 -3 -2 -2 -2 -3 -3 -4 -4 -5 -5 -5 -7 -8 -6 2 -1 2 4 4 2 1 5 6 7 8 8 7 5 7 9 10 10 10 11 10 10 9 10 11 10 7 8 10 9 9
-4 -4 -4 -3 -3 -3 -3 -2 -3 -4 -4 -4 -4 -5 -6 -6 -6 -6 -5 -3 -3 -1 5 4 2 5 7 8 9 8 8 7 7 8 11 11 11 11 10 10 10 9 10 7 7 8 9 10 8
-1 -2 1 -2 -3 -3 -3 -1 -3 -4 -4 -5 -5 -5 -5 -5 -5 -5 -5 -4 -4 -2 1 5 3 5 7 8 9 8 8 8 7 8 9 10 11 10 10 10 10 9 9 6 7 8 10 8 7
-1 1 1 -0 -3 -3 -2 -2 -4 -4 -4 -5 -5 -5 -7 -7 -6 -6 -5 -5 -5 -5 -2 4 4 5 7 9 9 8 8 8 7 9 9 10 11 10 10 10 10 10 9 7 7 9 9 7 7
0 2 1 0 -2 -2 -1 -1 -3 -4 -6 -6 -7 -7 -6 -7 -7 -6 -6 -5 -5 -6 -5 3 5 5 8 9 9 8 8 8 8 9 9 11 10 10 11 10 10 10 10 9 8 9 8 7 7
-2 -1 0 -2 -3 -3 -2 -3 -5 -6 -7 -8 -7 -7 -6 -6 -7 -7 -7 -7 -5 -6 -5 -1 5 6 8 9 9 8 7 9 9 9 8 10 10 10 11 10 10 10 9 7 6 8 7 6 7
-2 -1 -0 -3 -4 -3 -3 -3 -6 -8 -8 -8 -7 -5 -5 -5 -7 -6 -7 -7 -6 -4 -4 -1 4 7 8 9 8 8 7 10 9 9 9 9 10 9 10 10 9 9 7 5 7 7 8 7 7
-4 -2 -4 -3 -8 -10 -8 -9 -10 -9 -6 -5 -5 -5 -5 -5 -2 -1 -2 -4 -3 -4 -4 -5 3 7 8 8 8 8 6 7 8 9 9 9 9 9 10 10 9 9 8 4 4 7 8 7 7
-4 -8 -7 -7 -9 -8 -7 -6 -10 -8 -7 -6 -5 -5 -5 -2 2 2 -0 -3 -4 -4 -1 -3 6 7 9 8 8 8 6 4 5 8 9 9 9 10 10 10 10 9 8 4 1 4 8 6 7
-8 -9 -8 -9 -8 -9 -2 -4 -4 -6 -5 -5 -6 -5 -0 3 3 2 0 -3 -3 1 1 1 7 10 9 8 8 8 6 4 6 8 9 9 10 10 10 9 10 9 8 3 -1 5 7 6 6
-7 -6 -6 -5 -5 -0 -4 -5 -3 -4 -4 -2 -2 2 4 4 3 3 3 -0 -1 2 2 6 9 10 9 9 8 8 6 4 8 8 8 9 9 9 9 10 10 9 8 1 1 4 6 6 6
-6 -3 1 4 4 2 -2 -0 -3 -3 -1 2 4 4 4 4 4 4 4 4 1 1 3 7 9 9 9 9 9 7 5 6 8 8 8 8 8 8 8 9 10 10 9 7 0 1 5 6 6
-4 -3 2 4 4 2 2 4 2 2 4 4 4 4 4 3 4 4 4 6 4 3 3 7 9 9 9 9 9 7 4 7 7 7 7 8 8 7 8 9 9 9 9 8 2 0 5 4 6
-4 -2 -4 -1 -0 3 1 2 -2 3 5 5 5 4 4 4 4 4 4 7 5 3 3 5 9 9 8 9 8 5 5 7 7 7 8 8 8 7 8 9 9 9 8 7 6 2 3 4 5
-7 -5 -0 1 4 3 1 2 1 3 4 5 5 5 6 4 4 4 5 6 7 8 8 9 10 9 8 8 8 4 5 7 7 8 8 7 7 7 8 8 8 8 8 7 5 4 4 4 4
-5 -4 -3 -2 1 2 1 0 0 3 3 6 6 6 5 4 3 4 6 7 9 8 8 9 10 9 8 8 8 3 6 7 7 7 7 7 7 8 8 8 8 8 7 7 6 7 6 4 5
-5 -2 -3 1 1 3 1 0 3 2 4 5 7 5 4 4 5 6 7 8 9 8 9 10 9 10 9 8 7 2 6 7 7 7 8 7 7 8 8 7 7 7 7 7 7 5 5 4 5

GFSSGP_850_dewp_105.txt.gz
Dewpoint
-2 -0 -7 -8 -4 -3 -3 -5 -6 -6 -7 -7 -6 -4 -0 2 6 1 3 -2 -6 -8 -8 -4 1 5 7 8 7 6 7 9 10 11 11 11 11 10 6 7 7 7 6 7 8 9 9 10 10
-7 -4 -7 -4 -4 -6 -9 -5 -4 -6 -7 -8 -5 -2 1 -1 2 2 2 -5 -7 -9 -10 -8 0 6 8 8 8 7 6 7 9 9 10 11 11 9 8 8 8 7 8 7 8 9 9 9 11
-8 -8 -6 -3 -2 -8 -10 -7 -5 -6 -6 -6 -7 -5 -2 2 3 1 -1 -6 -8 -8 -8 -5 -0 3 8 8 8 8 7 6 6 6 8 9 9 10 11 9 9 9 9 8 8 9 9 10 11
-7 -3 -4 -3 -5 -3 -7 -7 -6 -5 -7 -7 -8 -7 -1 1 -0 -2 -1 -6 -9 -8 -7 -5 -2 -1 4 9 9 9 8 7 6 6 7 8 10 11 11 10 10 10 9 7 6 7 8 9 10
-4 -2 -3 -2 -3 -4 -4 -5 -5 -6 -6 -7 -8 -7 2 -2 1 -2 -1 -5 -9 -8 -6 -4 -3 0 4 7 9 10 9 9 8 7 7 8 10 10 10 10 10 10 8 8 5 6 7 10 10
-2 -3 -3 -9 -10 -5 -5 -6 -5 -7 -7 -6 -7 -7 -2 -3 0 -0 -0 -5 -7 -6 -5 -3 -1 1 3 7 8 10 10 10 9 8 8 9 9 11 10 10 10 8 8 7 6 3 6 9 9
-2 -2 -5 -4 -6 -5 -6 -8 -7 -6 -6 -7 -7 -5 -2 -1 1 1 0 -4 -5 -4 -3 -2 -1 0 3 5 8 9 10 11 10 9 9 9 9 10 10 10 10 8 7 7 8 7 7 8 9
-4 -3 -2 -3 -9 -9 -7 -7 -8 -7 -6 -7 -1 -1 -1 1 3 5 3 -3 -3 -2 -1 -0 -1 -1 0 3 6 8 8 10 11 11 10 9 9 10 10 10 8 8 7 10 10 7 7 8 10
-3 -3 -3 -6 -6 -9 -6 -6 -7 -6 -6 -6 -8 -6 -6 -3 0 7 5 -1 -1 -0 -0 1 1 -0 0 2 4 6 9 9 10 12 12 11 10 10 9 9 8 6 9 9 9 7 7 9 10
-3 -3 -6 -5 -6 -6 -6 -6 -6 -6 -5 -6 -7 -7 -5 -5 -5 6 6 1 0 -0 -1 1 1 1 2 3 4 6 11 13 14 12 12 11 11 11 10 9 8 9 10 9 9 9 9 10 9
-1 -3 -4 -5 -6 -6 -6 -6 -5 -5 -5 -5 -6 -5 -4 -4 -4 1 6 4 1 1 -1 -2 1 3 3 1 2 4 12 13 13 13 12 12 12 11 11 10 9 10 11 10 10 9 10 9 9
-0 -1 -4 -4 -4 -4 -4 -4 -4 -4 -5 -6 -5 -4 -4 -5 -6 -4 0 3 3 2 1 -1 -1 2 3 3 4 4 4 10 13 13 12 12 12 12 11 10 10 11 10 10 10 10 9 9 8
0 -2 -1 -2 -3 -3 -3 -3 -3 -4 -4 -5 -4 -4 -5 -5 -5 -6 -5 3 5 4 3 2 -0 -0 1 3 5 4 4 6 12 11 11 12 11 11 11 10 9 10 9 9 10 11 9 7 10
-8 -6 -6 -4 -3 -2 -2 -2 -2 -3 -4 -4 -4 -4 -4 -5 -5 -6 -7 -5 1 2 4 5 3 1 1 4 6 6 6 7 10 8 10 11 11 11 9 9 10 10 9 10 10 10 8 6 9
-5 -5 -6 -6 -6 -4 -3 -2 -2 -3 -3 -3 -3 -4 -4 -5 -6 -6 -6 -6 -5 -3 0 4 5 3 2 5 7 7 7 7 7 6 7 9 8 10 9 10 10 10 10 10 10 10 9 7 9
-2 -1 -2 -3 -3 -4 -4 -2 -3 -4 -4 -4 -4 -5 -5 -5 -5 -6 -6 -5 -5 -4 -4 -4 3 6 3 4 7 8 8 8 8 6 7 10 10 9 10 10 10 10 10 10 10 10 8 8 8
-1 -0 1 -1 -3 -3 -3 -3 -4 -4 -4 -4 -4 -6 -6 -7 -6 -7 -7 -6 -6 -5 -5 -5 -3 5 6 5 7 8 9 8 8 7 8 9 11 11 11 11 10 10 10 9 9 9 8 5 8
-4 0 -0 -1 -2 -2 -1 -1 -3 -3 -4 -5 -5 -5 -7 -10 -8 -6 -7 -7 -7 -7 -6 -6 -5 1 7 7 8 9 10 9 8 7 8 9 9 10 11 11 11 10 10 9 7 7 7 6 8
-3 -3 -3 -1 -3 -2 -1 -1 -3 -4 -4 -5 -5 -6 -9 -11 -10 -6 -4 -5 -6 -7 -7 -5 -6 -1 7 7 8 10 9 9 8 8 7 9 10 10 11 11 10 10 10 9 8 8 6 9 7
-4 -3 -2 -2 -3 -3 -3 -3 -6 -8 -9 -10 -10 -10 -11 -7 -5 -2 0 0 -2 -5 -7 -5 -4 -2 5 8 8 9 9 8 8 9 8 10 10 9 10 10 10 10 10 10 8 7 8 8 8
-3 -2 -2 -2 -5 -8 -8 -9 -14 -11 -11 -10 -9 -7 -5 -4 1 2 1 1 0 -3 -5 -4 -1 -1 5 8 9 9 9 9 8 10 9 8 9 10 10 10 10 10 10 9 9 7 8 7 7
-5 -5 -4 -3 -4 -4 -8 -10 -9 -9 -9 -7 -7 -5 -3 4 3 2 2 2 1 -1 -3 -2 1 0 5 9 9 9 8 8 7 7 9 8 8 9 9 9 10 9 8 8 8 8 8 6 7
-7 -6 -5 -5 -6 -8 -8 -5 -5 -6 -6 -6 -5 1 4 4 3 3 3 3 3 0 -2 -1 1 3 4 8 9 9 9 8 7 6 7 7 8 10 10 10 10 9 9 8 7 7 7 5 5
-9 -7 -6 -5 -5 -1 -4 -4 -4 -5 -5 -2 3 4 4 4 3 3 3 3 4 2 1 2 3 6 6 8 9 9 8 8 7 5 6 8 9 9 8 9 9 9 9 8 7 7 7 6 6
-5 -2 1 4 1 1 -4 -4 -4 -4 0 4 4 3 3 3 3 4 4 4 4 5 6 4 6 10 9 8 9 9 8 8 6 4 6 8 8 9 9 9 10 9 9 9 7 7 6 6 7
-4 -3 -1 0 4 0 -1 -1 -2 -1 4 4 3 3 3 4 4 4 3 4 4 6 7 6 8 10 9 8 9 9 8 8 6 5 8 8 8 8 9 9 9 9 9 9 7 6 5 4 6
-4 -3 -3 -1 0 1 -1 0 -1 5 4 4 3 4 4 4 4 4 4 4 5 7 8 8 9 10 10 10 9 9 8 7 4 7 7 7 8 8 9 8 8 9 9 8 7 4 1 4 4
-5 -4 -1 -0 1 1 -1 -0 -1 3 2 4 3 4 4 4 3 3 5 4 6 7 9 9 9 10 10 10 10 9 8 6 5 7 7 7 8 8 8 8 8 9 9 9 8 4 3 5 4
-6 -6 -3 -2 -0 -2 -1 -2 -2 2 2 2 4 5 4 5 5 5 6 5 8 8 9 9 9 9 10 10 10 9 8 4 6 7 7 8 7 7 8 8 8 9 9 8 8 8 5 2 3
-4 -4 -5 -3 -0 0 -2 -3 2 2 2 4 5 6 5 6 5 5 4 5 8 8 9 9 9 9 9 10 9 9 7 4 7 7 8 7 7 7 8 7 8 8 8 8 8 7 7 4 5

GFSSGP_850_dewp_108.txt.gz
Dewpoint
-6 -5 -3 -6 -7 -10 -11 -13 -13 -7 -7 -7 -7 -2 -2 -3 -1 -1 2 7 -6 -9 -10 -9 -6 -1 5 8 9 7 6 9 10 12 12 11 11 10 7 7 8 7 7 6 6 8 9 10 11
-1 -1 -6 -8 -11 -11 -13 -13 -9 -10 -8 -7 -5 -5 -3 -4 1 6 8 -4 -8 -11 -9 -10 -9 -2 6 8 8 7 6 9 10 11 12 12 11 10 8 8 8 7 6 6 7 8 9 10 11
-3 -4 -9 -10 -11 -12 -14 -13 -11 -7 -6 -7 -6 -4 -4 -3 4 5 7 -6 -8 -11 -10 -10 -6 -1 4 7 7 7 6 7 10 11 12 12 11 10 8 9 8 8 11 10 10 9 10 10 11
-4 -6 -8 -9 -12 -11 -11 -13 -7 -7 -7 -7 -8 -7 -2 3 5 5 -1 -6 -8 -10 -10 -9 -5 -1 3 7 8 8 7 6 7 8 10 11 11 10 8 9 8 9 10 9 8 8 9 9 11
-4 -6 -10 -9 -12 -14 -9 -11 -6 -7 -9 -7 -8 -8 -4 4 3 7 0 -6 -9 -9 -8 -7 -4 -1 3 6 8 9 8 7 7 7 8 10 11 10 9 10 9 8 9 8 7 6 9 10 10
-7 -7 -9 -10 -12 -12 -9 -11 -8 -8 -10 -8 -7 -8 -7 4 4 6 1 -4 -8 -8 -8 -6 -4 -1 2 5 8 9 9 9 8 7 7 8 10 10 11 10 10 10 9 8 8 6 9 10 10
-5 -7 -9 -11 -12 -13 -12 -11 -9 -11 -10 -8 -6 -7 -4 4 10 2 -0 -2 -7 -7 -6 -5 -4 -1 3 5 8 9 10 10 9 8 8 8 9 10 11 11 10 10 8 9 9 6 9 10 10
-6 -6 -6 -9 -8 -10 -12 -9 -11 -12 -11 -6 -4 -4 -2 5 4 4 1 0 -3 -6 -5 -4 -3 -1 2 4 7 9 10 10 10 10 9 10 10 11 11 11 10 10 9 9 8 8 8 9 11
-5 -5 -5 -6 -8 -10 -9 -9 -7 -7 -7 -7 -6 -5 -0 -5 -2 10 8 11 4 -3 -3 -3 -2 0 2 4 5 7 9 11 11 11 10 10 11 11 11 11 11 11 9 8 9 10 9 9 10
-5 -4 -5 -7 -8 -8 -10 -9 -9 -8 -9 -8 -7 -4 2 2 8 10 11 11 10 0 -1 -1 -1 0 1 5 10 7 7 9 12 12 12 11 12 13 13 12 11 10 9 8 9 11 10 9 10
-4 -4 -5 -6 -8 -8 -9 -9 -9 -8 -10 -10 -7 -6 -4 2 4 7 8 9 9 10 11 5 1 1 2 8 12 11 6 12 12 12 12 12 12 11 11 11 10 9 8 9 10 10 9 9 10
-3 -5 -5 -6 -6 -7 -7 -9 -8 -8 -8 -9 -7 -6 -4 -4 1 3 4 7 8 10 11 9 3 2 2 12 9 13 4 11 11 10 12 12 11 11 11 11 12 12 11 11 11 10 10 10 10
-3 -4 -5 -4 -5 -6 -6 -6 -6 -6 -6 -5 -6 -5 -4 -4 -3 0 2 3 6 9 12 13 3 3 2 5 9 12 11 7 5 11 12 12 12 12 12 12 11 10 10 11 11 10 10 10 10
-7 -6 -5 -5 -4 -5 -4 -5 -5 -4 -4 -4 -4 -4 -5 -5 -4 -2 1 3 5 8 10 12 5 5 5 4 1 3 5 10 5 7 11 11 11 12 12 12 11 10 10 10 11 10 10 10 10
-8 -6 -7 -7 -7 -7 -6 -5 -5 -7 -7 -6 -6 -6 -6 -4 -4 -4 -2 3 5 6 8 11 6 5 6 5 2 3 5 5 6 6 10 11 11 9 12 11 11 10 11 10 10 10 10 10 9
-6 -6 -5 -7 -7 -7 -6 -2 -5 -4 -4 -4 -4 -4 -3 -4 -4 -4 -2 -0 1 3 5 8 6 2 6 7 6 2 5 6 7 7 7 7 9 10 10 10 11 11 11 10 9 10 10 10 8
-4 -3 -3 -4 -5 -5 -5 -3 -6 -6 -5 -5 -4 -4 -4 -4 -4 -4 -4 -3 -2 0 2 5 8 -2 4 10 10 4 4 6 8 8 8 6 6 9 8 9 10 11 10 10 10 9 9 10 8
-4 -2 -3 -2 -4 -3 -3 -3 -5 -4 -4 -3 -3 -4 -4 -4 -4 -5 -4 -3 -4 -3 -1 2 6 1 5 12 10 6 5 7 8 9 8 7 6 8 10 10 11 11 10 10 9 10 9 10 8
-6 -7 -6 -8 -6 -3 -3 -4 -4 -5 -4 -4 -4 -4 -5 -4 -5 -7 -3 -0 -0 -3 -7 -7 -3 0 7 9 8 7 5 8 9 9 9 8 6 7 9 11 11 11 10 10 9 9 9 9 9
-5 -3 -6 -9 -5 -3 -5 -5 -6 -6 -6 -6 -8 -10 -10 -9 -11 -4 1 3 3 1 4 -1 -1 5 8 7 7 8 7 8 9 9 9 8 6 7 9 10 10 10 10 10 9 9 8 8 4
-3 -3 -4 -7 -8 -6 -6 -7 -9 -11 -13 -14 -14 -12 -12 -9 -5 -0 2 3 4 4 4 5 7 8 10 11 9 11 9 9 10 9 9 9 7 9 10 10 11 10 10 10 9 9 8 6 5
-5 -8 -8 -5 -1 -5 -10 -9 -11 -12 -11 -11 -10 -8 -6 -1 2 2 3 3 4 5 5 5 8 9 11 11 10 11 8 9 9 9 9 10 8 8 9 10 10 9 10 10 10 9 8 6 8
-7 -10 -8 -6 -5 -6 -10 -9 -12 -9 -9 -9 -8 -4 1 3 3 3 4 4 3 5 8 7 9 10 10 11 11 12 11 11 11 10 10 8 11 9 9 9 9 9 10 9 10 8 8 7 8
-8 -6 -7 -7 -7 -5 -8 -11 -11 -9 -8 -7 -2 1 3 3 3 3 3 3 3 5 7 9 10 10 9 9 12 11 12 11 10 9 8 6 11 10 8 9 9 9 9 9 9 8 8 7 8
-8 -5 0 1 0 -3 -5 -5 -8 -7 -5 -4 -0 0 1 2 2 2 2 3 4 5 6 9 10 10 8 10 12 11 12 11 10 9 8 5 9 7 8 9 9 9 9 10 9 8 8 7 8
-6 -4 -4 0 0 -2 -3 -2 -5 -7 -3 1 -0 -0 1 1 2 2 2 3 4 5 6 8 10 10 10 9 11 11 10 11 10 9 7 4 6 8 9 9 9 9 9 9 8 8 8 7 7
-4 -2 -6 -2 -2 -0 -3 -3 -1 0 1 1 -0 -0 -0 1 1 3 3 4 5 6 7 8 10 10 9 9 10 10 10 10 10 9 7 7 9 8 9 9 9 9 9 9 9 8 8 8 7
-8 -8 -2 -3 -3 -3 -8 -5 -5 2 1 1 -0 -1 1 2 4 4 4 5 5 5 7 8 9 9 9 9 10 10 10 10 10 9 4 6 7 8 8 8 9 8 9 9 9 8 8 8 8
-8 -4 -4 -5 -4 -5 -6 -4 -4 -4 -2 -1 -1 1 3 5 5 4 5 5 4 5 7 9 10 9 9 9 10 10 10 9 9 8 6 6 7 8 8 8 9 9 9 9 9 9 7 7 7
-11 -9 -6 -3 -3 -3 -4 -5 -1 0 -0 0 2 3 4 5 4 4 4 4 4 5 9 9 9 9 9 9 10 10 10 9 8 7 6 6 7 8 7 7 8 8 9 9 9 8 7 7 6

GFSSGP_850_dewp_111.txt.gz
Dewpoint
-14 -10 0 -6 -8 -11 -12 -12 -15 -12 -9 -9 -8 -5 -5 -5 -3 2 6 9 8 8 -8 -7 -7 -7 -1 5 7 8 7 7 9 10 12 11 10 10 7 7 8 9 11 9 9 10 10 11 11
-5 -1 -3 -8 -8 -10 -11 -14 -13 -14 -10 -7 -6 -6 -5 -3 -3 5 7 8 7 1 -6 -7 -8 -8 -1 5 7 7 6 8 10 11 12 11 11 10 8 8 9 11 12 7 7 8 10 11 11
2 -2 -8 -11 -9 -11 -13 -14 -14 -12 -8 -7 -8 -7 -7 -5 -1 1 6 7 8 5 -7 -8 -8 -9 1 6 7 7 6 8 10 11 12 12 11 11 9 8 8 8 10 7 6 10 9 10 11
-1 -5 -8 -7 -9 -11 -13 -14 -15 -9 -9 -8 -8 -6 -5 1 1 2 7 7 8 9 8 -8 -8 -7 -3 4 7 7 7 7 9 11 12 12 12 11 10 8 9 8 9 9 8 9 8 10 10
-4 -8 -9 -10 -11 -13 -14 -14 -12 -9 -10 -8 -8 -8 -6 0 2 4 7 8 8 9 6 -8 -7 -5 -3 1 6 8 7 7 8 10 11 12 12 11 10 9 9 8 9 8 8 9 9 9 10
-5 -7 -6 -7 -10 -12 -14 -12 -12 -9 -10 -9 -7 -8 -7 1 3 6 9 9 10 5 -4 -8 -7 -4 -0 1 5 8 8 8 8 9 10 11 11 11 10 9 10 9 10 9 8 8 8 9 8
-4 -6 -7 -8 -9 -11 -13 -11 -12 -10 -10 -10 -9 -8 -7 0 3 7 9 10 11 -4 -7 -8 -6 -4 -0 2 5 8 9 9 8 8 9 9 10 11 10 10 10 10 10 9 8 8 9 10 10
-5 -5 -4 -6 -6 -9 -13 -12 -12 -13 -11 -11 -8 -8 -7 2 9 10 9 11 12 2 -7 -7 -6 -4 -2 -0 3 7 9 9 9 9 9 9 10 11 10 11 11 10 10 9 8 9 10 8 9
-5 -3 -2 -4 -5 -7 -11 -11 -11 -12 -15 -10 -9 -7 -1 4 8 9 9 10 12 12 9 3 -4 -3 -2 -1 -0 5 8 9 10 10 10 9 11 12 11 12 11 11 11 10 9 9 9 9 9
-4 -2 -2 -5 -7 -7 -9 -10 -11 -10 -11 -10 -7 -5 -1 2 5 8 8 9 11 12 11 12 12 13 2 -1 -1 2 6 7 9 10 11 10 12 13 13 13 12 11 11 11 9 8 9 10 9
-4 -2 -4 -5 -6 -7 -8 -8 -9 -9 -9 -12 -8 -7 -4 -1 2 5 6 5 9 10 10 10 13 14 11 12 13 13 7 11 10 13 13 13 14 13 13 13 13 11 11 11 10 8 9 11 9
-3 -4 -4 -4 -5 -6 -7 -7 -7 -9 -8 -10 -11 -9 -6 -5 -3 0 3 4 4 7 10 11 12 14 14 12 12 12 12 13 13 14 12 12 13 13 12 12 12 11 12 11 11 9 11 11 10
-4 -4 -4 -4 -5 -5 -5 -6 -6 -7 -8 -8 -8 -8 -7 -5 -5 -3 -1 0 1 3 7 10 12 14 14 11 12 12 13 6 14 14 14 13 14 12 11 12 12 12 11 11 11 11 11 10 9
-6 -4 -5 -4 -4 -5 -4 -5 -5 -6 -6 -6 -6 -5 -6 -6 -6 -6 -3 -1 -0 1 4 10 12 13 14 14 13 13 13 13 6 10 12 12 12 12 12 11 11 12 11 11 10 10 10 8 9
-8 -6 -6 -6 -5 -4 -4 -3 -4 -5 -5 -4 -4 -4 -5 -6 -6 -6 -5 -3 -1 0 2 8 12 13 8 14 14 13 13 13 14 7 9 11 12 11 11 12 11 11 11 11 10 11 10 10 10
-6 -6 -4 -7 -7 -7 -6 -2 -5 -5 -5 -5 -6 -6 -5 -6 -6 -6 -6 -5 -3 0 2 5 10 13 9 14 14 13 13 13 13 12 10 6 7 11 11 11 11 11 11 11 11 11 11 11 11
-4 -2 -3 -4 -7 -7 -6 -4 -6 -7 -5 -5 -4 -4 -4 -4 -4 -4 -4 -4 -4 -2 0 3 7 11 13 14 14 14 13 13 12 12 7 7 7 7 8 12 12 11 11 11 10 11 10 10 10
-2 -2 -3 -4 -6 -6 -5 -4 -5 -6 -6 -5 -5 -4 -4 -4 -4 -4 -4 -4 -4 -3 -2 1 4 9 12 13 14 13 13 13 11 9 6 7 7 7 7 10 11 10 10 11 11 10 10 10 10
-4 -3 -3 -4 -6 -3 -2 -3 -4 -5 -5 -4 -4 -3 -3 -4 -4 -4 -4 -2 -2 -1 -0 -0 1 4 10 12 12 13 13 12 9 12 13 11 9 8 6 11 10 10 10 10 11 10 10 10 9
-4 -3 -1 -4 -5 -5 -4 -3 -5 -6 -6 -6 -4 -4 -4 -5 -5 -4 -5 -3 1 2 2 3 3 4 6 10 11 13 13 13 12 9 12 11 11 9 7 10 11 10 11 11 11 9 10 10 9
-6 -4 -2 -4 -6 -5 -6 -4 -6 -9 -9 -8 -7 -6 -7 -9 -9 -8 -6 0 2 3 3 4 4 5 7 10 11 13 12 12 12 9 8 10 10 9 11 10 10 11 11 10 10 10 9 9 9
-6 -6 -5 -4 -2 1 -3 0 -5 -7 -11 -11 -10 -12 -12 -12 -10 -6 -1 1 2 3 4 7 6 6 7 10 11 12 12 12 12 11 11 11 10 10 9 9 10 11 11 10 9 10 8 9 8
-7 -6 -4 -4 -3 -3 -4 -2 -4 -10 -11 -11 -11 -11 -8 -5 -1 -1 0 1 1 1 4 7 8 8 8 9 11 12 12 12 12 12 11 11 11 9 11 10 10 11 10 10 9 9 9 8 8
-8 -7 -6 -6 -4 -2 -4 -6 -7 -9 -9 -12 -12 -7 -2 -0 -0 -0 -0 1 0 2 4 6 8 9 9 9 11 12 11 12 11 12 12 12 11 10 10 10 10 10 10 10 10 10 9 9 8
-6 -2 1 1 0 0 -6 -6 -8 -11 -10 -9 -5 -2 -1 -0 -0 0 -1 -0 0 1 4 5 5 8 9 10 11 11 11 11 11 11 12 11 11 9 9 10 10 9 9 10 9 9 9 9 8
-5 -4 3 4 3 -1 -7 -3 -7 -11 -9 -6 -3 -2 -2 -1 -0 -0 -0 2 2 3 4 5 6 7 9 10 10 11 11 11 11 11 11 11 10 9 8 10 10 9 9 10 9 10 9 8 8
-5 -5 -6 -1 -0 2 -1 -5 -3 -8 -6 -2 -3 -4 -3 -2 -1 1 2 3 4 4 4 5 7 7 8 9 10 10 11 11 12 11 11 11 10 9 9 10 8 8 9 9 9 9 9 8 8
-7 -8 -3 -3 -1 -2 -5 -3 -3 -3 -2 -2 -3 -3 -2 -1 1 2 3 3 4 4 4 5 7 8 8 9 10 9 10 11 11 11 11 10 8 8 10 9 9 9 10 9 9 9 8 8 8
-9 -6 -6 -7 -6 -4 -3 -3 -3 -2 -3 -2 -3 -3 -2 0 2 2 3 3 4 4 4 5 8 9 8 10 9 9 10 11 11 11 11 10 6 9 9 9 8 9 9 9 9 9 9 8 8
-14 -8 -7 -5 -5 -6 -3 4 -4 -3 -3 -3 -2 -1 1 2 5 4 4 4 4 4 4 5 9 9 9 9 9 8 10 10 10 10 9 7 7 9 9 9 8 8 8 9 9 8 8 8 8

GFSSGP_850_dewp_117.txt.gz
Dewpoint
-18 -21 -10 1 2 -4 -4 -6 -9 -10 -12 -8 -8 -7 -4 0 6 10 10 8 8 -4 -7 -6 -7 -8 -5 -1 3 7 9 10 9 9 10 10 10 10 6 5 6 6 7 6 8 10 10 10 10
-20 -15 -2 -1 -1 -3 -5 -8 -8 -12 -8 -9 -10 -8 -4 4 8 9 8 8 -1 -6 -6 -8 -10 -8 -2 2 5 7 8 8 7 7 10 11 10 10 8 6 6 7 11 8 6 7 8 9 9
-19 -3 -1 -0 -2 -3 -5 -9 -11 -8 -8 -8 -8 -9 -7 4 7 6 -1 0 -7 -5 -7 -9 -12 -10 -2 3 6 6 6 6 7 9 10 11 10 10 9 7 7 8 9 8 6 6 5 6 8
-10 -0 3 -3 -3 -5 -7 -8 -11 -10 -8 -9 -9 -7 -4 3 6 5 -1 -5 -5 -5 -7 -8 -12 -10 -2 4 5 5 5 7 9 10 11 11 11 11 10 8 7 8 9 8 7 6 7 8 8
3 4 -1 -3 -5 -7 -9 -10 -11 -12 -9 -9 -9 -9 -2 1 4 4 -3 -4 -5 -5 -7 -7 -9 -11 -4 2 5 6 6 6 8 10 11 12 11 11 11 10 8 9 10 9 9 8 8 6 8
3 1 -1 -1 -4 -7 -9 -10 -12 -12 -10 -9 -9 -8 -1 5 4 3 -1 -5 -3 -4 -6 -7 -7 -11 -8 -3 3 6 7 7 7 8 10 11 12 11 11 10 9 9 10 10 9 9 8 8 8
3 1 0 -1 -3 -5 -7 -9 -9 -9 -9 -8 -10 -8 1 6 5 5 2 -2 -0 -2 -6 -7 -7 -9 -9 -7 -3 2 6 7 7 7 8 9 11 11 10 11 10 10 10 10 10 9 8 8 8
2 1 2 0 -2 -4 -8 -9 -10 -12 -11 -11 -10 -8 -6 6 5 6 7 5 3 1 -3 -6 -7 -8 -9 -8 -6 -4 0 4 6 7 7 8 9 10 10 10 11 10 11 11 10 10 9 8 6
-1 1 2 1 -1 -3 -6 -6 -7 -12 -12 -13 -13 -9 2 5 6 7 9 9 7 6 1 -6 -7 -7 -8 -8 -7 -5 -2 1 4 6 7 8 8 8 9 10 10 10 11 10 10 10 9 9 8
-2 1 1 -2 -3 -3 -4 -5 -6 -10 -11 -12 -12 3 6 7 8 8 9 9 9 6 3 -1 -6 -6 -6 -6 -6 -5 -3 -1 2 4 6 7 8 8 9 9 10 11 11 11 10 10 9 9 9
-4 0 -1 -2 -3 -3 -4 -5 -5 -8 -9 -11 -11 -0 -1 5 8 9 9 9 7 7 4 -2 -4 -6 -6 -6 -6 -4 -4 -3 1 3 5 7 8 8 9 9 10 11 11 11 11 11 10 10 8
-5 -5 -4 -3 -3 -4 -4 -4 -4 -5 -8 -10 -11 -6 -3 -5 2 6 8 10 9 9 8 6 -0 -2 -4 -6 -5 -4 -4 -4 -2 0 3 5 8 9 9 9 11 11 11 11 11 11 11 11 9
-9 -8 -7 -6 -4 -4 -4 -4 -4 -4 -5 -6 -7 -6 -6 -5 -4 -1 4 7 9 9 8 6 1 0 1 2 -1 -1 1 -2 1 0 0 1 6 9 10 11 11 11 12 12 12 11 11 11 10
-6 -7 -7 -7 -6 -5 -4 -4 -4 -4 -5 -5 -6 -6 -6 -6 -4 -2 -1 1 5 9 8 7 5 1 -1 1 3 3 5 8 8 8 3 3 5 9 10 11 11 11 12 12 12 11 11 11 10
-6 -5 -5 -5 -7 -6 -5 -3 -3 -4 -4 -5 -5 -6 -6 -6 -5 -5 -5 -4 -2 -1 8 10 8 7 7 6 7 8 6 11 12 10 9 6 8 10 11 12 12 11 11 11 12 12 11 11 11
-14 -9 -4 -5 -5 -6 -5 -2 -4 -4 -4 -5 -5 -5 -5 -5 -6 -6 -6 -6 -5 -4 -2 6 10 9 9 9 9 10 8 11 12 12 10 8 8 10 11 12 11 11 11 11 11 12 12 11 10
-12 -7 -6 -4 -6 -5 -4 -2 -4 -4 -4 -4 -4 -4 -5 -5 -5 -5 -6 -5 -7 -6 -4 0 7 9 9 9 10 10 10 12 13 13 12 12 9 11 11 10 12 12 12 11 11 11 12 11 11
-7 -7 -7 -3 -5 -5 -4 -4 -5 -5 -5 -4 -4 -4 -4 -4 -5 -5 -5 -5 -5 -6 -5 -3 3 7 8 10 10 10 10 13 13 12 12 13 12 11 12 12 12 12 11 11 11 11 12 12 10
-8 -5 -6 -5 -5 -4 -4 -4 -6 -6 -7 -6 -6 -6 -5 -5 -5 -5 -5 -5 -5 -6 -6 -5 2 8 10 11 12 12 8 8 13 13 12 11 13 13 13 13 13 13 12 10 10 11 12 11 11
-8 -7 -5 -5 -5 -3 -3 -0 -5 -3 -5 -7 -7 -6 -6 -5 -4 -4 -5 -5 -4 -3 -2 1 7 10 10 11 11 10 7 6 10 13 13 12 12 13 11 14 13 13 11 12 11 10 11 12 11
-7 -8 -7 -4 0 1 1 2 1 -1 -6 -6 -7 -6 -6 -4 -4 -3 -3 -3 -2 -2 -1 -1 2 5 6 4 6 10 11 12 12 15 14 13 13 13 12 10 13 13 12 11 11 12 10 10 10
-7 -10 -10 -7 -4 6 1 3 0 0 -4 -5 -6 -6 -5 -4 -4 -3 -3 -2 -2 -1 -1 0 2 3 5 8 9 5 6 6 9 11 14 14 13 12 12 12 12 13 11 10 10 10 10 10 10
-8 -9 -11 -8 -1 5 4 5 -0 -3 -3 -4 -5 -5 -6 -9 -3 -5 -3 -1 1 2 3 3 4 4 4 5 7 8 6 7 10 10 13 14 12 11 12 12 12 12 10 10 11 10 9 10 10
-10 -9 -8 -0 4 7 2 2 0 -3 -4 -5 -5 -5 -5 -7 -6 -1 1 2 4 4 5 5 5 4 5 6 8 8 9 9 9 11 11 12 10 11 11 12 12 11 11 10 10 9 10 9 10
-9 -9 3 7 7 5 -0 1 -0 -4 -5 -5 -5 -5 -4 -4 -1 1 2 3 4 5 5 5 5 4 5 5 6 9 9 9 11 10 11 11 11 10 11 11 11 11 11 11 10 8 9 10 9
-7 -0 4 7 5 2 -3 2 -1 -4 -6 -6 -6 -1 -0 -1 2 3 3 3 3 3 3 2 3 2 4 4 3 6 8 10 10 12 11 11 11 10 10 10 11 11 11 11 10 9 9 9 10
-3 -1 -1 4 3 5 -0 -4 -5 -5 -3 -2 -0 0 1 3 3 4 4 3 3 2 2 -1 -3 -2 -1 1 1 1 3 8 11 10 10 10 12 11 10 11 11 11 11 10 9 9 9 9 9
-5 -4 3 6 7 8 7 1 1 1 3 4 7 5 5 5 4 4 4 4 4 3 3 1 1 1 1 2 2 2 3 5 10 11 10 9 11 13 11 11 11 10 10 10 9 9 9 9 9
-1 -2 1 4 2 4 9 8 2 3 2 6 7 7 5 4 4 4 4 4 4 3 3 3 3 2 2 2 2 5 6 7 8 10 10 8 11 12 12 11 11 10 10 10 9 9 9 9 9
-0 1 -1 2 3 0 5 7 5 6 6 6 6 5 4 3 3 3 2 2 2 1 1 2 2 2 2 2 3 7 10 9 8 10 10 9 12 12 11 10 10 10 9 8 9 9 10 9 9

GFSSGP_850_dewp_120.txt.gz
Dewpoint
-13 -19 -11 1 -1 -3 -3 -4 -8 -9 -9 -11 -7 -3 1 3 5 8 8 9 10 1 -5 -7 -6 -4 -3 -1 3 6 9 10 10 10 10 10 10 6 4 5 5 5 6 6 8 9 9 9 9
-16 -12 -1 -0 0 -2 -4 -6 -6 -9 -10 -10 -8 -4 2 8 9 8 10 10 5 -6 -7 -6 -6 -6 -4 -2 2 6 9 10 9 10 10 10 10 8 5 6 6 7 6 5 5 7 7 8 9
-18 -4 -1 -0 -0 -1 -5 -8 -10 -10 -11 -9 -8 -9 -1 7 8 8 10 5 -7 -6 -6 -8 -8 -7 -5 -1 4 7 8 8 7 8 10 10 10 10 6 6 7 8 8 7 5 7 8 9 9
-18 -4 2 2 0 -4 -6 -8 -9 -9 -10 -10 -8 -8 3 3 5 7 6 -4 -5 -6 -9 -11 -9 -8 -5 -0 5 6 5 5 6 8 10 11 10 10 9 7 7 8 7 8 6 6 7 9 10
-6 4 4 0 -1 -4 -7 -8 -8 -9 -11 -12 -9 -8 3 6 4 -2 -6 -7 -5 -6 -9 -12 -11 -9 -6 1 4 5 5 6 8 9 11 11 10 11 10 8 8 8 8 9 8 8 8 8 10
3 3 1 3 0 -5 -7 -8 -9 -9 -10 -11 -9 -2 3 6 4 -2 -7 -6 -5 -6 -8 -10 -12 -9 -6 0 4 5 6 7 8 9 10 11 11 11 10 10 8 8 9 9 9 8 8 8 9
3 2 2 0 -2 -3 -5 -6 -8 -8 -8 -8 -10 -4 7 7 4 -0 -6 -6 -4 -6 -8 -8 -11 -10 -7 -3 2 5 6 6 7 8 9 10 11 11 10 10 9 9 9 9 9 8 8 8 8
3 2 4 2 1 -1 -4 -5 -7 -8 -11 -10 -9 -2 7 7 4 -1 -2 -5 -4 -5 -7 -7 -8 -11 -9 -6 -2 1 5 6 7 7 8 9 9 10 10 10 10 9 9 10 9 9 8 8 7
-2 1 4 4 2 1 -3 -3 -5 -5 -6 -11 -9 -9 1 6 6 4 4 4 1 -3 -6 -7 -7 -8 -10 -8 -6 -3 -0 3 5 6 7 7 8 8 9 9 10 10 10 10 10 9 9 8 7
-4 1 2 -0 -0 -0 -2 -3 -4 -5 -6 -8 -2 -10 4 7 8 7 5 2 4 2 -4 -6 -6 -7 -8 -8 -8 -7 -4 -2 -0 2 5 6 7 8 8 9 10 10 10 10 10 10 10 9 8
-7 -2 -1 -1 -1 -2 -2 -2 -3 -4 -4 -6 -1 1 4 7 8 8 6 2 -2 0 1 -3 -6 -6 -7 -8 -8 -7 -6 -4 -2 -2 1 5 7 8 8 9 10 10 10 10 10 10 10 10 9
-10 -11 -8 -5 -4 -2 -2 -3 -3 -4 -4 -5 -7 4 6 8 8 8 7 5 3 1 0 0 -3 -5 -6 -5 -6 -7 -6 -6 -4 -3 -1 2 5 7 8 9 9 10 10 10 10 10 10 10 10
-4 -8 -10 -10 -8 -6 -4 -3 -3 -4 -4 -4 -5 2 8 8 8 8 6 6 6 6 4 1 -1 -4 -5 -5 -5 -5 -5 -5 -5 -2 -1 -0 2 4 6 8 9 10 11 11 11 11 11 11 11
-10 -10 -7 -7 -9 -9 -6 -6 -4 -4 -4 -4 -4 -5 -1 6 8 9 9 8 8 8 6 6 5 -0 -4 -5 -5 -6 -5 -5 -4 -3 -1 -1 0 3 4 7 9 10 11 11 11 11 11 11 11
-10 -10 -12 -10 -6 -6 -7 -5 -5 -6 -5 -4 -4 -5 -6 -6 -2 5 6 8 9 8 7 7 6 6 -0 -3 -3 -2 -3 -1 -1 1 4 1 1 3 5 7 9 10 11 12 12 12 13 12 11
-7 -8 -8 -12 -10 -7 -5 -3 -6 -6 -5 -4 -4 -4 -5 -5 -6 -1 0 2 2 2 8 8 9 7 6 3 2 2 2 2 3 3 8 9 7 5 8 10 10 11 12 12 12 12 12 11 10
-7 -5 -7 -9 -11 -7 -5 -3 -5 -6 -5 -4 -4 -4 -5 -5 -5 -6 -6 -4 -3 -4 -4 -0 8 9 8 7 7 6 6 5 4 6 9 10 11 8 8 10 11 12 12 12 11 11 11 11 11
-6 -6 -7 -8 -12 -9 -6 -4 -5 -5 -5 -4 -4 -4 -5 -5 -5 -5 -5 -6 -6 -6 -7 -6 -2 5 7 9 9 10 9 9 8 7 9 11 11 11 10 10 12 13 12 12 12 11 11 11 12
-4 -4 -5 -8 -9 -8 -10 -5 -5 -6 -5 -4 -4 -4 -4 -4 -4 -5 -4 -5 -5 -6 -5 -5 -4 2 7 10 11 12 12 11 11 10 8 11 11 12 12 10 11 13 13 12 12 12 12 11 11
-6 -2 0 -5 -9 -8 -7 -7 -6 -6 -6 -5 -5 -5 -5 -5 -5 -5 -5 -5 -5 -5 -5 -5 -4 1 5 8 10 11 11 12 11 11 9 12 12 13 13 12 11 12 13 13 12 12 11 11 10
-3 -4 -3 -1 -8 -9 0 2 -1 -1 -5 -6 -6 -6 -7 -6 -6 -6 -5 -5 -5 -5 -4 -4 -2 -1 5 8 10 11 11 10 11 12 12 10 13 13 13 13 12 12 12 12 12 12 11 11 10
2 -5 -4 -2 -5 -3 2 5 0 -1 -0 -4 -6 -6 -6 -7 -6 -6 -4 -4 -3 -0 1 2 9 12 12 12 12 11 10 8 7 7 10 8 10 13 13 13 13 13 12 12 12 12 11 10 10
3 -2 -4 -2 -6 -6 -0 7 4 -1 -1 -1 -5 -6 -6 -5 -5 1 2 3 4 6 6 7 9 10 10 10 10 11 13 12 9 7 7 8 12 13 12 12 12 11 11 12 12 11 11 10 10
1 -2 -1 -4 -4 -2 -3 5 3 -2 -2 -3 -6 -6 -6 1 3 3 5 5 6 6 6 6 6 5 6 6 7 8 9 11 13 13 11 10 12 12 10 11 11 10 11 11 11 11 11 10 9
1 -0 1 1 2 5 2 6 3 -2 -5 -5 -4 -4 -3 3 3 4 4 5 5 5 5 4 4 4 4 5 6 6 8 9 10 11 12 12 12 12 12 12 11 11 11 11 11 11 11 10 9
2 -1 -1 3 5 4 3 4 -0 -4 -5 -5 -4 1 4 2 3 2 3 4 3 2 2 2 2 2 1 -1 -1 0 3 5 8 9 10 11 10 10 10 11 10 10 11 11 11 11 11 10 9
-3 -3 -6 2 4 3 0 -3 -6 1 3 -1 4 4 4 4 5 4 4 4 3 2 2 0 -2 -4 -5 -5 -4 -3 -3 -2 -2 4 8 11 11 9 9 9 9 9 10 11 11 11 10 9 8
0 -3 2 4 6 5 7 3 7 8 8 6 5 4 3 3 3 3 3 3 3 3 2 2 1 0 -2 -4 -2 -1 -1 -1 0 1 4 9 11 10 9 9 10 10 10 10 11 11 10 9 8
3 1 4 4 5 7 8 9 7 7 7 6 4 3 3 2 2 2 1 1 1 1 0 0 -0 -1 -1 -1 -1 -1 -1 -0 2 4 3 6 10 11 10 9 10 12 10 10 11 11 10 9 8
1 4 3 4 7 6 6 7 6 6 5 5 4 3 3 2 1 0 0 0 0 0 0 -1 -1 0 1 1 1 1 1 1 4 9 7 6 9 11 10 9 10 12 11 10 10 10 10 8 9

GFSSGP_850_dewp_123.txt.gz
Dewpoint
-12 -17 -15 1 -2 -2 -3 -5 -7 -9 -10 -11 -10 -6 -2 4 6 6 6 5 8 1 2 3 4 4 6 6 7 9 10 10 10 10 10 9 5 4 4 4 4 5 7 8 9 9 9 9 9
-15 -19 -6 0 -3 -3 -9 -5 -7 -9 -10 -12 -8 -1 2 6 9 8 7 8 8 3 0 -1 1 2 4 5 6 8 10 10 10 10 10 10 7 5 5 4 5 5 7 8 8 8 9 9 8
-16 -10 -3 -0 -0 -5 -10 -8 -8 -10 -10 -10 -9 -9 3 7 7 5 7 9 6 -1 -6 -7 -3 0 2 3 4 6 9 10 10 10 10 10 9 6 6 5 6 7 6 6 7 7 8 9 9
-14 -5 1 3 1 -1 -6 -8 -9 -8 -9 -10 -10 -8 4 3 4 5 7 9 0 -7 -6 -6 -5 -2 -0 2 3 6 8 9 9 9 10 10 10 8 6 6 7 7 7 5 6 6 8 8 9
-15 2 1 4 3 -1 -5 -6 -7 -8 -9 -10 -10 -9 2 5 6 6 7 3 -7 -6 -6 -9 -8 -4 -0 2 3 6 7 6 7 9 10 10 10 10 8 7 7 8 8 7 6 7 7 8 10
-0 3 4 4 -1 -3 -5 -6 -8 -8 -8 -9 -9 -8 4 9 7 8 6 -5 -6 -5 -9 -12 -9 -3 -0 3 4 4 4 4 6 9 10 11 11 10 9 8 7 8 8 8 7 8 6 9 10
2 2 4 2 -1 -2 -4 -5 -7 -6 -7 -7 -8 -4 3 7 6 7 -3 -6 -6 -7 -11 -12 -9 -3 0 3 4 4 5 6 7 9 10 11 11 11 10 9 8 8 9 9 8 8 8 9 10
3 3 4 2 2 1 -2 -4 -6 -6 -6 -6 -6 5 8 5 5 -0 -6 -5 -6 -8 -10 -12 -11 -5 0 3 5 5 6 6 7 8 10 11 11 11 10 10 9 8 8 9 9 9 8 8 10
-2 2 3 2 2 -0 -2 -2 -3 -4 -3 -4 -6 -6 0 5 4 -3 -4 -5 -6 -7 -8 -10 -11 -8 -3 1 4 5 5 6 6 7 8 9 9 10 10 10 10 10 9 9 9 9 9 8 8
-6 -1 -0 0 0 1 0 -0 -1 -3 -3 -4 -4 -5 -2 7 4 -3 -5 -5 -5 -6 -7 -8 -9 -10 -6 -4 -1 3 4 5 6 6 7 7 8 8 8 9 10 10 10 9 10 10 9 9 8
-9 -6 -6 -2 -0 -0 -1 -1 -2 -2 -2 -2 -3 -5 2 8 7 -0 -5 -5 -5 -5 -7 -7 -8 -9 -9 -8 -6 -3 -0 1 2 3 5 5 6 7 7 8 9 10 10 10 10 10 10 10 9
-10 -12 -11 -9 -5 -4 -4 -3 -2 -2 -3 -3 -3 -4 0 10 9 5 -1 -3 -3 -4 -6 -7 -7 -7 -8 -9 -8 -8 -6 -5 -5 -4 0 3 5 5 6 6 8 9 10 10 10 10 10 10 10
-9 -8 -6 -7 -8 -10 -10 -8 -5 -4 -4 -3 -3 -4 -3 8 10 7 3 2 1 0 -3 -5 -6 -6 -7 -7 -7 -7 -7 -7 -7 -6 -3 -1 0 1 4 5 8 8 9 9 9 10 10 10 10
-9 -8 -9 -10 -10 -12 -9 -8 -9 -8 -7 -6 -4 -4 -4 5 10 8 8 7 4 2 1 -0 -3 -5 -6 -6 -6 -7 -7 -6 -6 -5 -4 -3 -2 -1 2 4 7 8 9 9 10 10 10 11 11
-8 -7 -9 -10 -12 -11 -12 -7 -7 -9 -8 -7 -5 -4 -4 -4 9 11 7 7 5 4 4 2 1 1 -3 -5 -5 -5 -5 -5 -5 -4 -4 -3 -2 -1 1 3 6 8 9 10 11 11 12 12 12
-6 -7 -8 -13 -12 -12 -9 -8 -10 -7 -7 -7 -6 -6 -5 -4 -3 9 8 8 7 6 6 6 6 6 3 -2 -4 -5 -5 -4 -4 -3 -3 -2 -0 -0 1 3 5 8 10 11 12 11 12 12 12
-4 -4 -7 -9 -13 -12 -11 -10 -12 -10 -7 -6 -6 -6 -5 -5 -4 -4 -1 7 8 8 8 8 7 7 7 8 3 -1 -2 -2 -0 1 2 5 5 4 4 4 6 9 11 12 12 12 12 11 11
-8 -6 -8 -7 -10 -10 -9 -9 -10 -11 -9 -6 -6 -6 -5 -5 -4 -5 -5 0 7 8 8 8 9 8 8 9 9 6 5 5 6 6 7 9 10 10 9 8 8 10 12 13 13 13 12 11 11
-6 -5 -4 -5 -6 -5 -6 -8 -9 -10 -9 -10 -5 -5 -5 -4 -4 -4 -5 -5 -5 -5 -3 6 3 -2 4 9 10 10 8 8 9 9 10 11 11 12 11 11 10 11 13 12 13 12 12 12 11
-3 -3 -3 -5 -7 -5 -4 -4 -8 -10 -9 -10 -8 -6 -5 -4 -5 -4 -5 -5 -5 -5 -5 -5 -5 -5 -3 1 5 10 10 9 9 10 10 10 12 12 12 12 12 12 13 13 12 12 12 11 11
-1 -0 -1 -2 -3 -6 -4 -2 -7 -9 -8 -7 -9 -6 -5 -5 -4 -5 -5 -5 -5 -5 -5 -5 -5 -5 -4 -1 7 11 12 11 11 11 10 10 11 12 13 12 12 12 12 12 12 12 12 11 11
-0 -3 -1 4 2 1 -5 -1 -4 -4 -2 -2 -7 -7 -6 -6 -6 -6 -5 -5 -5 -4 -4 -4 -3 -1 3 7 12 12 12 11 10 10 9 9 8 11 13 13 13 13 13 12 11 12 11 11 11
1 -0 3 1 -1 -2 -1 1 -1 -2 1 -1 -4 -6 -6 -5 -6 -4 -1 2 1 3 3 6 8 10 12 12 14 13 11 10 11 10 7 8 9 10 12 13 13 11 12 12 11 11 12 11 11
1 2 1 -0 0 2 -1 -0 0 0 -1 -2 -3 -4 4 4 4 4 6 7 7 9 11 11 11 10 11 12 13 11 10 11 11 10 11 12 10 9 10 12 12 10 11 11 11 10 11 12 11
2 1 2 2 3 2 -3 -1 -2 -3 0 0 1 5 5 5 5 4 4 4 4 4 3 4 5 5 6 7 7 8 9 9 9 9 11 12 12 12 11 11 11 11 10 10 11 10 10 12 12
4 -0 1 2 5 3 1 1 3 2 -3 3 4 5 5 5 4 4 3 2 2 1 1 1 1 1 1 3 3 4 4 5 6 7 8 9 10 11 12 11 11 11 12 12 11 11 10 10 11
2 4 -1 -1 4 5 4 2 5 5 5 5 5 4 3 3 3 3 3 3 2 2 1 0 -1 -1 -3 -4 -4 -4 -4 -4 -4 -3 -1 2 6 9 10 11 11 11 10 9 10 11 11 11 10
3 -0 2 3 6 6 5 6 8 7 5 4 3 3 2 2 1 1 1 1 1 1 1 0 -0 -1 -2 -3 -3 -2 -2 -2 -2 -3 -3 -2 -1 3 8 9 11 11 9 8 9 10 11 11 11
4 6 5 4 6 7 7 8 6 6 5 4 3 2 1 1 0 0 0 1 1 0 0 -1 -1 -2 -4 -4 -3 -2 -2 -1 -1 -2 -3 -3 1 1 4 9 10 11 9 9 9 10 10 11 11
2 5 5 6 6 6 7 8 6 5 4 3 3 2 1 0 -0 -0 0 0 -0 0 0 -0 -1 -2 -3 -3 -3 -2 -2 -2 -2 -2 0 1 3 4 3 7 11 11 10 8 11 11 10 11 11

GFSSGP_850_dewp_126.txt.gz
Dewpoint
-11 -14 -19 -3 -5 -4 -6 -10 -7 -10 -11 -11 -11 -8 -1 4 7 9 5 5 -3 0 6 9 9 9 9 9 9 9 9 9 9 9 8 5 4 4 4 4 5 6 7 8 9 10 10 9 9
-14 -17 -7 -1 -7 -11 -16 -7 -7 -9 -11 -10 -10 -3 2 5 6 6 6 3 2 -2 3 7 8 8 8 8 9 10 10 9 9 10 9 6 4 4 4 5 5 5 7 8 9 8 8 8 8
-15 -12 -5 -0 -4 -12 -15 -11 -8 -9 -9 -9 -9 -10 -3 4 7 6 3 3 5 0 2 5 4 5 7 7 9 10 10 10 9 9 10 7 5 5 5 5 6 5 5 5 6 7 7 7 8
-13 -6 -1 -1 0 -2 -10 -10 -9 -7 -9 -9 -10 -10 -10 -1 5 6 5 6 5 2 1 1 0 3 4 4 7 9 10 10 10 9 10 9 6 6 5 6 7 6 6 4 4 5 6 7 8
-13 -2 -4 3 1 -2 -4 -6 -6 -6 -7 -8 -9 -8 -8 -8 1 5 7 6 3 0 -3 -4 -2 -0 2 2 5 8 9 10 9 9 10 10 8 6 6 6 7 7 6 3 4 5 6 6 7
-6 3 4 2 -0 -3 -4 -5 -6 -7 -7 -8 -8 -8 -7 -4 1 7 9 8 2 -5 -6 -4 -2 -2 -1 1 4 6 9 9 9 9 10 10 10 8 7 7 7 7 7 5 7 7 6 6 6
-0 3 4 3 1 -1 -3 -5 -6 -5 -6 -7 -7 -5 -5 -2 8 7 9 8 -3 -5 -5 -5 -5 -5 -4 1 4 6 8 7 7 8 10 10 10 10 8 7 8 8 8 8 7 7 6 7 7
2 2 4 2 1 1 -2 -3 -4 -4 -5 -5 -5 -3 -3 -1 4 9 9 5 -5 -5 -6 -8 -6 -3 -2 1 5 6 5 5 6 8 10 10 10 10 10 8 8 8 9 9 8 8 8 8 8
-1 2 4 2 1 -0 -3 -2 -2 -2 -2 -2 -3 -5 -4 -4 -2 9 9 -1 -4 -5 -7 -8 -6 -2 2 2 4 5 6 6 8 9 10 11 11 11 10 9 8 8 9 9 9 9 8 8 8
-5 -2 -3 -1 -1 -0 -1 -0 -0 -1 -1 -2 -2 -2 -3 -4 5 8 5 -5 -5 -6 -9 -10 -7 -3 1 4 3 5 6 8 8 9 9 10 10 10 10 9 9 9 9 9 10 9 9 8 8
-9 -6 -8 -6 -6 -3 -1 -3 -3 -2 -1 -2 -2 -2 -4 -3 3 9 2 -5 -7 -6 -8 -10 -8 -5 -1 2 4 5 6 6 7 7 7 8 9 9 9 9 9 9 10 9 9 10 10 9 9
-5 -9 -9 -7 -8 -10 -9 -9 -9 -9 -7 -4 -3 -3 -3 -3 0 9 2 -3 -4 -5 -7 -9 -9 -7 -5 -1 1 2 3 4 5 5 6 6 6 7 8 8 8 8 8 9 9 10 10 10 10
-8 -9 -9 -9 -10 -10 -11 -11 -9 -9 -9 -9 -8 -7 -5 -3 -3 2 7 4 2 -2 -6 -7 -8 -8 -8 -5 -4 -4 -3 -0 0 2 3 3 4 4 5 6 7 7 7 8 9 10 10 10 10
-9 -7 -8 -8 -9 -10 -11 -12 -12 -12 -11 -9 -9 -8 -7 -6 -4 -3 5 5 3 -1 -4 -6 -7 -7 -7 -9 -8 -7 -7 -8 -6 -4 -3 -2 -0 1 3 4 6 6 7 7 9 9 10 10 11
-7 -6 -9 -11 -12 -12 -12 -12 -11 -13 -13 -11 -10 -9 -8 -7 -5 -4 -4 4 2 -1 -3 -4 -5 -6 -6 -7 -7 -8 -8 -8 -8 -7 -5 -3 -2 -1 1 3 5 6 7 7 9 10 11 11 11
-6 -6 -5 -13 -14 -14 -14 -14 -16 -16 -12 -10 -10 -8 -7 -8 -8 -6 -4 -2 8 6 2 -2 -3 -5 -6 -6 -6 -7 -7 -6 -6 -6 -4 -3 -1 -0 2 4 5 7 8 8 9 10 11 11 12
-5 -7 -6 -9 -13 -12 -12 -11 -14 -12 -11 -10 -10 -11 -9 -7 -7 -7 -5 -3 7 9 8 5 4 1 -1 -3 -4 -5 -5 -5 -4 -3 -2 -1 0 1 3 4 5 7 9 8 10 11 12 12 12
-8 -6 -7 -7 -9 -9 -8 -7 -8 -8 -10 -11 -11 -10 -10 -9 -6 -7 -7 -5 3 9 9 8 7 6 5 4 2 -0 -2 -3 -2 -1 -1 -0 0 1 3 4 5 6 9 9 11 12 12 12 12
-6 -5 -4 -6 -7 -6 -5 -5 -6 -7 -7 -8 -9 -11 -11 -10 -9 -6 -7 -6 -5 7 9 8 8 8 8 9 8 6 3 1 -1 -1 -1 2 4 6 8 8 9 8 9 10 11 13 12 12 12
-4 -3 -2 -4 -5 -4 -4 -3 -4 -6 -7 -7 -8 -9 -12 -11 -10 -6 -6 -6 -5 -4 0 6 8 8 9 9 9 10 9 8 5 3 3 7 8 9 10 10 11 10 10 11 12 12 12 12 11
-2 -1 -2 -2 -3 -4 -1 1 -1 -4 -7 -7 -8 -9 -11 -11 -9 -7 -5 -5 -5 -5 -3 3 5 4 7 9 10 11 12 12 10 9 8 9 10 10 10 10 11 12 12 12 11 12 12 11 11
-1 -4 -3 -2 1 4 -2 2 -3 -5 -7 -8 -9 -10 -10 -7 -8 -8 -5 -4 -4 -5 -5 -5 -4 -3 1 9 10 11 10 11 11 10 11 11 11 10 9 10 10 11 13 13 12 12 11 11 11
-1 -2 1 1 4 2 -1 1 -4 -6 -5 -6 -7 -6 -7 -5 -8 -5 -3 -3 -3 -3 -4 -4 -4 -4 3 9 11 11 12 11 12 11 11 11 11 10 8 8 10 12 13 12 12 12 11 10 10
-3 1 2 2 1 3 -3 -1 -3 -4 -6 -2 2 5 4 1 2 4 4 4 5 4 4 4 2 -0 4 7 13 14 14 12 10 10 10 10 8 10 9 9 11 12 12 11 10 11 10 10 11
1 0 2 1 2 0 -3 2 -2 -4 -3 -4 2 5 4 4 4 4 4 6 8 9 10 11 12 12 12 12 13 13 13 12 11 10 7 4 5 9 8 8 9 9 11 11 9 10 11 11 10
2 4 2 2 1 1 -1 4 3 5 5 5 4 4 3 2 2 2 2 2 2 2 2 2 4 4 5 6 7 9 10 9 9 8 7 5 9 9 8 10 11 11 12 11 10 10 10 11 11
4 4 -0 1 1 3 2 3 4 5 5 4 3 2 2 2 1 1 1 1 1 1 1 0 0 -1 -1 -1 -1 -1 -0 1 2 3 5 6 6 5 6 8 10 11 11 11 11 11 11 11 9
3 2 4 1 4 7 5 6 4 6 4 3 2 2 1 1 0 0 0 0 0 0 0 0 -0 -1 -2 -3 -4 -4 -4 -4 -4 -5 -5 -5 -5 -4 -3 2 7 9 11 11 11 11 10 8 8
4 4 5 6 6 7 7 7 3 4 4 3 2 1 0 -0 -1 -1 -1 -0 -0 0 0 -1 -1 -1 -1 -0 -1 -3 -4 -5 -5 -4 -3 -4 -4 -4 -3 -1 -0 7 10 11 11 11 10 8 8
2 5 5 6 6 5 6 5 2 2 1 1 1 1 0 -1 -1 -1 -1 -1 -1 -0 -1 -1 -1 -2 -2 -3 -3 -3 -3 -2 -2 -2 -2 -2 -2 -2 -1 1 3 1 8 11 12 11 9 9 8

GFSSGP_850_dewp_132.txt.gz
Dewpoint
-6 -11 -18 -4 -9 -14 -16 -18 -20 -16 -11 -10 -10 -9 -8 -7 -3 -0 7 4 5 12 2 7 8 9 9 9 8 8 8 8 8 9 10 11 10 9 5 4 5 6 7 8 10 11 10 10 10
-10 -13 -5 -8 -12 -14 -15 -17 -17 -17 -16 -12 -10 -10 -3 -1 -0 3 7 8 7 12 3 7 8 9 9 9 9 8 8 8 8 9 9 9 8 6 4 5 6 6 7 8 9 10 9 8 9
-13 -10 -7 -8 -11 -12 -13 -18 -13 -13 -12 -11 -11 -12 -9 -6 -4 2 12 8 10 12 7 7 8 9 9 9 9 9 9 9 8 8 7 7 6 4 5 4 5 6 7 7 7 7 7 7 7
-4 -6 -8 -6 -7 -11 -14 -14 -13 -13 -12 -10 -11 -10 -10 0 6 9 11 10 13 11 10 7 8 8 9 9 10 10 9 9 9 8 6 6 5 4 5 5 5 5 5 6 5 4 5 6 7
-4 -6 -4 -3 -4 -7 -9 -9 -9 -9 -10 -9 -8 -10 -8 4 4 7 11 14 14 12 10 7 8 9 9 9 10 10 10 9 9 8 6 5 4 5 5 5 5 5 5 4 3 3 4 5 6
-6 -3 -2 -2 -3 -5 -7 -7 -7 -6 -6 -5 -5 -6 -7 2 5 7 0 12 15 15 12 9 9 10 9 9 10 10 10 9 9 9 7 5 5 5 6 6 6 6 5 3 3 3 4 5 6
-5 -3 -2 -2 -2 -3 -4 -4 -4 -4 -4 -4 -5 -4 -5 -1 3 7 4 7 8 13 12 10 10 11 10 9 10 10 10 10 9 9 8 6 6 6 6 7 6 6 5 3 4 5 5 5 6
-3 -3 -2 -2 -1 -2 -4 -3 -3 -3 -3 -3 -3 -3 -3 -3 -1 6 10 12 12 9 10 10 11 11 10 10 10 10 10 10 10 9 9 7 6 6 7 7 7 7 6 5 6 6 6 6 6
-4 -7 -6 -7 -4 -5 -5 -3 -5 -4 -3 -3 -2 -2 -2 -2 3 4 6 11 14 13 12 14 14 11 10 10 10 10 10 11 10 10 9 8 7 8 8 8 8 8 7 7 7 7 7 7 7
-10 -13 -15 -11 -8 -6 -5 -7 -9 -10 -11 -10 -9 -7 -2 -1 -3 -2 1 4 10 15 15 15 14 12 14 14 11 10 11 11 11 10 10 9 12 13 12 11 9 9 8 8 7 7 8 8 9
-15 -14 -16 -11 -8 -8 -10 -12 -14 -14 -14 -15 -13 -7 -6 -9 -8 -7 -5 -1 5 13 14 14 15 14 14 14 13 14 13 13 12 11 10 13 14 14 14 13 11 10 9 9 9 8 8 11 13
-10 -13 -12 -14 -10 -11 -13 -14 -16 -17 -18 -18 -16 -14 -13 -14 -15 -14 -11 -6 1 8 13 14 14 13 14 13 13 10 13 14 14 14 12 14 14 14 14 15 14 14 12 13 12 12 12 13 12
-12 -14 -13 -12 -12 -13 -14 -15 -16 -17 -17 -16 -16 -16 -15 -14 -13 -12 -10 -9 -6 3 11 13 13 13 13 13 13 13 13 13 14 14 12 14 14 14 14 15 15 14 14 14 13 13 13 13 12
-10 -11 -11 -12 -13 -13 -13 -15 -15 -17 -18 -16 -15 -14 -13 -12 -12 -11 -11 -10 -5 1 7 12 13 12 12 13 13 13 9 13 13 13 8 9 14 14 14 14 15 15 14 14 13 13 13 13 13
-8 -9 -13 -14 -14 -16 -15 -16 -17 -17 -16 -15 -16 -15 -15 -14 -13 -13 -11 -8 -8 -3 6 8 13 9 5 2 12 12 12 7 6 7 7 8 10 13 13 12 14 14 13 14 14 14 14 13 12
-8 -10 -12 -14 -15 -15 -14 -14 -18 -15 -15 -14 -15 -13 -10 -10 -10 -12 -12 -11 -10 -7 -4 7 10 13 3 1 9 13 13 6 6 6 7 7 8 11 9 10 10 13 13 12 13 13 13 13 13
-9 -14 -13 -13 -13 -13 -12 -10 -12 -12 -11 -10 -9 -10 -9 -9 -9 -9 -10 -12 -12 -12 -6 1 9 12 9 1 2 12 13 8 6 6 5 6 6 8 7 7 7 12 9 9 11 13 13 13 13
-11 -11 -12 -12 -12 -11 -8 -7 -8 -9 -9 -10 -9 -9 -9 -9 -9 -9 -9 -9 -11 -13 -11 -4 6 12 10 4 1 8 13 12 13 10 5 5 5 4 5 6 5 7 12 10 9 10 12 12 12
-7 -7 -8 -10 -9 -5 -4 -5 -6 -8 -9 -9 -9 -8 -8 -9 -9 -9 -9 -8 -8 -8 -9 -7 0 11 13 11 5 4 7 5 11 11 5 5 1 5 5 4 3 5 12 13 7 9 9 12 12
-6 -6 -6 -8 -7 -4 -4 -3 -6 -9 -11 -10 -8 -6 -7 -9 -9 -8 -8 -8 -7 -7 -7 -8 -2 10 12 12 8 0 -2 2 4 5 2 0 -0 2 3 3 10 8 12 12 8 9 10 12 12
-5 -5 -5 -4 -4 -4 -3 -5 -12 -9 -9 -2 -0 1 1 1 -2 -3 -7 -8 -8 -7 -6 -7 -6 7 12 12 12 7 6 11 11 11 10 11 6 0 2 4 11 12 10 11 8 9 11 12 12
-3 -6 -4 -3 -0 1 -2 1 -5 -7 0 1 -1 1 1 2 3 2 1 -3 -6 -8 -7 -7 -5 4 11 12 12 10 5 9 9 8 11 12 11 10 6 6 10 9 7 8 9 10 10 12 12
-3 -3 -2 -1 0 1 -3 -1 -7 1 3 1 -1 -0 1 1 2 3 -1 1 -3 -9 -8 -8 -5 2 10 13 12 12 7 6 10 11 12 12 9 11 9 9 11 9 10 11 12 12 12 12 12
-3 -1 -1 -1 0 3 -3 -4 -1 3 4 1 0 -1 -1 0 1 2 3 4 3 3 2 1 0 2 9 12 13 13 12 12 12 13 13 13 12 9 7 6 7 11 12 9 8 7 10 11 11
-1 1 -0 0 1 -2 -6 -3 3 -0 -0 2 1 -0 -1 -1 -1 -0 0 1 2 4 7 8 10 10 12 13 13 14 14 14 14 14 13 12 12 12 11 9 9 10 9 8 6 5 6 9 9
1 1 2 4 0 1 -3 -2 4 -3 -4 -1 -1 -1 -1 -2 -2 -2 -1 -1 -0 1 2 4 7 11 12 13 13 14 14 11 12 13 11 11 11 14 13 12 11 11 10 7 6 5 6 6 8
5 3 2 4 1 3 -3 0 1 -3 -3 -2 -1 -2 -2 -3 -3 -3 -3 -2 -2 -1 -0 1 3 6 9 10 11 11 12 13 13 12 12 12 12 12 12 11 10 9 7 8 6 5 3 4 5
0 -1 2 4 6 3 -2 4 2 1 -0 -1 -1 -2 -2 -3 -4 -4 -4 -4 -3 -2 -2 -1 1 2 4 6 7 7 9 10 11 11 12 12 11 10 8 7 6 6 6 6 6 6 7 10 10
-2 1 1 1 2 4 4 4 2 2 1 -0 -1 -2 -3 -4 -4 -5 -5 -4 -4 -3 -3 -2 -1 -1 -1 -0 -0 2 3 4 3 3 4 6 8 9 8 8 7 6 7 8 9 9 8 10 12
-2 -0 1 4 4 3 4 5 1 1 0 -1 -2 -3 -3 -4 -5 -5 -5 -5 -5 -5 -4 -2 -1 -0 -1 -2 -2 -2 -2 -2 -3 -3 -3 -3 -3 -3 -3 -3 -2 -1 -1 -0 1 4 7 11 12

GFSSGP_850_dewp_135.txt.gz
Dewpoint
-6 -5 -7 -6 -6 -13 -13 -16 -20 -18 -15 -12 -11 -8 -7 -7 -4 1 5 11 10 10 11 8 10 10 9 8 7 7 8 11 12 12 11 11 11 9 6 6 7 8 9 10 10 10 10 11 11
-3 -6 -5 -6 -10 -10 -13 -16 -17 -18 -17 -14 -13 -9 -6 -2 -4 -1 5 12 11 11 13 8 10 9 8 8 8 7 8 11 11 11 10 11 11 8 5 6 7 8 8 9 10 11 10 10 10
-4 -4 -5 -6 -6 -8 -11 -16 -14 -16 -14 -14 -13 -12 -10 -3 0 5 8 11 12 13 16 9 9 9 9 9 8 8 8 9 9 10 10 11 11 7 5 6 6 7 8 8 10 10 9 8 8
-3 -5 -5 -4 -5 -9 -11 -15 -16 -14 -13 -12 -11 -11 -10 1 2 5 10 14 13 14 15 12 9 9 9 9 9 8 8 8 9 9 10 10 10 5 5 6 6 7 7 7 8 7 6 6 7
-4 -3 -3 -3 -4 -7 -9 -11 -10 -8 -9 -10 -9 -9 -10 -0 4 6 10 14 14 14 15 15 10 10 9 10 9 9 9 8 9 9 9 9 8 4 5 5 5 6 6 5 5 4 5 6 6
-4 -4 -1 -2 -5 -6 -7 -7 -6 -6 -6 -5 -5 -5 -7 -2 -0 4 9 14 14 15 16 15 11 10 10 10 9 9 9 9 9 9 8 7 6 4 5 4 5 5 6 4 3 3 4 5 5
-4 -4 -3 -3 -4 -4 -5 -6 -4 -4 -3 -4 -4 -4 -5 -3 -2 2 7 12 15 16 16 16 11 11 11 11 10 10 10 9 9 9 8 6 5 5 5 5 5 6 5 4 3 4 5 5 5
-6 -5 -4 -5 -5 -4 -6 -5 -4 -4 -4 -3 -3 -3 -3 -3 -2 1 3 10 14 16 16 16 14 12 11 11 11 10 10 10 9 9 8 6 5 6 6 7 6 6 6 4 4 5 6 6 5
-10 -8 -8 -10 -10 -10 -8 -7 -7 -9 -10 -7 -7 -4 -3 -4 -4 -0 -1 3 11 15 16 16 16 15 14 13 11 11 11 10 10 9 9 7 7 7 7 8 7 7 6 5 6 7 6 7 7
-14 -12 -14 -16 -15 -9 -11 -10 -13 -14 -16 -17 -15 -13 -11 -3 -4 -6 -5 -4 1 9 15 15 15 16 15 15 14 11 11 11 10 10 9 8 10 11 12 10 8 8 7 7 7 7 7 8 9
-17 -14 -16 -18 -15 -12 -12 -15 -17 -17 -17 -18 -17 -17 -16 -14 -12 -12 -12 -10 -5 0 11 15 15 15 15 14 14 14 14 12 11 11 10 11 14 14 14 13 10 9 8 8 8 8 8 8 13
-11 -16 -18 -14 -16 -14 -14 -17 -17 -18 -18 -19 -19 -19 -17 -17 -16 -15 -16 -15 -11 -6 2 13 15 15 15 14 13 13 13 14 14 14 13 14 14 14 14 14 14 13 12 13 11 12 12 12 12
-14 -16 -16 -16 -15 -16 -16 -17 -17 -17 -18 -18 -17 -17 -17 -16 -15 -14 -13 -13 -12 -8 -5 8 14 14 15 15 13 13 12 13 13 14 14 13 14 14 14 14 14 14 13 13 13 12 12 12 12
-14 -12 -14 -15 -15 -15 -15 -16 -17 -18 -18 -17 -16 -16 -17 -16 -15 -14 -13 -12 -10 -9 -6 -1 12 14 15 14 13 13 13 13 13 13 14 13 14 14 14 14 13 14 13 13 12 12 11 11 11
-10 -10 -13 -16 -16 -17 -17 -17 -19 -18 -17 -16 -16 -16 -16 -15 -15 -12 -11 -12 -11 -10 -7 -3 9 13 14 14 14 13 13 13 13 13 13 13 14 14 13 14 13 14 13 13 13 12 12 12 11
-10 -11 -11 -15 -16 -16 -16 -14 -17 -16 -14 -14 -13 -13 -12 -12 -12 -12 -11 -10 -10 -12 -11 -7 -1 10 14 14 14 13 13 13 13 13 13 14 13 14 14 14 13 14 13 13 13 12 12 12 11
-12 -11 -12 -15 -16 -14 -13 -12 -14 -13 -12 -12 -11 -11 -11 -11 -10 -10 -10 -10 -10 -10 -11 -10 -7 2 12 13 14 13 13 13 13 13 13 14 14 13 14 14 14 13 14 14 14 12 12 12 12
-10 -11 -14 -14 -16 -14 -10 -9 -10 -12 -11 -10 -10 -9 -7 -6 -6 -6 -8 -9 -9 -9 -9 -10 -10 -6 9 12 13 13 13 13 13 13 13 14 13 13 14 13 14 13 14 14 13 12 12 12 12
-10 -11 -11 -13 -12 -8 -7 -8 -9 -10 -10 -2 -2 -1 -1 -0 0 1 2 -4 -8 -7 -7 -7 -8 -9 -1 12 13 13 14 13 12 13 12 13 11 14 13 14 14 13 14 13 13 13 13 13 13
-8 -8 -9 -10 -9 -9 -8 -7 -8 -9 -2 -2 -2 -2 -2 -1 -1 0 1 2 2 1 -5 -7 -6 -7 -7 10 12 12 13 13 10 10 13 13 13 11 14 13 14 10 12 13 13 13 13 13 13
-7 -7 -8 -8 -8 -8 -6 -4 -12 -5 -2 -2 -2 -2 -2 -2 -1 -0 1 2 4 3 1 -5 -6 -5 -7 -4 12 12 13 13 12 11 12 13 13 12 9 10 13 13 11 12 13 13 13 12 13
-5 -8 -6 -6 -4 -2 -5 -1 -7 -2 -1 -2 -2 -1 -1 -2 -2 -0 1 2 3 3 2 -1 -6 -6 -5 -6 10 12 13 13 12 10 7 12 10 7 2 9 12 12 13 12 13 13 13 13 12
-6 -6 -4 -3 -1 -1 -3 -2 -5 -2 -1 -1 -2 -1 -1 -1 -2 -2 -1 0 2 3 4 2 -4 -6 -5 -5 3 11 12 12 11 10 6 10 12 11 5 3 6 12 14 12 12 13 13 12 12
-5 -2 -2 -2 -1 2 -4 -5 -1 -0 -1 -1 -2 -1 -2 -2 -2 -2 -2 -2 -1 1 3 3 3 -6 -6 -6 0 11 11 12 11 11 10 11 12 12 12 10 9 12 12 12 10 9 10 8 9
-2 -1 -1 -1 3 -1 -6 -4 2 -2 -3 -2 -3 -2 -2 -2 -2 -2 -3 -3 -2 -1 0 3 4 5 2 -0 1 11 11 12 11 10 10 12 13 13 11 12 12 12 12 11 7 4 5 6 6
0 -1 0 2 -2 -2 -4 0 1 -3 -4 -2 -3 -3 -2 -2 -2 -3 -4 -5 -4 -2 -1 0 1 4 7 3 7 11 11 12 11 11 12 13 12 10 12 12 12 13 12 9 8 8 8 5 5
3 3 -2 2 -0 1 -3 2 -1 -3 -3 -2 -2 -2 -2 -2 -3 -4 -4 -4 -4 -3 -2 -1 0 2 4 8 10 9 12 11 13 14 14 14 13 12 12 13 13 13 12 11 11 10 9 8 7
-1 -3 2 3 5 3 -3 3 3 1 -0 -1 -0 -2 -3 -3 -4 -4 -5 -5 -5 -4 -3 -2 -1 0 1 4 6 6 6 7 9 12 12 12 11 12 12 12 12 12 12 12 12 11 9 7 6
-4 1 0 -1 0 3 4 5 2 1 -1 -0 -2 -2 -3 -4 -4 -5 -5 -5 -6 -4 -5 -4 -3 -1 -0 2 2 2 3 3 6 9 10 10 11 11 11 12 12 12 12 12 12 12 11 10 10
-4 -2 -2 5 2 6 3 4 -0 -1 -1 -2 -2 -2 -3 -4 -5 -5 -5 -5 -6 -5 -5 -5 -4 -3 -2 -0 0 0 1 1 2 3 4 7 9 6 6 7 8 8 8 8 9 10 9 9 10

GFSSGP_850_dewp_138.txt.gz
Dewpoint
-7 -4 -6 -6 -5 -7 -9 -13 -18 -18 -16 -13 -12 -9 -7 -7 -4 6 11 12 9 14 10 8 6 8 8 7 6 6 6 9 11 12 11 10 9 7 4 6 8 9 10 10 10 10 10 10 10
-5 -4 -6 -6 -4 -7 -10 -15 -15 -15 -15 -14 -15 -9 -8 -2 1 4 6 10 11 13 12 11 7 10 9 7 7 6 6 8 10 12 11 10 9 7 4 6 7 9 9 10 10 10 11 10 10
-6 -2 -5 -4 -4 -5 -8 -14 -15 -16 -14 -15 -14 -12 -11 -2 2 5 9 13 12 14 14 12 9 11 9 8 7 7 6 7 9 10 9 9 10 7 5 6 7 8 9 10 10 10 9 9 9
-2 -4 -5 -2 -3 -7 -8 -13 -15 -14 -12 -13 -13 -11 -8 -0 3 6 9 14 13 14 15 13 11 11 9 8 8 7 7 7 7 8 9 9 10 7 5 6 6 7 8 8 9 8 6 6 6
-3 -3 -1 -2 -4 -6 -8 -10 -12 -9 -8 -9 -8 -8 -7 1 2 4 9 14 14 14 16 15 12 11 9 9 8 8 7 8 8 7 9 9 9 7 4 6 6 6 6 7 7 6 4 5 6
-4 -4 -1 -1 -4 -6 -8 -8 -7 -5 -6 -5 -5 -5 -6 -1 -1 2 7 13 15 15 15 15 14 11 10 10 9 9 8 8 8 8 8 9 8 6 4 5 6 7 6 6 5 5 4 5 5
-3 -4 -2 -3 -4 -5 -6 -6 -6 -5 -4 -4 -3 -3 -5 -2 -2 -1 4 9 11 16 16 16 15 12 11 10 10 9 9 9 9 9 8 8 8 6 5 5 6 6 7 6 4 4 4 5 5
-8 -6 -4 -5 -5 -6 -9 -7 -6 -5 -5 -7 -5 -3 -2 -3 -6 -4 0 3 12 13 16 16 13 13 11 11 10 10 10 9 9 9 9 8 8 7 6 6 6 6 6 6 4 5 5 5 5
-12 -10 -9 -9 -9 -14 -12 -9 -8 -9 -12 -13 -12 -11 -6 -6 -7 -2 -3 -3 10 12 15 16 14 12 11 11 11 11 10 10 10 10 9 9 8 6 7 7 7 7 7 6 5 6 6 6 6
-16 -12 -11 -14 -17 -16 -14 -11 -13 -16 -17 -17 -18 -17 -15 -14 -9 -6 -8 -10 -7 -1 11 15 16 15 13 12 12 11 11 10 10 10 10 10 8 6 6 7 7 7 7 6 6 7 6 7 7
-17 -15 -15 -17 -18 -17 -16 -15 -16 -18 -18 -19 -18 -18 -18 -17 -17 -16 -15 -13 -14 -12 -6 12 15 16 15 14 15 12 11 11 10 10 10 10 8 7 8 8 8 7 7 7 6 7 7 7 10
-15 -14 -14 -17 -18 -16 -16 -16 -17 -18 -18 -18 -18 -18 -17 -16 -15 -15 -14 -14 -13 -12 -10 -3 13 14 14 15 15 15 12 11 11 10 10 10 9 10 11 12 10 9 8 8 7 8 7 8 11
-15 -16 -16 -16 -16 -17 -17 -16 -16 -17 -17 -17 -17 -17 -16 -16 -15 -14 -13 -13 -12 -11 -10 -9 1 13 14 15 15 15 14 12 12 11 10 10 10 11 13 13 13 11 9 9 8 9 9 10 11
-15 -14 -13 -14 -15 -16 -15 -16 -18 -18 -18 -17 -16 -16 -16 -16 -16 -15 -14 -12 -11 -11 -11 -8 -7 9 13 14 13 14 14 14 13 12 12 12 12 12 13 13 13 13 12 12 11 12 12 10 11
-9 -9 -14 -14 -15 -16 -17 -16 -17 -18 -17 -15 -14 -14 -13 -12 -12 -12 -11 -10 -10 -10 -9 -11 -9 -5 14 13 12 14 14 14 13 13 13 11 13 13 13 13 13 13 14 13 12 12 13 12 10
-11 -11 -9 -13 -16 -16 -16 -12 -16 -15 -14 -14 -13 -12 -11 -9 -3 -2 -1 0 0 -5 -10 -10 -10 -10 4 13 13 13 13 13 14 13 14 14 12 12 13 13 13 13 13 12 13 12 11 11 11
-9 -8 -10 -12 -16 -15 -14 -12 -14 -12 -12 -12 -8 -2 -2 -2 -2 -3 -3 -1 -1 -2 -0 -9 -8 -10 -9 3 12 11 14 14 13 14 14 14 14 12 13 13 13 13 13 12 13 12 12 12 12
-7 -9 -11 -13 -16 -16 -13 -11 -11 -12 -10 -2 -2 -2 -3 -3 -2 -2 -4 -5 -2 -0 2 3 -6 -8 -7 -9 9 12 10 13 13 13 13 14 14 12 12 14 13 13 13 13 13 12 13 13 11
-9 -12 -12 -14 -15 -11 -9 -10 -12 -4 -3 -2 -2 -2 -2 -2 -2 -2 -2 -2 -1 0 3 4 4 -0 -7 -7 -4 10 12 12 13 13 14 14 14 13 12 14 13 13 12 13 13 12 12 13 12
-10 -9 -9 -11 -12 -11 -10 -10 -5 -2 -2 -3 -2 -2 -2 -2 -2 -2 -2 -2 -1 -1 2 3 4 3 2 -7 -5 7 11 12 12 14 13 12 14 12 12 13 13 13 11 14 14 11 12 13 12
-9 -8 -9 -9 -10 -10 -9 -8 -1 -2 -4 -3 -3 -2 -2 -2 -2 -2 -2 -2 -2 -1 1 2 2 4 4 -4 -6 -6 9 11 11 12 14 12 12 12 11 13 14 13 11 12 14 12 11 12 13
-7 -10 -8 -7 -6 -4 -7 -3 -7 -3 -3 -3 -3 -3 -2 -2 -2 -2 -2 -2 -3 -2 -0 1 1 4 4 -2 -5 -5 -4 11 11 11 14 14 12 10 12 11 14 13 13 11 13 13 13 12 11
-6 -8 -6 -5 -4 -2 -3 -4 -2 -2 -1 -2 -3 -3 -2 -2 -2 -2 -3 -3 -3 -3 -1 1 1 1 3 3 -3 -5 -4 -2 11 10 13 13 14 13 10 11 12 14 13 11 10 11 12 13 10
-7 -4 -3 -3 -2 3 -2 -4 1 -0 -1 -1 -2 -2 -2 -2 -3 -3 -3 -3 -3 -4 -3 -0 2 1 1 2 0 -2 -3 -4 5 11 12 12 14 14 13 12 11 14 13 13 11 9 11 10 8
-4 -2 -0 -1 3 4 -4 -3 1 -2 -2 -2 -2 -2 -2 -3 -3 -4 -4 -4 -4 -4 -4 -2 1 2 3 4 3 -2 -3 0 -4 11 11 12 14 14 12 9 7 8 13 12 13 11 10 3 6
-2 -2 -0 3 -1 -1 -5 1 1 -3 -3 -2 -2 -2 -2 -3 -3 -4 -4 -5 -5 -5 -4 -3 -2 1 2 3 4 4 3 1 2 9 10 12 12 13 11 6 7 5 11 12 12 12 9 8 8
0 1 -1 -0 -1 2 -2 2 -0 -3 -2 -2 -2 -2 -2 -3 -3 -4 -4 -5 -5 -5 -4 -4 -2 -1 -0 1 2 6 6 6 8 9 12 12 12 13 14 11 8 12 12 11 8 9 9 9 8
-4 -5 -1 2 3 0 -1 5 4 1 -1 -1 -1 -2 -2 -3 -4 -4 -5 -5 -5 -5 -5 -4 -3 -2 -2 -0 0 3 4 7 7 7 10 9 12 13 14 14 14 14 13 12 12 11 9 10 9
-1 -1 0 -2 -1 0 3 4 2 -1 -1 -1 -3 -2 -2 -3 -4 -4 -5 -5 -5 -4 -5 -4 -4 -4 -3 -1 -0 1 1 4 5 5 8 7 12 13 13 13 13 12 12 9 12 12 11 11 11
-6 -3 -4 1 -0 2 4 5 -1 -2 -2 -3 -3 -3 -3 -3 -4 -4 -5 -5 -5 -4 -5 -5 -5 -5 -4 -3 -2 0 0 1 2 1 2 7 6 11 12 12 11 10 10 10 11 12 12 11 11